[[{"header":{"parameterUnit":"m.s-1","parameterCategory":1,"la1":30.6,"la2":29.2853,"lo1":-89.7004,"lo2":-87.6739,"dy":0.0162,"dx":0.0183,"nx":112,"ny":82,"refTime":"2023-03-22T06:00:00:Z","depth":0,"parameterNumber":2,"parameterNumberName":"U-component_of_WINDS"},"data":[0.0,0.0,0.0,0.0,0.0,0.0,0.0,0.0,0.0,0.0,0.0,0.0,0.0,0.0,0.0,0.0,0.0,0.0,0.0,0.0,0.0,0.0,0.0,0.0,0.0,0.0,0.0,0.0,0.0,0.0,0.0,0.0,0.0,0.0,0.0,0.0,0.0,0.0,0.0,0.0,0.0,0.0,0.0,0.0,0.0,0.0,0.0,0.0,0.0,0.0,0.0,0.0,0.0,0.0,0.0,0.0,0.0,0.0,0.0,0.0,0.0,0.0,0.0,0.0,0.0,0.0,0.0,0.0,0.0,0.0,0.0,0.0,0.0,0.0,0.0,0.0,0.0,0.0,0.0,0.0,0.0,0.0,0.0,0.0,0.0,0.0,0.0,0.0,0.0,0.0,-4.1588,-4.1588,-4.1588,-4.1588,-4.1588,-4.1588,-4.1785,-4.2158,0.0,0.0,0.0,0.0,0.0,0.0,0.0,0.0,0.0,0.0,0.0,0.0,0.0,0.0,0.0,0.0,0.0,0.0,0.0,0.0,0.0,0.0,0.0,0.0,0.0,0.0,0.0,0.0,0.0,0.0,0.0,0.0,0.0,0.0,0.0,0.0,0.0,0.0,0.0,0.0,0.0,0.0,0.0,0.0,0.0,0.0,0.0,0.0,0.0,0.0,0.0,0.0,0.0,0.0,0.0,0.0,0.0,0.0,0.0,0.0,0.0,0.0,0.0,0.0,0.0,0.0,0.0,0.0,0.0,0.0,0.0,0.0,0.0,0.0,0.0,0.0,0.0,0.0,0.0,0.0,0.0,0.0,0.0,0.0,0.0,0.0,0.0,0.0,0.0,0.0,0.0,0.0,0.0,0.0,0.0,0.0,0.0,0.0,0.0,0.0,0.0,0.0,0.0,0.0,-4.1588,-4.1588,-4.1588,-4.1588,-4.1588,-4.1588,-4.1835,-4.2459,0.0,0.0,0.0,0.0,0.0,0.0,0.0,0.0,0.0,0.0,0.0,0.0,0.0,0.0,0.0,0.0,0.0,0.0,0.0,0.0,0.0,0.0,0.0,0.0,0.0,0.0,0.0,0.0,0.0,0.0,0.0,0.0,0.0,0.0,0.0,0.0,0.0,0.0,0.0,0.0,0.0,0.0,0.0,0.0,0.0,0.0,0.0,0.0,0.0,0.0,0.0,0.0,0.0,0.0,0.0,0.0,0.0,0.0,0.0,0.0,0.0,0.0,0.0,0.0,0.0,0.0,0.0,0.0,0.0,0.0,0.0,0.0,0.0,0.0,0.0,0.0,0.0,0.0,0.0,0.0,0.0,0.0,0.0,0.0,0.0,0.0,0.0,0.0,0.0,0.0,0.0,0.0,0.0,0.0,0.0,0.0,0.0,0.0,0.0,0.0,0.0,0.0,0.0,-4.1588,-4.1588,-4.1588,-4.1588,-4.1588,-4.1588,-4.1588,-4.1835,-4.2285,-4.2818,0.0,0.0,0.0,0.0,0.0,0.0,0.0,0.0,0.0,0.0,0.0,0.0,0.0,0.0,0.0,0.0,0.0,0.0,0.0,0.0,0.0,0.0,0.0,0.0,0.0,0.0,0.0,0.0,0.0,0.0,0.0,0.0,0.0,0.0,0.0,0.0,0.0,0.0,0.0,0.0,0.0,0.0,0.0,0.0,0.0,0.0,0.0,0.0,0.0,0.0,0.0,0.0,0.0,0.0,0.0,0.0,0.0,0.0,0.0,0.0,0.0,0.0,0.0,0.0,0.0,0.0,0.0,0.0,0.0,0.0,0.0,0.0,0.0,0.0,0.0,0.0,0.0,0.0,0.0,0.0,0.0,0.0,0.0,0.0,0.0,0.0,0.0,0.0,0.0,0.0,0.0,0.0,0.0,0.0,0.0,0.0,0.0,0.0,0.0,0.0,0.0,0.0,-4.1588,-4.1588,-4.1588,-4.1588,-4.1588,-4.1588,-4.1588,-4.172,-4.2109,-4.2896,0.0,0.0,0.0,0.0,0.0,0.0,0.0,0.0,0.0,0.0,0.0,0.0,0.0,0.0,0.0,0.0,0.0,0.0,0.0,0.0,0.0,0.0,0.0,0.0,0.0,0.0,0.0,0.0,0.0,0.0,0.0,0.0,0.0,0.0,0.0,0.0,0.0,0.0,0.0,0.0,0.0,0.0,0.0,0.0,0.0,0.0,0.0,0.0,0.0,0.0,0.0,0.0,0.0,0.0,0.0,0.0,0.0,0.0,0.0,0.0,0.0,0.0,0.0,0.0,0.0,0.0,0.0,0.0,0.0,0.0,0.0,0.0,0.0,0.0,0.0,0.0,0.0,0.0,0.0,0.0,0.0,0.0,0.0,0.0,0.0,0.0,0.0,0.0,0.0,0.0,0.0,0.0,0.0,0.0,0.0,0.0,0.0,0.0,0.0,0.0,0.0,0.0,-4.1588,-4.1588,-4.1588,-4.1588,-4.1588,-4.1588,-4.1588,-4.172,-4.2109,-4.2896,0.0,0.0,0.0,0.0,0.0,0.0,0.0,0.0,0.0,0.0,0.0,0.0,0.0,0.0,0.0,0.0,0.0,0.0,0.0,0.0,0.0,0.0,0.0,0.0,0.0,0.0,0.0,0.0,0.0,0.0,0.0,0.0,0.0,0.0,0.0,0.0,0.0,0.0,0.0,0.0,0.0,0.0,0.0,0.0,0.0,0.0,0.0,0.0,0.0,0.0,0.0,0.0,0.0,0.0,0.0,0.0,0.0,0.0,0.0,0.0,0.0,0.0,0.0,0.0,0.0,0.0,0.0,0.0,0.0,0.0,0.0,0.0,0.0,0.0,0.0,0.0,0.0,0.0,0.0,0.0,0.0,0.0,0.0,0.0,0.0,0.0,0.0,0.0,0.0,0.0,0.0,0.0,0.0,0.0,0.0,0.0,0.0,0.0,0.0,0.0,0.0,0.0,-4.1588,-4.1588,0.0,-4.1588,-4.1588,-4.1588,-4.1588,-4.1654,-4.1785,0.0,0.0,0.0,0.0,0.0,0.0,0.0,0.0,0.0,0.0,0.0,0.0,0.0,0.0,0.0,0.0,0.0,0.0,0.0,0.0,0.0,0.0,0.0,0.0,0.0,0.0,0.0,0.0,0.0,0.0,0.0,0.0,0.0,0.0,0.0,0.0,0.0,0.0,0.0,0.0,0.0,0.0,0.0,0.0,0.0,0.0,0.0,0.0,0.0,0.0,0.0,0.0,0.0,0.0,0.0,0.0,0.0,0.0,0.0,0.0,0.0,0.0,0.0,0.0,0.0,0.0,0.0,0.0,0.0,0.0,0.0,0.0,0.0,0.0,0.0,0.0,0.0,0.0,0.0,0.0,0.0,0.0,0.0,0.0,0.0,0.0,0.0,0.0,0.0,0.0,0.0,0.0,0.0,0.0,0.0,0.0,0.0,0.0,0.0,0.0,0.0,0.0,-4.1588,-4.1588,-4.1588,0.0,-4.1588,-4.1588,-4.1588,-4.1588,-4.172,-4.19,0.0,0.0,0.0,0.0,0.0,0.0,0.0,0.0,0.0,0.0,0.0,0.0,0.0,0.0,0.0,0.0,0.0,0.0,0.0,0.0,0.0,0.0,0.0,0.0,0.0,0.0,0.0,0.0,0.0,0.0,0.0,0.0,0.0,0.0,0.0,0.0,0.0,0.0,0.0,0.0,0.0,0.0,0.0,0.0,0.0,0.0,0.0,0.0,0.0,0.0,0.0,0.0,0.0,0.0,0.0,0.0,0.0,0.0,0.0,0.0,0.0,0.0,0.0,0.0,0.0,0.0,0.0,0.0,0.0,0.0,0.0,0.0,0.0,0.0,0.0,0.0,0.0,0.0,0.0,0.0,0.0,0.0,0.0,0.0,0.0,0.0,0.0,0.0,0.0,0.0,0.0,0.0,0.0,0.0,0.0,0.0,0.0,0.0,0.0,0.0,0.0,0.0,-4.1588,-4.1588,-4.1588,-4.1588,-4.1588,-4.1588,-4.1588,-4.1588,-4.19,0.0,0.0,0.0,0.0,0.0,0.0,0.0,0.0,0.0,0.0,0.0,0.0,0.0,0.0,0.0,0.0,0.0,0.0,0.0,0.0,0.0,0.0,0.0,0.0,0.0,0.0,0.0,0.0,0.0,0.0,0.0,0.0,0.0,0.0,0.0,0.0,0.0,0.0,0.0,0.0,0.0,0.0,0.0,0.0,0.0,0.0,0.0,0.0,0.0,0.0,0.0,0.0,0.0,0.0,0.0,0.0,0.0,0.0,0.0,0.0,0.0,0.0,0.0,0.0,0.0,0.0,0.0,0.0,0.0,0.0,0.0,0.0,0.0,0.0,0.0,0.0,0.0,0.0,0.0,0.0,0.0,0.0,0.0,0.0,0.0,0.0,0.0,0.0,0.0,0.0,0.0,0.0,0.0,0.0,0.0,0.0,0.0,0.0,0.0,0.0,0.0,0.0,0.0,-4.1588,-4.1588,-4.1588,-4.1588,-4.1588,-4.1588,-4.1588,-4.1588,-4.19,-4.2585,0.0,0.0,0.0,0.0,0.0,0.0,0.0,0.0,0.0,0.0,0.0,0.0,0.0,0.0,0.0,0.0,0.0,0.0,0.0,0.0,0.0,0.0,0.0,0.0,0.0,0.0,0.0,0.0,0.0,0.0,0.0,0.0,0.0,0.0,0.0,0.0,0.0,0.0,0.0,0.0,0.0,0.0,0.0,0.0,0.0,0.0,0.0,0.0,0.0,0.0,0.0,0.0,0.0,0.0,0.0,0.0,0.0,0.0,0.0,0.0,0.0,0.0,0.0,0.0,0.0,0.0,0.0,0.0,0.0,0.0,0.0,0.0,0.0,0.0,0.0,0.0,0.0,0.0,0.0,0.0,0.0,0.0,0.0,0.0,0.0,0.0,0.0,0.0,0.0,0.0,0.0,0.0,0.0,0.0,0.0,0.0,0.0,0.0,0.0,0.0,0.0,0.0,-4.1588,-4.1588,-4.1588,-4.1588,-4.1588,-4.1588,-4.1588,-4.1588,-4.1964,-4.2726,0.0,0.0,0.0,0.0,0.0,0.0,0.0,0.0,0.0,0.0,0.0,0.0,0.0,0.0,0.0,0.0,0.0,0.0,0.0,0.0,0.0,0.0,0.0,0.0,0.0,0.0,0.0,0.0,0.0,0.0,0.0,0.0,0.0,0.0,0.0,0.0,0.0,0.0,0.0,0.0,0.0,0.0,0.0,0.0,0.0,0.0,0.0,0.0,0.0,0.0,0.0,0.0,0.0,0.0,0.0,0.0,0.0,0.0,0.0,0.0,0.0,0.0,0.0,0.0,0.0,0.0,0.0,0.0,0.0,0.0,0.0,0.0,0.0,0.0,0.0,0.0,0.0,0.0,0.0,0.0,0.0,0.0,0.0,0.0,0.0,0.0,0.0,0.0,0.0,0.0,0.0,0.0,0.0,0.0,0.0,0.0,0.0,0.0,0.0,0.0,0.0,0.0,-4.1588,-4.1588,-4.1588,-4.1588,-4.1588,-4.1588,-4.1588,-4.1588,-4.2029,-4.3035,0.0,0.0,0.0,0.0,0.0,0.0,0.0,0.0,0.0,0.0,0.0,0.0,0.0,0.0,0.0,0.0,0.0,0.0,0.0,0.0,0.0,0.0,0.0,0.0,0.0,0.0,0.0,0.0,0.0,0.0,0.0,0.0,0.0,0.0,0.0,0.0,0.0,0.0,0.0,0.0,0.0,0.0,0.0,0.0,0.0,0.0,0.0,0.0,0.0,0.0,0.0,0.0,0.0,0.0,0.0,0.0,0.0,0.0,0.0,0.0,-3.8492,0.0,0.0,0.0,0.0,0.0,0.0,0.0,0.0,0.0,0.0,0.0,0.0,0.0,0.0,0.0,0.0,0.0,0.0,0.0,0.0,0.0,0.0,0.0,0.0,0.0,0.0,0.0,0.0,0.0,0.0,0.0,0.0,0.0,0.0,0.0,0.0,0.0,0.0,0.0,0.0,0.0,-4.1588,-4.1588,-4.1588,-4.1588,-4.1588,-4.1588,-4.1588,-4.1588,-4.2029,-4.3035,-4.3246,0.0,0.0,0.0,0.0,0.0,0.0,0.0,0.0,0.0,0.0,0.0,0.0,0.0,0.0,0.0,0.0,0.0,0.0,0.0,0.0,0.0,0.0,0.0,0.0,0.0,0.0,0.0,0.0,0.0,0.0,0.0,0.0,0.0,0.0,0.0,0.0,0.0,0.0,0.0,0.0,0.0,0.0,0.0,0.0,0.0,0.0,0.0,0.0,0.0,0.0,0.0,0.0,0.0,0.0,0.0,0.0,0.0,0.0,0.0,0.0,-3.8376,0.0,0.0,0.0,0.0,0.0,0.0,0.0,0.0,0.0,0.0,0.0,0.0,0.0,0.0,0.0,0.0,0.0,0.0,0.0,0.0,0.0,0.0,0.0,0.0,0.0,0.0,0.0,0.0,0.0,0.0,0.0,0.0,0.0,0.0,0.0,0.0,0.0,0.0,0.0,0.0,-4.1588,-4.1588,-4.1588,-4.1588,-4.1588,-4.1588,-4.1588,-4.1588,-4.1964,-4.2789,-4.308,0.0,0.0,0.0,0.0,0.0,0.0,0.0,0.0,0.0,0.0,0.0,0.0,0.0,0.0,0.0,0.0,0.0,0.0,0.0,0.0,0.0,0.0,0.0,0.0,0.0,0.0,0.0,0.0,0.0,0.0,0.0,0.0,0.0,0.0,0.0,0.0,0.0,0.0,0.0,0.0,0.0,0.0,0.0,0.0,0.0,0.0,0.0,0.0,0.0,0.0,0.0,0.0,0.0,0.0,-3.8202,-3.8202,-3.8202,-3.8202,-3.8217,-3.8318,-3.8757,-3.9343,0.0,0.0,0.0,0.0,0.0,0.0,0.0,0.0,0.0,0.0,0.0,0.0,0.0,0.0,0.0,0.0,0.0,0.0,0.0,0.0,0.0,0.0,0.0,0.0,0.0,-4.1588,-4.1588,0.0,0.0,0.0,0.0,0.0,0.0,0.0,0.0,0.0,0.0,0.0,0.0,-4.1588,-4.1588,-4.1588,-4.1588,-4.1588,-4.1588,-4.1588,-4.1588,-4.19,-4.2632,-4.2958,-4.3519,0.0,0.0,0.0,0.0,0.0,0.0,0.0,0.0,0.0,0.0,0.0,0.0,0.0,0.0,0.0,0.0,0.0,0.0,0.0,0.0,0.0,0.0,0.0,0.0,0.0,0.0,0.0,0.0,0.0,0.0,0.0,0.0,-3.4024,-3.3259,0.0,0.0,0.0,0.0,0.0,0.0,0.0,0.0,0.0,0.0,0.0,0.0,0.0,0.0,-3.8202,-3.8202,-3.8202,-3.8202,-3.8202,-3.8202,-3.8202,-3.8202,-3.8202,-3.8231,-3.8812,0.0,-4.001,-3.9974,0.0,0.0,0.0,0.0,0.0,0.0,0.0,0.0,0.0,0.0,0.0,0.0,0.0,0.0,0.0,0.0,0.0,0.0,0.0,0.0,0.0,0.0,-4.1588,-4.1588,-4.1588,-4.1588,0.0,-4.1588,-4.1588,-4.1588,0.0,0.0,0.0,0.0,0.0,0.0,0.0,0.0,-4.1588,-4.1588,-4.1588,-4.1588,-4.1588,-4.1588,-4.1588,-4.1588,-4.2077,-4.3125,-4.3246,-4.3881,-4.5213,-4.4855,0.0,0.0,0.0,0.0,0.0,0.0,0.0,0.0,0.0,0.0,0.0,0.0,0.0,0.0,0.0,0.0,0.0,0.0,0.0,0.0,0.0,0.0,0.0,0.0,0.0,0.0,0.0,0.0,0.0,-3.3738,-3.3725,-3.3746,-3.4415,-3.5251,0.0,0.0,0.0,0.0,0.0,0.0,0.0,0.0,0.0,-3.8202,-3.8202,-3.8202,-3.8202,-3.8202,-3.8202,-3.8202,-3.8202,-3.8202,-3.8202,-3.8575,-3.8738,-3.8767,-3.9788,-4.0783,-4.1617,-4.1302,-4.1878,-4.313,0.0,0.0,0.0,0.0,0.0,-4.4526,-4.5157,0.0,0.0,0.0,0.0,0.0,0.0,0.0,0.0,0.0,0.0,0.0,0.0,0.0,0.0,-4.1588,-4.1588,-4.1588,-4.1588,-4.1588,-4.1588,0.0,-4.1588,-4.1588,-4.1588,0.0,0.0,0.0,0.0,0.0,-4.1588,-4.1588,-4.1588,-4.1588,-4.1588,-4.1588,-4.1588,-4.1588,-4.1948,-4.2818,-4.3125,-4.3722,-4.4725,-4.4691,-4.4783,0.0,0.0,0.0,0.0,0.0,0.0,0.0,0.0,0.0,0.0,0.0,0.0,0.0,0.0,0.0,0.0,0.0,0.0,0.0,0.0,0.0,0.0,0.0,0.0,0.0,0.0,0.0,0.0,-3.3894,-3.3882,-3.4314,-3.4799,-3.5264,0.0,0.0,0.0,0.0,0.0,0.0,-3.8202,-3.8202,-3.8202,-3.8202,-3.8202,-3.8202,-3.8202,-3.8352,-3.8352,-3.8202,-3.8352,-3.8352,-3.8202,-3.8649,-3.8943,-3.9149,-4.0482,-4.1629,-4.2643,-4.2349,-4.3012,-4.4143,-4.4434,-4.4843,-4.5336,-4.5484,-4.5231,-4.4902,-4.5573,-4.5484,-4.5142,-4.5646,0.0,-4.5807,-4.5807,0.0,0.0,0.0,0.0,-4.2141,-4.2126,0.0,-4.2141,-4.2141,-4.1999,-4.1873,-4.1873,-4.1715,-4.1588,0.0,-4.1588,-4.1588,-4.1588,0.0,0.0,0.0,0.0,-4.1588,-4.1588,-4.1588,-4.1588,-4.1588,-4.1588,-4.1588,-4.1588,-4.1654,-4.2029,-4.2694,-4.3185,-4.3722,-4.4463,-4.4412,-4.4507,-4.4746,0.0,0.0,0.0,0.0,0.0,0.0,0.0,0.0,0.0,0.0,0.0,0.0,0.0,0.0,0.0,0.0,0.0,0.0,0.0,0.0,0.0,0.0,0.0,0.0,0.0,0.0,0.0,0.0,0.0,-3.4481,-3.583,0.0,0.0,0.0,0.0,-3.8127,-3.8202,-3.8202,-3.8202,-3.8202,-3.8202,-3.8202,-3.8202,-3.8202,-3.8202,-3.8797,-3.8797,-3.8202,-3.8797,-3.8723,-3.8202,-3.8202,-3.8575,-3.9179,-4.0516,-4.1445,-4.2012,-4.2652,-4.37,-4.4737,-4.4143,-4.4004,-4.4066,-4.4677,-4.4812,-4.4902,-4.5573,-4.5807,-4.5735,-4.5807,-4.5807,-4.5807,-4.5807,-4.527,0.0,0.0,-4.4148,-4.3611,-4.3579,-4.3595,-4.3611,-4.3611,-4.3121,-4.2631,-4.2631,-4.2078,-4.1588,0.0,-4.1588,-4.1588,-4.1588,0.0,-4.1588,-4.1588,-4.1588,-4.1588,-4.1588,-4.1588,-4.1588,-4.1588,-4.1588,-4.1588,-4.1588,-4.1916,-4.2412,-4.3185,-4.3604,-4.4112,-4.4855,-4.4502,-4.4293,-4.435,-4.4293,0.0,0.0,0.0,0.0,0.0,0.0,0.0,0.0,0.0,0.0,0.0,0.0,0.0,0.0,0.0,0.0,0.0,0.0,0.0,0.0,0.0,0.0,0.0,0.0,0.0,0.0,0.0,0.0,-3.5237,-3.6201,0.0,-3.6936,-3.7414,-3.7886,-3.8202,-3.8202,-3.8202,-3.8202,-3.8575,-3.8575,-3.8202,-3.8575,-3.8575,-3.8202,-3.8427,-3.8575,-3.8797,-3.9031,-3.9162,-3.9334,-3.9707,-4.0005,-4.0307,-4.2011,-4.29,-4.3121,-4.4346,-4.4791,-4.4812,-4.5008,-4.5098,-4.5188,-4.5321,-4.5468,-4.5484,-4.5735,-4.5807,-4.5807,-4.5807,-4.5807,-4.5807,-4.5807,-4.5302,-4.4717,-4.4717,-4.4243,-4.3722,-4.3706,-4.3722,-4.3722,-4.3722,-4.3532,-4.3342,-4.3342,-4.3153,-4.2837,-4.2378,-4.1904,-4.1588,-4.1588,-4.1588,-4.1588,-4.1588,-4.1588,-4.1588,-4.1588,-4.1588,-4.1588,-4.1588,-4.1588,-4.1588,-4.1588,-4.172,-4.2093,-4.2789,-4.3262,-4.3781,-4.4502,-4.4597,-4.4778,-4.5017,-4.4825,-4.482,0.0,0.0,0.0,0.0,0.0,0.0,0.0,0.0,0.0,0.0,0.0,0.0,0.0,0.0,0.0,0.0,0.0,0.0,0.0,0.0,0.0,0.0,0.0,0.0,0.0,0.0,-3.5949,-3.5615,-3.6596,-3.7246,-3.6936,-3.772,-3.8202,-3.8202,-3.8202,-3.8277,-3.8501,-3.8649,-3.8738,-3.8501,-3.887,-3.8885,-3.8501,-3.8708,-3.8987,-3.9364,-3.9364,-3.9565,-3.9889,-4.0339,-4.0646,-4.0876,-4.2676,-4.3497,-4.3832,-4.5238,-4.5557,-4.5142,-4.5646,-4.5807,-4.5807,-4.5807,-4.5807,-4.5807,-4.5807,-4.5807,-4.5807,-4.5807,-4.5807,-4.5807,-4.5807,-4.5302,-4.4764,-4.5017,-4.4591,-4.4117,-4.4354,-4.4433,-4.4433,-4.4433,-4.4243,-4.4053,-4.4053,-4.3864,-4.3579,-4.3121,-4.2457,-4.1873,-4.1636,-4.1588,-4.1588,-4.1588,-4.1588,-4.1588,-4.1588,-4.1588,-4.1588,-4.1588,-4.1588,-4.1588,-4.1588,-4.172,-4.2045,-4.2555,-4.3035,-4.3618,-4.4432,-4.4621,-4.5015,-4.5757,-4.5857,-4.5924,-4.6066,0.0,0.0,0.0,0.0,0.0,0.0,0.0,0.0,0.0,0.0,0.0,0.0,0.0,0.0,0.0,0.0,0.0,0.0,0.0,0.0,0.0,0.0,0.0,-3.5775,-3.636,-3.661,-3.5775,-3.7155,-3.7886,-3.7014,-3.772,-3.8202,-3.8202,-3.8202,-3.8427,-3.9104,-3.8575,-3.8501,-3.9104,-3.9104,-3.9162,-3.9104,-3.9636,-3.9889,-3.9905,-3.9905,-3.9975,-3.996,-3.996,-4.027,-4.0876,-4.231,-4.3216,-4.3832,-4.5238,-4.5807,-4.5807,-4.5807,-4.5807,-4.5807,-4.5807,-4.5807,-4.5807,-4.5807,-4.5807,-4.5807,-4.5807,-4.5807,-4.5807,-4.5807,-4.5317,-4.4891,-4.5602,-4.5302,-4.4907,-4.5618,-4.5807,-4.5807,-4.5807,-4.5254,-4.4733,-4.4733,-4.4211,-4.3737,-4.3753,-4.3216,-4.2521,-4.1778,-4.1652,-4.1652,-4.1636,-4.162,0.0,-4.1588,-4.1588,-4.1588,-4.1588,-4.1588,-4.1588,-4.1654,-4.1916,-4.2302,-4.268,-4.3007,-4.3641,-4.4688,-4.4516,-4.5033,-4.6464,-4.7368,-4.7757,-4.7625,0.0,0.0,0.0,0.0,0.0,0.0,0.0,0.0,0.0,0.0,0.0,0.0,0.0,0.0,0.0,0.0,0.0,0.0,0.0,0.0,0.0,0.0,-3.6858,-3.661,-3.7323,-3.772,-3.7477,-3.7886,-3.8127,-3.7886,-3.8037,-3.8352,-3.8797,-3.8427,-3.8427,-3.9104,-3.9277,-3.9349,-3.9104,-3.9879,-4.0146,-3.9692,-3.9834,-4.0115,-4.0562,-4.0562,-4.0768,-4.1158,-4.1158,-4.1241,-4.1468,-4.2868,-4.3551,-4.3832,-4.5238,-4.5807,-4.5807,-4.5807,-4.5807,-4.5807,-4.5807,-4.5807,-4.5807,-4.5807,-4.5807,-4.5807,-4.5807,-4.5807,-4.5807,-4.5807,-4.5665,-4.5555,-4.576,-4.5665,-4.5555,-4.576,-4.5807,-4.5807,-4.5807,-4.5665,-4.5507,-4.5507,-4.5349,-4.5065,-4.4543,-4.429,-4.3927,-4.3216,-4.3121,-4.2963,-4.2457,0.0,0.0,-4.1652,-4.1588,-4.1588,-4.1588,-4.1588,-4.1769,-4.2269,-4.2396,-4.3092,-4.4514,-4.4741,-4.5135,-4.5949,-4.5917,-4.621,-4.6812,-4.7239,-4.7797,0.0,0.0,0.0,0.0,0.0,0.0,0.0,0.0,0.0,0.0,0.0,0.0,0.0,0.0,0.0,0.0,0.0,0.0,0.0,0.0,0.0,0.0,-3.6844,-3.7414,-3.7414,-3.7886,-3.8202,-3.8202,-3.8202,-3.8202,-3.8202,-3.8202,-3.8352,-3.8723,-3.8649,-3.887,-3.9436,-3.9763,-3.9834,-3.9809,-4.0439,-4.0646,-4.027,-4.027,-4.0562,-4.1122,-4.0935,-4.1055,-4.1588,-4.1588,-4.1588,0.0,-4.2774,-4.3437,-4.3816,-4.4907,-4.5539,0.0,0.0,0.0,0.0,0.0,-4.5807,-4.5807,-4.5807,-4.5807,-4.5807,-4.5807,-4.5807,-4.5807,-4.5807,-4.5807,-4.5807,-4.5807,-4.5807,-4.5807,-4.5807,-4.5807,-4.5807,-4.5807,-4.5807,-4.5807,-4.5807,-4.5807,-4.5681,-4.5254,0.0,0.0,-4.4638,-4.4101,-4.3579,-4.3169,-4.3121,-4.2963,0.0,-4.2489,-4.2489,-4.2489,-4.2489,-4.2608,-4.3055,-4.3347,0.0,0.0,0.0,-4.611,-4.676,-4.7588,0.0,0.0,0.0,-4.8606,0.0,0.0,0.0,0.0,-4.89,-4.8697,0.0,0.0,0.0,0.0,0.0,0.0,0.0,0.0,0.0,0.0,0.0,0.0,0.0,0.0,0.0,0.0,-3.7644,-3.8202,-3.8202,-3.8202,-3.8202,-3.8202,-3.8202,-3.8202,-3.8202,-3.8202,-3.8277,-3.8412,-3.8797,-3.9364,-3.9975,0.0,0.0,0.0,0.0,-4.0867,-4.0867,-4.0867,-4.1169,-4.1715,-4.1247,-4.1278,-4.1825,-4.1825,-4.1825,-4.1873,-4.26,-4.3263,-4.3895,-4.4559,-4.5223,-4.5807,-4.5807,-4.5807,-4.5807,-4.5807,-4.5807,0.0,0.0,0.0,0.0,-4.5807,-4.5807,-4.5807,-4.5807,-4.5807,-4.5807,-4.5807,-4.5807,-4.5807,-4.5807,-4.5807,-4.5807,-4.5807,-4.5807,-4.5807,-4.5807,-4.5807,-4.5807,-4.5807,-4.5807,-4.5807,-4.5807,-4.478,-4.3927,-4.3816,-4.3816,0.0,-4.3737,-4.3722,-4.3722,-4.3722,0.0,0.0,-4.3791,-4.4391,-4.4673,-4.4519,-4.5881,-4.6879,-4.734,-4.8936,-4.9154,-4.7698,-4.9137,-4.9521,-4.8702,-4.9118,-4.9282,-4.9282,-4.8606,-4.8855,0.0,0.0,0.0,0.0,0.0,0.0,0.0,0.0,0.0,0.0,0.0,0.0,0.0,0.0,0.0,-3.7014,-3.7644,-3.8202,-3.8202,-3.8202,-3.8202,-3.8202,-3.8202,-3.8202,-3.8202,-3.8202,-3.856,-3.9463,-3.9292,-3.9523,-4.0578,-4.0646,0.0,-4.0799,-4.1189,-4.1456,-4.1456,-4.1456,-4.1822,-4.2473,0.0,0.0,-4.3263,-4.3295,-4.3311,-4.3342,-4.4022,-4.4401,-4.4575,-4.5302,-4.5681,-4.5807,-4.5807,-4.5807,-4.5807,-4.5807,-4.5807,-4.5807,-4.5807,-4.5807,-4.5807,-4.5807,-4.5807,-4.5807,-4.5807,-4.5807,0.0,-4.5807,-4.5807,-4.5807,-4.5807,-4.5807,-4.5807,-4.5807,-4.5807,-4.5807,-4.5807,-4.5807,-4.5807,-4.5807,-4.5807,-4.5807,-4.5807,-4.5586,-4.5207,-4.4606,-4.4527,-4.4322,-4.3753,-4.369,-4.369,-4.3722,-4.3722,-4.3913,-4.4474,-4.4657,-4.5212,-4.6352,-4.7348,-4.7998,-4.8405,-4.8379,-4.8225,-4.7915,-4.8635,-4.8872,-4.8702,-4.8765,-4.8827,-4.881,-4.8793,-4.9023,0.0,0.0,0.0,0.0,0.0,0.0,0.0,0.0,0.0,0.0,0.0,-3.6281,0.0,0.0,-3.7567,-3.7567,-3.7886,-3.8202,-3.8202,-3.8202,-3.8202,-3.8202,-3.8202,-3.8202,-3.8202,-3.8501,-3.887,-3.9421,-3.9793,-4.0231,-4.0799,-4.1055,-4.1362,-4.1721,-4.2007,-4.2299,-4.2663,-4.2663,-4.2837,-4.3184,-4.32,-4.3374,-4.3706,-4.3722,-4.3722,-4.3737,-4.4069,-4.4401,-4.4764,-4.5507,-4.5807,-4.5807,-4.5807,-4.5807,-4.5807,-4.5807,-4.5807,-4.5807,-4.5807,-4.5807,-4.5807,-4.5807,-4.5807,-4.5807,-4.5807,-4.5807,-4.5807,-4.5807,-4.5807,-4.5807,-4.5807,-4.5807,-4.5807,-4.5807,-4.5807,-4.5807,-4.5807,-4.5807,-4.5807,-4.5807,-4.5807,-4.5807,-4.5807,-4.5807,-4.5681,-4.5317,-4.5254,-4.5128,-4.4796,-4.4749,-4.4749,-4.4764,-4.4764,-4.489,-4.5208,-4.5277,-4.5937,-4.7434,-4.7734,-4.8096,-4.8433,-4.8639,-4.8467,-4.8001,-4.8467,-4.8576,-4.8356,-4.8356,-4.8467,-4.8702,-4.8748,-4.8872,0.0,0.0,0.0,0.0,0.0,0.0,0.0,0.0,-3.5019,-3.5467,-3.5855,-3.6346,-3.7014,-3.7169,-3.7414,-3.8127,-3.8202,-3.8202,-3.8202,-3.8318,-3.8391,-3.8391,-3.8275,-3.8202,-3.8202,-3.8723,-3.9149,-3.9268,-4.0344,-4.1047,-4.1186,-4.1731,-4.2268,-4.2868,-4.2884,-4.3153,-4.3722,-4.3722,-4.3785,-4.388,-4.3895,-4.399,-4.4132,-4.4132,-4.4132,-4.4132,-4.4132,-4.4433,-4.497,-4.5555,-4.5807,-4.5807,-4.5807,-4.5807,-4.5807,-4.5807,-4.5807,-4.5807,-4.5807,-4.5807,-4.5807,-4.5807,-4.5807,-4.5807,-4.5807,-4.5807,-4.5807,-4.5807,-4.5807,-4.5807,-4.5807,-4.5807,-4.5807,-4.5807,-4.5807,-4.5807,-4.5807,-4.5807,-4.5807,-4.5807,-4.5807,-4.5807,-4.5807,-4.5807,-4.5807,-4.5807,-4.5807,-4.5807,-4.5807,-4.5807,-4.5807,-4.5807,-4.5807,-4.5807,-4.5807,-4.5807,-4.6388,-4.7655,-4.7523,-4.7556,-4.8048,-4.8668,-4.8685,-4.8001,-4.8467,-4.853,-4.8115,-4.8115,-4.8356,-4.8702,-4.8702,-4.8827,-3.5197,-3.5345,-3.4551,-3.4551,-3.4397,-3.4314,0.0,0.0,-3.6452,-3.5695,-3.683,-3.7962,-3.8037,-3.8037,-3.8127,-3.8202,-3.8202,-3.8202,-3.8202,-3.871,-3.9088,-3.9088,-3.8565,-3.8202,-3.8202,-3.8723,-3.9327,-3.9877,-4.1,-4.193,-4.2565,-4.316,-4.3485,-4.3564,-4.3595,-4.3643,-4.3722,-4.3722,-4.4022,-4.4591,-4.4606,-4.4938,-4.5586,-4.5586,-4.5586,-4.5586,-4.5586,-4.5618,-4.5697,-4.5776,-4.5807,-4.5807,-4.5807,-4.5807,-4.5807,-4.5807,-4.5807,-4.5807,-4.5807,-4.5807,-4.5807,-4.5807,-4.5807,-4.5807,-4.5807,-4.5807,-4.5807,-4.5807,-4.5807,-4.5807,-4.5807,-4.5807,-4.5807,-4.5807,-4.5807,-4.5807,-4.5807,-4.5807,-4.5807,-4.5807,-4.5807,-4.5807,-4.5807,-4.5807,-4.5807,-4.5807,-4.5807,-4.5807,-4.5807,-4.5807,-4.5807,-4.5807,-4.5807,-4.5807,-4.5807,-4.5807,-4.5992,-4.6496,-4.6496,-4.6775,-4.7471,-4.7605,-4.7754,-4.8001,-4.8467,-4.8639,-4.8656,-4.8656,-4.8656,-4.8702,-4.8702,-4.9178,-3.5265,-3.5251,-3.4564,-3.4564,-3.4063,-3.3894,-3.4855,-3.5642,-3.6188,-3.636,-3.7323,-3.8037,-3.7567,-3.8203,-3.8783,0.0,-3.9088,-3.9305,-3.9305,-3.9552,-3.9726,-3.9726,-3.9479,-3.9459,-3.9841,-4.0738,-4.1443,-4.1629,-4.245,-4.3028,-4.3341,-4.3567,-4.388,-4.4275,-4.429,-4.4512,-4.4938,-4.4938,-4.508,-4.5349,-4.5349,-4.5507,-4.5807,-4.5807,-4.5807,-4.5807,-4.5807,-4.5807,-4.5807,-4.5807,-4.5807,-4.5807,-4.5807,-4.5807,-4.5807,-4.5807,-4.5807,-4.5807,-4.5807,-4.5807,-4.5807,-4.5807,-4.5807,-4.5807,-4.5807,-4.5807,-4.5807,-4.5807,-4.5807,-4.5807,-4.5807,-4.5807,-4.5807,-4.5807,-4.5807,-4.5807,-4.5807,-4.5807,-4.5807,-4.5807,-4.5807,-4.5807,-4.5807,-4.5807,-4.5807,-4.5807,-4.5807,-4.5807,-4.5807,-4.5807,-4.5807,-4.5807,-4.5807,-4.5807,-4.5807,-4.5807,-4.5864,-4.5992,-4.6159,-4.6582,-4.7082,-4.7286,-4.7555,-4.8001,-4.8179,-4.8292,-4.8292,-4.8593,-4.8702,-4.8702,-4.8995,-4.9462,-3.5278,-3.5006,-3.4397,-3.4397,-3.3907,-3.381,-3.4992,-3.5467,-3.5775,-3.6439,-3.7374,-3.7992,-3.7593,-3.8601,-3.945,-3.945,-3.9813,-4.0104,-4.0104,-4.0249,-4.0379,-4.0379,-4.0683,-4.118,-4.1816,-4.2299,-4.2602,-4.2655,-4.3481,-4.3999,-4.3977,-4.422,-4.4512,-4.5001,-4.5017,-4.527,-4.5807,-4.5807,-4.5807,-4.5807,-4.5807,-4.5807,-4.5807,-4.5807,-4.5807,-4.5807,-4.5807,-4.5807,-4.5807,-4.5807,-4.5807,-4.5807,-4.5807,-4.5807,-4.5807,-4.5807,-4.5807,-4.5807,-4.5807,-4.5807,-4.5807,-4.5807,-4.5807,-4.5807,-4.5807,-4.5807,-4.5807,-4.5807,-4.5807,-4.5807,-4.5807,-4.5807,-4.5807,-4.5807,-4.5807,-4.5807,-4.5807,-4.5807,-4.5807,-4.5807,-4.5807,-4.5807,-4.5807,-4.5807,-4.5807,-4.5807,-4.5807,-4.5807,-4.5807,-4.5807,-4.5807,-4.5807,-4.5807,-4.5807,-4.5807,-4.5807,-4.5807,-4.5807,-4.6064,-4.6317,-4.6738,-4.7066,-4.7488,-4.8049,-4.8001,-4.8115,-4.842,-4.8593,-4.8765,-4.8872,-4.9342,-4.9756,-3.5775,0.0,-3.4397,-3.4397,-3.4397,-3.4397,-3.4397,-3.5006,-3.5615,-3.5615,-3.683,-3.8153,-3.9006,-3.9668,-4.0075,-4.0075,-4.0089,-4.0104,-4.0104,-4.0655,-4.1062,-4.1062,-4.2151,-4.316,0.0,-4.2667,-4.1942,-4.2004,-4.3642,-4.4667,-4.4794,-4.5405,-4.576,-4.5776,-4.5776,-4.5792,-4.5807,-4.5807,-4.5807,-4.5807,-4.5807,-4.5807,-4.5807,-4.5807,-4.5807,-4.5807,-4.5807,-4.5807,-4.5807,-4.5807,-4.5807,-4.5807,-4.5807,-4.5807,-4.5807,-4.5807,-4.5807,-4.5807,-4.5807,-4.5807,-4.5807,-4.5807,-4.5807,-4.5807,-4.5807,-4.5807,-4.5807,-4.5807,-4.5807,-4.5807,-4.5807,-4.5807,-4.5807,-4.5807,-4.5807,-4.5807,-4.5807,-4.5807,-4.5807,-4.5807,-4.5807,-4.5807,-4.5807,-4.5807,-4.5807,-4.5807,-4.5807,-4.5807,-4.5807,-4.5807,-4.5807,-4.5807,-4.5807,-4.5807,-4.5807,-4.5807,-4.5807,-4.5807,-4.5807,-4.5992,-4.6285,-4.6722,-4.7337,-4.8194,-4.8049,-4.8483,-4.9342,-4.8934,-4.8934,-4.9402,-4.9873,-5.0119,0.0,0.0,-3.4397,-3.4397,-3.3992,-3.3654,-3.423,-3.462,-3.4878,-3.5249,-3.6716,-3.7896,-3.7977,-3.9491,-4.0757,-4.0757,-4.1134,-4.1424,-4.1424,-4.1613,-4.1758,-4.1758,-4.2475,0.0,0.0,0.0,0.0,-4.4518,-4.5065,-4.5466,-4.5468,-4.5646,-4.5807,-4.5807,-4.5807,-4.5807,-4.5807,-4.5807,-4.5807,-4.5807,-4.5807,-4.5807,-4.5807,-4.5807,-4.5807,-4.5807,-4.5807,-4.5807,-4.5807,-4.5807,-4.5807,-4.5807,-4.5807,-4.5807,-4.5807,-4.5807,-4.5807,-4.5807,-4.5807,-4.5807,-4.5807,-4.5807,-4.5807,-4.5807,-4.5807,-4.5807,-4.5807,-4.5807,-4.5807,-4.5807,-4.5807,-4.5807,-4.5807,-4.5807,-4.5807,-4.5807,-4.5807,-4.5807,-4.5807,-4.5807,-4.5807,-4.5807,-4.5807,-4.5807,-4.5807,-4.5807,-4.5807,-4.5807,-4.5807,-4.5807,-4.5807,-4.5807,-4.5807,-4.5807,-4.5807,-4.5807,-4.5807,-4.5807,-4.5807,-4.592,-4.6301,-4.6668,-4.715,-4.7671,-4.8211,-4.8656,-4.8934,-4.9402,-4.9698,-4.9873,-5.038,-5.0637,0.0,-3.4524,-3.3907,-3.3907,-3.3484,-3.3303,-3.408,-3.4203,-3.4529,-3.5732,-3.7096,-3.8213,-3.8616,-4.0228,-4.1453,-4.1453,-4.1816,-4.2092,-4.2092,-4.2092,-4.2092,-4.2092,-4.2607,-4.3061,0.0,0.0,0.0,-4.5395,-4.5646,-4.5807,-4.5807,-4.5807,-4.5807,-4.5807,-4.5807,-4.5807,-4.5807,-4.5807,-4.5807,-4.5807,-4.5807,-4.5807,-4.5807,-4.5807,-4.5807,-4.5807,-4.5807,-4.5807,-4.5807,-4.5807,-4.595,-4.6171,-4.6171,-4.6329,-4.6566,-4.6566,-4.6566,-4.6487,-4.5981,-4.5807,-4.5807,-4.5807,-4.5807,-4.5807,-4.5807,-4.5807,-4.5807,-4.5807,-4.5807,-4.5807,-4.5807,-4.5807,-4.5807,-4.5807,-4.5807,-4.5807,-4.5807,-4.5807,-4.5807,-4.5807,-4.5807,-4.5807,-4.5807,-4.5807,-4.5807,-4.5807,-4.5807,-4.5807,-4.5807,-4.5807,-4.5807,-4.5807,-4.5807,-4.5807,-4.5807,-4.5807,-4.5807,-4.5807,-4.5807,-4.5864,-4.6104,-4.6775,-4.7304,-4.7737,-4.8543,-4.9135,-4.9496,-4.989,-5.0176,-5.0363,-5.0747,-5.0891,-3.4551,-3.3738,-3.3081,-3.3081,-3.3106,-3.3257,-3.3771,-3.3922,-3.4601,-3.6941,-3.7921,-3.893,0.0,0.0,-4.2092,-4.2092,-4.2092,-4.2092,-4.2092,-4.2092,-4.2092,0.0,0.0,0.0,0.0,0.0,0.0,-4.4812,0.0,-4.5807,-4.5807,-4.5807,-4.5807,-4.5807,-4.5807,-4.5807,-4.5807,-4.5839,-4.5871,-4.5871,-4.5902,-4.5918,-4.5918,-4.5918,-4.5918,-4.5918,-4.5918,-4.5918,-4.5918,-4.5918,-4.6281,-4.685,-4.685,-4.7277,-4.7893,-4.7893,-4.7893,-4.7703,-4.6376,-4.5918,-4.5918,-4.5918,-4.5918,-4.5918,-4.5918,-4.5918,-4.5918,-4.5918,-4.5918,-4.5918,-4.5871,-4.5871,-4.5855,-4.5823,-4.5807,-4.5807,-4.5807,-4.5807,-4.5807,-4.5807,-4.5807,-4.5807,-4.5807,-4.5807,-4.5807,-4.5807,-4.5807,-4.5807,-4.5807,-4.5807,-4.5807,-4.5807,-4.5807,-4.5807,-4.5807,-4.5807,-4.5807,-4.5807,-4.5807,-4.5807,-4.5807,-4.6949,-4.7819,-4.8236,-4.9067,-4.9907,-5.0891,-5.038,-5.0436,-5.0891,-5.0891,-5.0891,-3.3654,-3.324,-3.3081,-3.3081,-3.3382,-3.3721,-3.3872,-3.4223,-3.5009,-3.6695,-3.7786,-3.8882,0.0,0.0,0.0,-4.2092,-4.2092,0.0,-4.2092,-4.2092,0.0,-4.2688,0.0,-4.3912,-4.451,-4.5157,0.0,0.0,-4.5719,-4.5807,-4.5807,-4.5807,-4.5807,-4.5807,-4.5807,-4.5807,-4.5807,-4.6313,-4.655,-4.655,-4.7103,-4.7372,-4.7372,-4.7372,-4.7372,-4.7372,-4.7372,-4.7372,-4.7372,-4.7372,-4.7466,-4.7624,-4.7624,-4.7735,-4.7893,-4.7893,-4.7893,-4.7846,-4.7498,-4.7372,-4.7372,-4.7372,-4.7372,-4.7372,-4.7372,-4.7372,-4.7372,-4.7372,-4.7372,-4.7245,-4.6692,-4.655,-4.6424,-4.5934,-4.5807,-4.5807,-4.5807,-4.5807,-4.5807,-4.5807,-4.5807,-4.5807,-4.5807,-4.5807,-4.5807,-4.5807,-4.5807,-4.5807,-4.5807,-4.5807,-4.5807,-4.5807,-4.5807,-4.5807,-4.5807,-4.5807,-4.5807,-4.5807,-4.5807,-4.5807,-4.5807,-4.6949,-4.7655,-4.777,-4.9171,-5.0062,-5.0307,-5.0564,-5.0764,-5.0891,-5.0891,-5.0891,-3.3743,-3.3608,-3.3796,-3.3796,-3.4035,-3.4413,-3.5086,-3.5456,-3.6289,-3.8148,-3.897,-3.977,-4.1,-4.1717,0.0,0.0,0.0,0.0,-4.2092,-4.2092,-4.231,0.0,-4.3536,0.0,-4.4737,-4.5395,-4.5807,0.0,-4.5807,-4.5807,-4.5807,-4.5807,-4.5807,-4.5807,-4.6092,-4.6392,-4.6724,-4.7087,-4.7277,-4.7293,-4.7703,-4.7893,-4.7893,-4.7893,-4.7893,-4.7893,0.0,-4.7893,-4.7893,-4.7893,-4.8067,-4.8335,-4.8335,-4.8525,-4.8794,-4.8794,-4.8794,-4.8794,-4.8794,-4.8794,-4.8683,-4.8083,-4.7893,-4.7893,-4.7893,-4.7893,-4.7893,-4.7893,-4.7893,-4.7798,-4.7387,-4.7277,-4.7182,-4.6819,-4.6724,-4.6724,-4.6724,-4.6724,-4.6724,-4.6724,-4.6724,-4.6724,-4.6724,-4.6724,-4.6724,-4.6724,-4.6724,-4.6724,-4.6724,-4.6187,-4.5807,-4.5807,-4.5807,-4.5807,-4.5807,-4.5807,-4.5807,-4.5807,-4.5807,-4.5807,-4.5807,-4.7137,-4.7884,-4.7884,-4.9605,-5.0436,-5.0436,-5.0747,-5.0891,-5.0891,-5.0891,-5.0891,-3.43,-3.4361,-3.4726,-3.4726,-3.4776,-3.5223,-3.6662,-3.7011,-3.7821,-4.0148,-4.0603,-4.0873,-4.1912,-4.2092,-4.2092,-4.2092,0.0,-4.2092,-4.2092,-4.2175,-4.2474,-4.3076,-4.3693,-4.422,-4.4902,-4.5484,-4.5807,-4.5807,-4.5807,-4.5807,-4.5807,-4.5807,-4.5855,-4.5934,-4.6597,-4.7245,-4.7893,-4.7988,-4.8019,-4.8019,-4.813,-4.8177,-4.8177,-4.8177,-4.8177,-4.8177,0.0,0.0,-4.8177,-4.8177,-4.8509,-4.9031,-4.9031,-4.9394,-4.9916,-4.9916,-4.9916,-4.9916,-4.9916,-4.9916,-4.9726,-4.8541,-4.8177,-4.8177,-4.8177,-4.8177,-4.8177,-4.8177,-4.8177,-4.8146,-4.8051,-4.8019,-4.8004,-4.8044,-4.7969,-4.7893,-4.8029,-4.7969,-4.7893,-4.7893,-4.7893,-4.7893,-4.7893,-4.7893,-4.7893,-4.7893,-4.7893,-4.7893,-4.7893,-4.6834,-4.6044,-4.595,-4.5934,-4.5918,-4.5823,-4.5807,-4.5807,-4.5807,-4.5807,-4.5807,-4.5936,-4.7357,-4.8236,-4.8425,-4.9913,-5.0764,-5.0891,-5.0891,-5.0891,-5.0891,-5.0891,-5.0891,-3.46,-3.465,-3.4726,-3.4726,-3.5064,-3.5691,-3.6753,-3.7325,0.0,-4.0218,-4.0603,-4.0873,-4.1912,-4.2092,-4.2092,-4.2092,-4.2092,-4.2092,-4.2092,-4.2541,-4.3076,0.0,-4.4297,-4.4902,-4.5557,-4.5735,0.0,0.0,0.0,-4.5807,-4.5807,-4.5807,-4.606,-4.6613,-4.7324,-4.7767,-4.7893,-4.8446,-4.8715,-4.8715,-4.9299,-4.9568,-4.9568,-4.9568,-4.9568,-4.9568,0.0,0.0,-4.9568,-4.9568,-4.9631,-4.9742,-4.9742,-4.9821,-4.9916,-4.9916,-4.9916,-4.9916,-4.9916,-4.9916,-4.9884,-4.9647,-4.9568,-4.9568,-4.9568,-4.9568,-4.9568,-4.9568,-4.9568,-4.9442,-4.8857,-4.8715,-4.871,-4.882,-4.8355,-4.8104,-4.8675,-4.8355,-4.7893,-4.7893,-4.7893,-4.7893,-4.7893,-4.7893,-4.7893,-4.7893,-4.7893,-4.7893,-4.7893,-4.7688,-4.7308,-4.6692,-4.6629,-4.6408,-4.5855,-4.5807,-4.5807,-4.5807,-4.5807,-4.6064,-4.662,-4.7069,-4.79,-4.9188,-4.9605,-5.0176,-5.0891,-5.0891,-5.0891,-5.0891,-5.0891,-5.0891,-3.5228,-3.5366,-3.5579,-3.5579,-3.578,-3.6316,-3.7828,0.0,0.0,-4.0986,-4.1353,-4.1535,-4.2009,-4.2092,0.0,-4.2092,-4.2092,-4.2092,-4.2092,-4.2325,-4.285,-4.3771,-4.4143,-4.4692,0.0,0.0,0.0,0.0,0.0,0.0,-4.6329,-4.6692,-4.7198,-4.7861,-4.8225,-4.8588,-4.8952,-4.9268,-4.9426,-4.9426,-4.9773,-4.9916,-4.9916,-4.9916,-4.9916,-4.9916,-4.9916,0.0,-4.9916,-4.9916,-4.9916,-4.9916,-4.9916,-4.9916,-4.9916,-4.9916,-4.9916,-4.9916,-4.9916,-4.9916,-4.9916,-4.9916,-4.9916,-4.9916,-4.9916,-4.9916,-4.9916,-4.9916,-5.0214,-5.0445,-5.0109,-5.036,-5.0603,-5.068,-5.0399,-5.0197,-5.0599,-5.0399,-5.014,-5.014,-5.014,-5.014,-5.014,-4.9802,-4.9668,-5.0066,-4.9802,-4.9533,-4.9533,-4.9533,-4.8982,-4.7557,-4.8087,-4.8087,-4.6988,-4.7203,-4.7276,-4.6898,-4.6898,-4.7059,-4.7324,-4.7879,-4.8477,-4.9205,-4.9797,-5.0345,-5.0729,-5.0819,-5.1101,-5.147,-5.147,-5.1698,-3.583,-3.6031,-3.6358,-3.6358,-3.6358,-3.6896,-3.8751,-3.921,0.0,-4.1731,-4.2092,-4.2092,-4.2092,-4.2092,-4.2092,0.0,-4.2092,-4.2092,-4.2092,-4.2242,-4.2703,0.0,-4.3989,0.0,-4.5662,0.0,0.0,0.0,0.0,0.0,-4.704,-4.7719,-4.8351,-4.8873,-4.9031,-4.9363,-4.9916,-4.9916,-4.9916,-4.9916,-4.9916,-4.9916,-4.9916,-4.9916,-4.9916,-4.9916,-4.9916,0.0,0.0,-4.9916,-4.9916,-4.9916,-4.9916,-4.9916,-4.9916,-4.9916,-4.9916,-4.9916,-4.9916,-4.9916,-4.9916,-4.9916,-4.9916,-4.9916,-4.9916,-4.9916,-4.9931,-5.0152,-5.0586,-5.1118,-5.1311,-5.1793,-5.2191,-5.2191,-5.2333,-5.242,-5.2262,-5.2191,-5.2191,-5.2191,-5.2191,-5.2191,-5.2191,-5.172,-5.1516,-5.212,-5.172,-5.1311,-5.1311,-5.1475,-5.0888,-4.9005,-4.9616,-4.9649,-4.8445,-4.8877,-4.9021,-4.8429,-4.8355,-4.8449,-4.8613,-4.9076,-4.9469,-4.9803,-5.0472,-5.0906,-5.1092,-5.1237,-5.1625,-5.226,-5.226,-5.2593,-3.6295,-3.632,-3.6358,-3.6358,-3.6358,-3.6896,-3.8751,0.0,-3.9752,-4.1731,-4.2092,-4.2092,-4.2092,-4.2092,-4.2092,-4.2092,-4.2092,-4.2092,-4.2092,-4.2541,-4.314,-4.3849,0.0,0.0,-4.5735,0.0,0.0,0.0,0.0,0.0,0.0,-4.843,-4.8825,-4.8889,-4.9489,-4.9852,-4.9916,-4.9916,-4.9916,-4.9916,-4.9916,-4.9916,-4.9916,-4.9916,-4.9916,-4.9916,0.0,0.0,0.0,-4.9916,-4.9916,-4.9916,-4.9916,-4.9916,-4.9916,-4.9916,-4.9916,-4.9916,-4.9916,-4.9916,-4.9916,-4.9916,-4.9916,-4.9916,-4.9916,-4.9916,-5.0073,-5.0816,-5.1043,-5.1236,-5.1921,-5.212,-5.2191,-5.2191,-5.2786,-5.3094,-5.235,-5.2191,-5.2191,-5.2191,-5.2191,-5.2191,-5.2191,-5.212,-5.212,-5.2191,-5.212,-5.212,-5.212,-5.2733,-5.2822,-5.1867,-5.07,-4.9975,-4.9934,-4.9937,-4.9937,-4.9868,-4.9885,-5.0192,-5.0885,-5.0326,-5.0705,-5.2131,-5.1638,-5.1804,-5.27,-5.27,-5.2866,-5.3067,-5.3067,-5.312,-3.6358,-3.6358,-3.6358,-3.6358,-3.6815,-3.7625,-3.8944,0.0,-4.0432,-4.1829,-4.2092,-4.2092,-4.2092,-4.2092,-4.2092,-4.2092,-4.2092,0.0,-4.2092,-4.2325,-4.2688,-4.3299,-4.3912,0.0,0.0,0.0,0.0,0.0,0.0,0.0,0.0,-4.9363,-4.9505,-4.9505,-4.9773,-4.9916,-4.9916,-4.9916,-4.9916,-4.9916,-4.9916,-4.9916,-4.9916,-4.9916,-4.9916,-4.9916,0.0,0.0,0.0,-4.9916,-4.9916,-4.9916,-4.9916,-4.9916,-4.9916,-4.9916,-4.9916,-4.9916,-4.9916,-4.9916,-4.9916,-4.9916,-4.9916,-4.9916,-4.9916,-5.0214,-5.0663,-5.1043,-5.1753,-5.2524,-5.2872,-5.3213,-5.3566,-5.3566,-5.3798,-5.3946,-5.3632,-5.3566,-5.3566,-5.3566,-5.3566,-5.3566,-5.3566,-5.3213,-5.3078,-5.3499,-5.3213,-5.2941,-5.2941,-5.323,-5.3315,-5.2941,-5.2808,-5.2353,-5.1416,-5.1831,-5.1899,-5.1383,-5.1383,-5.1477,-5.1809,-5.1513,-5.1654,-5.2296,-5.2261,-5.2364,-5.2753,-5.2984,-5.3304,-5.376,-5.38,-5.4045,-3.637,-3.6275,-3.6275,-3.6275,-3.6989,-3.7978,0.0,0.0,-4.0873,-4.1912,-4.2092,-4.2092,-4.2092,-4.2092,-4.2092,-4.2092,-4.2092,-4.2175,-4.2325,-4.2242,-4.2392,0.0,0.0,0.0,0.0,0.0,0.0,0.0,0.0,0.0,0.0,-4.9916,-4.9916,-4.9916,-4.9916,-4.9916,-4.9916,-4.9916,-4.9916,-4.9916,-4.9916,-4.9916,-4.9916,-4.9916,-4.9916,-4.9916,0.0,0.0,0.0,-4.9916,-4.9916,-4.9916,-4.9916,-4.9916,-4.9916,-4.9916,-4.9916,-4.9916,-4.9916,-4.9916,-4.9916,-4.9916,-5.0073,-5.0214,-5.0214,-5.0663,-5.1194,-5.168,-5.275,-5.3749,-5.3749,-5.4093,-5.4512,-5.4512,-5.4512,-5.4512,-5.4512,-5.4512,-5.4512,-5.4512,-5.4512,-5.4512,-5.4512,-5.4093,-5.3881,-5.4431,-5.4093,-5.3749,-5.3749,-5.3749,-5.3749,-5.3749,-5.4158,-5.4076,-5.2992,-5.3365,-5.3499,-5.2924,-5.2838,-5.2893,-5.2867,-5.285,-5.2887,-5.2908,-5.3091,-5.3271,-5.3349,-5.3568,-5.3964,-5.443,-5.4607,-5.487,-3.637,-3.6015,-3.6015,-3.6015,-3.6709,-3.7678,0.0,-3.9899,-4.0873,-4.1912,-4.2092,-4.2092,-4.2092,-4.2092,-4.2092,-4.2092,-4.2092,-4.2325,-4.2915,-4.2474,-4.2555,0.0,0.0,0.0,0.0,0.0,0.0,0.0,0.0,0.0,0.0,-4.9916,-4.9916,-4.9916,-4.9916,-4.9916,-4.9916,-4.9916,-4.9916,-4.9916,-4.9916,-4.9916,-4.9916,-4.9916,-4.9916,0.0,0.0,0.0,0.0,-4.9916,-4.9916,-4.9916,-4.9916,-4.9916,-4.9916,-4.9916,-4.9916,-4.9916,-4.9916,-4.9916,-4.9916,-4.9916,-5.0448,-5.1118,-5.1118,-5.1118,-5.1401,-5.2957,-5.3881,-5.4512,-5.4512,-5.4512,-5.4512,-5.4512,-5.4512,-5.4512,-5.4512,-5.4512,-5.4512,-5.4512,-5.4512,-5.4512,-5.4512,-5.4512,-5.4512,-5.4512,-5.4512,-5.4512,-5.4512,-5.4512,-5.4512,-5.4512,-5.4512,-5.4512,-5.4512,-5.4512,-5.4494,-5.4512,-5.4512,-5.4512,-5.4494,-5.4494,-5.4494,-5.4494,-5.4477,-5.4557,-5.4762,-5.4913,-5.5079,-5.5182,-5.5413,-5.5354,-3.8315,-3.8238,-3.8238,-3.8238,-3.893,-3.9711,-4.0073,-4.0887,-4.1717,-4.2009,-4.2092,-4.2092,-4.2092,-4.2092,-4.2092,-4.2092,-4.2474,-4.2622,0.0,0.0,0.0,-4.3299,0.0,0.0,0.0,0.0,0.0,0.0,0.0,0.0,0.0,-4.9916,-4.9916,-4.9916,-4.9916,-4.9916,-4.9916,-4.9916,-4.9916,-4.9916,-4.9916,-4.9916,-4.9916,-4.9916,0.0,0.0,0.0,0.0,0.0,-4.9916,-4.9916,-4.9916,-4.9916,-4.9916,-4.9916,-4.9916,-4.9916,-4.9916,-5.0214,-5.0136,-5.0073,-5.0892,-5.1118,-5.1327,-5.2329,-5.268,-5.2889,-5.3864,-5.4303,-5.4512,-5.4512,-5.4512,-5.4512,-5.4512,-5.4512,-5.4512,-5.4512,-5.4512,-5.4512,-5.4512,-5.4512,-5.4512,-5.4512,-5.4512,-5.4512,-5.4512,-5.4512,-5.4512,-5.4512,-5.4512,-5.4512,-5.4512,-5.4512,-5.4512,-5.4512,-5.4512,-5.4512,-5.4512,-5.4512,-5.4512,-5.4512,-5.4512,-5.4512,-5.4512,-5.4745,-5.4869,-5.4948,-5.5191,-5.5294,-5.5199,-5.5174,-5.507,-3.9285,-3.9006,-3.9006,-3.9006,-3.9798,0.0,-4.0589,-4.1353,-4.2092,-4.2092,-4.2092,-4.2092,-4.2092,-4.2092,-4.2092,-4.2092,-4.2392,-4.2688,0.0,0.0,0.0,0.0,0.0,0.0,0.0,0.0,0.0,0.0,0.0,0.0,0.0,0.0,-4.9916,-4.9916,-4.9916,-4.9916,-4.9916,-4.9916,-4.9916,-4.9916,-4.9916,-4.9916,-4.9916,-4.9916,0.0,0.0,0.0,0.0,0.0,-4.9916,-4.9916,-4.9916,-4.9916,-4.9916,-4.9916,-4.9916,-5.0073,-5.037,-5.0723,-5.0859,-5.1011,-5.1753,-5.1971,-5.2186,-5.3449,-5.3815,-5.3881,-5.4367,-5.4512,-5.4512,-5.4512,-5.4512,-5.4512,-5.4512,-5.4512,-5.4512,-5.4512,-5.4512,-5.4512,-5.4512,-5.4512,-5.4512,-5.4512,-5.4512,-5.4512,-5.4512,-5.4512,-5.4512,-5.4512,-5.4512,-5.4512,-5.4512,-5.4512,-5.4512,-5.4512,-5.4512,-5.4512,-5.4512,-5.4512,-5.4512,-5.4592,-5.4512,-5.4575,-5.47,-5.4824,-5.4948,-5.4992,-5.5234,-5.5354,-5.5277,-5.5113,-5.4948,0.0,-3.8992,-3.8992,-3.8992,-3.9711,-4.0518,-4.0689,-4.1437,0.0,-4.2092,-4.2092,-4.2092,-4.2092,-4.2092,-4.2092,-4.2092,-4.2175,-4.2555,0.0,0.0,0.0,0.0,0.0,0.0,0.0,0.0,0.0,0.0,0.0,0.0,0.0,0.0,-4.9916,-4.9916,-4.9916,-4.9916,-4.9916,-4.9916,-4.9916,-4.9916,-4.9916,-4.9916,-4.9916,-4.9916,0.0,0.0,0.0,0.0,0.0,-4.9916,-4.9916,-4.9916,-4.9916,-4.9995,-4.9995,-4.9995,-5.0525,-5.1177,-5.1336,-5.1921,-5.2507,-5.2524,-5.3026,-5.36,-5.4303,-5.4512,-5.4512,-5.4512,-5.4512,-5.4512,-5.4512,-5.4512,-5.4512,-5.4512,-5.4512,-5.4512,-5.4512,-5.4512,-5.4512,-5.4512,-5.4512,-5.4512,-5.4512,-5.4512,-5.4512,-5.4512,-5.4512,-5.4512,-5.4512,-5.4512,-5.4512,-5.4512,-5.4512,-5.4512,-5.4512,-5.4512,-5.4512,-5.4512,-5.4512,-5.4575,-5.478,-5.4575,-5.47,-5.4992,-5.4886,-5.4904,-5.5053,-5.5139,-5.5336,-5.5448,-5.5131,-5.4992,-4.1465,0.0,-4.1353,-4.1353,-4.1535,-4.1717,0.0,-4.1912,-4.2092,-4.2092,-4.2092,-4.2092,-4.2092,-4.2092,-4.2092,-4.2092,-4.2474,-4.293,0.0,0.0,0.0,0.0,0.0,0.0,0.0,0.0,0.0,0.0,0.0,0.0,0.0,0.0,-4.9916,-4.9916,-4.9916,-4.9916,-4.9916,-4.9916,-4.9916,-4.9916,-4.9916,-4.9916,-4.9916,-4.9916,0.0,0.0,0.0,0.0,-4.9916,-4.9916,-5.0073,-5.037,-5.037,-5.0739,-5.1268,-5.1268,-5.1533,-5.1993,-5.235,-5.235,-5.235,-5.3009,-5.3798,-5.4512,-5.4655,-5.4637,-5.4512,-5.4512,-5.4512,-5.4512,-5.4512,-5.4512,-5.4512,-5.4512,-5.4512,-5.4512,-5.4512,-5.4512,-5.4512,-5.4512,-5.4512,-5.4512,-5.4512,-5.4512,-5.4512,-5.4512,-5.4512,-5.4512,-5.4512,-5.4512,-5.4512,-5.4512,-5.4512,-5.4512,-5.4512,-5.4512,-5.4512,-5.4512,-5.4512,-5.4512,-5.4575,-5.4655,-5.478,-5.4842,-5.4992,-5.5174,-5.5371,-5.5431,-5.5354,-5.5277,-5.5096,-5.4948,-4.2092,-4.2092,-4.2092,-4.2092,-4.2092,-4.2092,-4.2092,-4.2092,-4.2092,-4.2092,-4.2092,-4.2092,-4.2092,-4.2325,-4.2392,0.0,-4.285,0.0,0.0,0.0,0.0,0.0,0.0,0.0,0.0,0.0,0.0,0.0,0.0,0.0,0.0,0.0,-4.9916,-4.9916,-4.9916,-4.9916,-4.9916,-4.9916,-4.9916,-4.9916,-4.9916,-4.9916,-4.9916,-4.9916,0.0,0.0,0.0,0.0,-4.9916,-5.0073,-5.0432,-5.0935,-5.107,-5.1574,-5.2153,-5.2153,-5.242,-5.289,-5.3247,-5.3515,-5.363,-5.4072,-5.4523,-5.4886,-5.4886,-5.4824,-5.4745,-5.4745,-5.4745,-5.4745,-5.4745,-5.4745,-5.4683,-5.4637,-5.47,-5.4683,-5.4637,-5.47,-5.47,-5.4637,-5.47,-5.47,-5.4637,-5.47,-5.4745,-5.4745,-5.4745,-5.4745,-5.4745,-5.47,-5.4637,-5.4745,-5.4575,-5.4512,-5.4637,-5.4575,-5.4512,-5.4512,-5.4592,-5.4637,-5.4762,-5.4824,-5.4948,-5.4992,-5.5234,-5.5371,-5.5507,-5.5507,-5.5431,-5.5354,-5.5113,-5.493,-4.2092,-4.2092,-4.2092,-4.2092,-4.2092,-4.2092,-4.2092,-4.2092,-4.2092,-4.2092,-4.2092,-4.2092,-4.2242,-4.2541,0.0,0.0,0.0,0.0,0.0,0.0,0.0,0.0,0.0,0.0,0.0,0.0,0.0,0.0,0.0,0.0,0.0,0.0,0.0,-4.9916,-4.9916,-4.9916,-4.9916,-4.9916,-4.9916,-4.9916,-4.9916,-4.9916,-4.9916,-4.9916,0.0,0.0,0.0,0.0,-4.9995,-5.037,-5.0859,-5.1541,-5.1849,-5.2404,-5.2942,-5.2942,-5.3298,-5.3861,-5.4119,-5.4658,-5.5199,-5.5199,-5.5096,-5.5035,-5.5035,-5.5053,-5.5053,-5.5053,-5.5053,-5.4992,-5.4992,-5.4992,-5.4992,-5.4842,-5.4886,-5.4992,-5.4842,-5.4948,-5.4992,-5.4842,-5.4948,-5.493,-5.4842,-5.4948,-5.4992,-5.4992,-5.4992,-5.4992,-5.4992,-5.4886,-5.4886,-5.4992,-5.4745,-5.4637,-5.4842,-5.47,-5.4575,-5.4575,-5.4655,-5.4842,-5.4992,-5.4992,-5.5096,-5.5259,-5.5431,-5.5507,-5.5507,-5.5507,-5.5507,-5.5507,-5.5191,-5.4992,-4.2092,-4.2092,-4.2092,-4.2092,-4.2092,-4.2092,-4.2092,-4.2092,-4.2092,-4.2092,-4.2092,-4.2242,0.0,-4.2541,-4.2392,0.0,0.0,0.0,0.0,0.0,0.0,0.0,0.0,0.0,0.0,0.0,0.0,0.0,0.0,0.0,0.0,0.0,0.0,-4.9916,-4.9916,-4.9916,-4.9916,-4.9916,-4.9916,-4.9916,-4.9916,-4.9916,-4.9916,-4.9916,-4.9916,0.0,0.0,-5.0073,-5.0448,-5.0448,-5.122,-5.2295,-5.2274,-5.3043,-5.4205,-5.4042,-5.4316,-5.4772,-5.4834,-5.4913,-5.5035,-5.5035,-5.5096,-5.5199,-5.5199,-5.5294,-5.5448,-5.5448,-5.5191,-5.4992,-5.4992,-5.4992,-5.4992,-5.4992,-5.4992,-5.4992,-5.4992,-5.4992,-5.4992,-5.4992,-5.4992,-5.4992,-5.4992,-5.4992,-5.4992,-5.4992,-5.4992,-5.4992,-5.4992,-5.4992,-5.4992,-5.4992,-5.493,-5.493,-5.4992,-5.493,-5.4869,-5.478,-5.4637,-5.47,-5.4992,-5.4992,-5.5113,-5.5448,-5.5507,-5.5507,-5.5507,-5.5507,-5.5507,-5.5507,-5.5191,-5.4992,-4.2092,-4.2092,-4.2092,-4.2092,-4.2092,-4.2092,-4.2092,-4.2092,-4.2092,-4.2092,-4.2092,0.0,0.0,0.0,-4.3394,-4.4328,0.0,0.0,0.0,0.0,0.0,0.0,0.0,0.0,0.0,0.0,0.0,0.0,0.0,0.0,0.0,0.0,0.0,0.0,-4.9916,-4.9916,-4.9916,-4.9916,-4.9916,-4.9916,-4.9916,-4.9916,-4.9916,-4.9916,-4.9916,-4.9916,0.0,-5.0493,-5.0995,-5.1443,-5.2279,-5.3382,-5.3566,-5.4188,-5.5009,-5.4834,-5.4974,-5.5252,-5.5156,-5.5174,-5.5252,-5.5252,-5.5312,-5.5354,-5.5354,-5.5431,-5.5507,-5.5507,-5.5389,-5.5252,-5.5252,-5.5252,-5.5252,-5.5156,-5.5174,-5.5252,-5.5156,-5.5174,-5.5252,-5.5156,-5.5174,-5.5252,-5.5156,-5.5174,-5.5252,-5.5252,-5.5252,-5.5252,-5.5252,-5.5174,-5.5156,-5.5252,-5.5131,-5.5053,-5.5096,-5.5035,-5.4992,-5.4886,-5.4807,-5.4869,-5.5096,-5.5234,-5.5312,-5.5507,-5.5507,-5.5507,-5.5507,-5.5507,-5.5431,-5.5336,-5.5156,-5.5096,-4.2092,-4.2092,-4.2092,-4.2092,-4.2092,-4.2092,-4.2092,-4.2242,-4.2242,-4.2092,-4.2242,0.0,0.0,-4.3457,0.0,0.0,0.0,0.0,0.0,0.0,0.0,0.0,0.0,0.0,0.0,0.0,0.0,0.0,0.0,0.0,0.0,0.0,0.0,0.0,-4.9916,-4.9916,-4.9916,-4.9916,-4.9916,-4.9916,-4.9916,-4.9916,-4.9916,-4.9995,-5.0136,-5.0276,-5.0647,-5.1203,-5.1816,-5.242,-5.3315,-5.4264,-5.4586,-5.4974,-5.5431,-5.5336,-5.5354,-5.5507,-5.5336,-5.5354,-5.5507,-5.5507,-5.5507,-5.5507,-5.5507,-5.5507,-5.5507,-5.5507,-5.5507,-5.5507,-5.5507,-5.5507,-5.5448,-5.5277,-5.5371,-5.5448,-5.5277,-5.5413,-5.5431,-5.5277,-5.5413,-5.5448,-5.5277,-5.5431,-5.5507,-5.5507,-5.5507,-5.5507,-5.5507,-5.5354,-5.5354,-5.5507,-5.5252,-5.5174,-5.5277,-5.5156,-5.5035,-5.5035,-5.4992,-5.5035,-5.5182,-5.5354,-5.5431,-5.5507,-5.5507,-5.5507,-5.5507,-5.5507,-5.5431,-5.5199,-5.5199,-5.5096,-4.2092,-4.2092,-4.2092,-4.2092,-4.2092,-4.2092,-4.2092,-4.2541,-4.2769,-4.2257,-4.2541,0.0,0.0,-4.3457,0.0,0.0,0.0,0.0,0.0,0.0,0.0,0.0,0.0,0.0,0.0,0.0,0.0,0.0,0.0,0.0,0.0,0.0,0.0,0.0,0.0,-4.9916,-4.9916,-4.9916,-4.9916,-4.9916,-4.9916,-4.9916,-4.9916,-5.0292,-5.0707,-5.1245,-5.1631,-5.2333,-5.3163,-5.3247,-5.3795,-5.4648,-5.4557,-5.479,-5.5259,-5.5431,-5.5507,-5.5507,-5.5507,-5.5507,-5.5507,-5.5507,-5.5507,-5.5507,-5.5507,-5.5507,-5.5507,-5.5507,-5.5507,-5.5507,-5.5507,-5.5507,-5.5507,-5.5507,-5.5507,-5.5507,-5.5507,-5.5507,-5.5507,-5.5507,-5.5507,-5.5507,-5.5507,-5.5507,-5.5507,-5.5507,-5.5507,-5.5507,-5.5507,-5.5507,-5.5507,-5.5507,-5.5448,-5.5448,-5.5507,-5.5277,-5.5199,-5.5199,-5.5096,-5.5035,-5.5182,-5.5199,-5.5336,-5.5507,-5.5507,-5.5507,-5.5507,-5.5507,-5.5431,-5.5199,-5.5096,-5.4992,-4.2092,-4.2092,-4.2092,-4.2092,-4.2092,-4.2092,-4.2092,-4.2541,-4.285,-4.2242,-4.285,0.0,0.0,0.0,0.0,0.0,0.0,0.0,0.0,0.0,0.0,0.0,0.0,0.0,0.0,0.0,0.0,0.0,0.0,0.0,0.0,0.0,0.0,0.0,0.0,-4.9916,-4.9916,-4.9916,-4.9916,-4.9916,-4.9916,-4.9995,-5.0292,-5.0783,-5.1262,-5.1687,-5.2474,-5.3163,-5.3844,-5.4072,-5.4568,-5.5174,-5.5131,-5.5252,-5.5431,-5.5448,-5.5507,-5.5507,-5.5507,-5.5507,-5.5507,-5.5507,-5.5507,-5.5507,-5.5507,-5.5507,-5.5507,-5.5507,-5.5507,-5.5507,-5.5507,-5.5507,-5.5507,-5.5507,-5.5507,-5.5507,-5.5507,-5.5507,-5.5507,-5.5507,-5.5507,-5.5507,-5.5507,-5.5507,-5.5507,-5.5507,-5.5507,-5.5507,-5.5507,-5.5507,-5.5507,-5.5507,-5.5507,-5.5507,-5.5507,-5.5431,-5.5371,-5.5371,-5.5217,-5.5139,-5.5199,-5.5336,-5.5431,-5.5507,-5.5507,-5.5507,-5.5507,-5.5507,-5.5431,-5.5199,-5.5294,-5.5234,-4.2092,-4.2092,-4.2092,-4.2092,-4.2092,-4.2175,-4.2325,-4.285,-4.3155,-4.2784,-4.3155,-4.3771,-4.4143,0.0,0.0,0.0,0.0,0.0,0.0,0.0,0.0,0.0,0.0,0.0,0.0,0.0,0.0,0.0,0.0,0.0,0.0,0.0,0.0,0.0,0.0,0.0,-5.0338,-5.0136,-5.0354,-5.0751,-5.0631,-5.0631,-5.0783,-5.1426,-5.2032,-5.2667,-5.3382,-5.4072,-5.4534,-5.4834,-5.5174,-5.5507,-5.5507,-5.5507,-5.5507,-5.5507,-5.5507,-5.5507,-5.5507,-5.5507,-5.5507,-5.5507,-5.5507,-5.5507,-5.5507,-5.5507,-5.5507,-5.5507,-5.5507,-5.5507,-5.5507,-5.5507,-5.5507,-5.5507,-5.5507,-5.5507,-5.5507,-5.5507,-5.5507,-5.5507,-5.5507,-5.5507,-5.5507,-5.5507,-5.5507,-5.5507,-5.5507,-5.5507,-5.5507,-5.5507,-5.5507,-5.5507,-5.5507,-5.5507,-5.5507,-5.5507,-5.5507,-5.5507,-5.5354,-5.5277,-5.5277,-5.5431,-5.5507,-5.5507,-5.5507,-5.5549,-5.5764,-5.5764,-5.5729,-5.5716,-5.5883,-5.5883,-4.2092,-4.2092,-4.2092,-4.2092,-4.2092,-4.2242,-4.2835,-4.3457,-4.3927,-4.3927,-4.3457,-4.3364,-4.4586,-4.4297,0.0,0.0,0.0,0.0,0.0,0.0,0.0,0.0,0.0,0.0,0.0,0.0,0.0,0.0,0.0,0.0,0.0,0.0,0.0,0.0,0.0,0.0,-5.132,-5.0783,-5.1278,-5.2719,-5.2191,-5.1687,-5.132,-5.2137,-5.3112,-5.4119,-5.4551,-5.4974,-5.5507,-5.5507,-5.5507,-5.5507,-5.5507,-5.5507,-5.5507,-5.5507,-5.5507,-5.5507,-5.5507,-5.5507,-5.5507,-5.5507,-5.5507,-5.5507,-5.5507,-5.5507,-5.5507,-5.5507,-5.5507,-5.5507,-5.5507,-5.5507,-5.5507,-5.5507,-5.5507,-5.5507,-5.5507,-5.5507,-5.5507,-5.5507,-5.5507,-5.5507,-5.5507,-5.5507,-5.5507,-5.5507,-5.5507,-5.5507,-5.5507,-5.5507,-5.5507,-5.5507,-5.5507,-5.5507,-5.5507,-5.5507,-5.5507,-5.5507,-5.5507,-5.5507,-5.5507,-5.5507,-5.5507,-5.5507,-5.5507,-5.5764,-5.6311,-5.6311,-5.6492,-5.6876,-5.6894,-5.6894,-4.2092,-4.2092,-4.2092,-4.2092,0.0,0.0,-4.3394,-4.3457,-4.3536,-4.4358,-4.4358,-4.4358,-4.4737,0.0,0.0,0.0,0.0,0.0,0.0,0.0,0.0,0.0,0.0,0.0,0.0,0.0,0.0,0.0,0.0,0.0,0.0,0.0,0.0,0.0,0.0,0.0,-5.23,-5.2103,-5.2229,-5.2719,-5.2822,-5.2822,-5.2736,-5.3365,-5.3926,-5.4551,-5.5035,-5.5371,-5.5507,-5.5507,-5.5507,-5.5507,-5.5507,-5.5507,-5.5507,-5.5507,-5.5507,-5.5507,-5.5507,-5.5507,-5.5507,-5.5507,-5.5507,-5.5507,-5.5507,-5.5507,-5.5507,-5.5507,-5.5507,-5.5507,-5.5507,-5.5507,-5.5507,-5.5507,-5.5507,-5.5507,-5.5507,-5.5507,-5.5507,-5.5507,-5.5507,-5.5507,-5.5507,-5.5507,-5.5507,-5.5507,-5.5507,-5.5507,-5.5507,-5.5507,-5.5507,-5.5507,-5.5507,-5.5666,-5.6014,-5.6052,-5.6201,-5.6617,-5.6617,-5.6456,-5.6052,-5.6052,-5.6257,-5.6617,-5.6617,-5.6704,-5.6861,-5.6861,-5.6894,-5.7047,-5.7065,-5.7065,-4.2092,-4.2092,-4.2092,-4.2092,-4.2242,-4.2703,-4.3693,0.0,0.0,0.0,-4.4977,-4.4887,-4.5142,0.0,0.0,0.0,0.0,0.0,0.0,0.0,0.0,0.0,0.0,0.0,0.0,0.0,0.0,0.0,0.0,0.0,0.0,0.0,0.0,0.0,0.0,0.0,-5.3281,-5.3078,-5.3213,-5.3827,-5.3861,-5.3943,-5.42,-5.4281,-5.4614,-5.5053,-5.5371,-5.5507,-5.5507,-5.5507,-5.5507,-5.5507,-5.5507,-5.5507,-5.5507,-5.5507,-5.5507,-5.5507,-5.5507,-5.5507,-5.5507,-5.5507,-5.5507,-5.5507,-5.5507,-5.5507,-5.5507,-5.5507,-5.5507,-5.5507,-5.5507,-5.5507,-5.5507,-5.5507,-5.5507,-5.5507,-5.5507,-5.5507,-5.5507,-5.5507,-5.5666,-5.5764,-5.5566,-5.5666,-5.5764,-5.5507,-5.5666,-5.5822,-5.5822,-5.6014,-5.6052,-5.5861,-5.6014,-5.6257,-5.6617,-5.6617,-5.6757,-5.7065,-5.7116,-5.7065,-5.6964,-5.6704,-5.6757,-5.7116,-5.7116,-5.7198,-5.7413,-5.7413,-5.751,-5.7766,-5.7766,-5.7766,-4.2092,-4.2092,-4.2092,-4.2175,-4.2703,0.0,-4.3849,-4.4933,-4.5807,-4.5735,0.0,-4.5067,0.0,0.0,0.0,0.0,0.0,0.0,0.0,0.0,0.0,0.0,0.0,0.0,0.0,0.0,0.0,0.0,0.0,0.0,0.0,0.0,0.0,0.0,0.0,0.0,-5.4183,-5.3713,-5.42,0.0,-5.4974,-5.5053,-5.5507,-5.4974,-5.5053,-5.5507,-5.5507,-5.5507,-5.5507,-5.5507,-5.5507,-5.5507,-5.5507,-5.5507,-5.5507,-5.5507,-5.5507,-5.5507,-5.5507,-5.5507,-5.5507,-5.5507,-5.5507,-5.5507,-5.5507,-5.5507,-5.5507,-5.5507,-5.5507,-5.5507,-5.5507,-5.5566,-5.5566,-5.5507,-5.5507,-5.5507,-5.5507,-5.5507,-5.5507,-5.5507,-5.5918,-5.6108,-5.5666,-5.5975,-5.6052,-5.5666,-5.6014,-5.6311,-5.6366,-5.6809,-5.6912,-5.6402,-5.6809,-5.7116,-5.7166,-5.7166,-5.7216,-5.7247,-5.7266,-5.7462,-5.7951,-5.7462,-5.7216,-5.7247,-5.7266,-5.751,-5.7951,-5.7951,-5.8213,-5.8716,-5.8716,-5.8716,-4.2092,-4.2092,0.0,-4.2688,-4.36,-4.4434,-4.4586,-4.5247,-4.5646,-4.5142,-4.5321,0.0,0.0,0.0,0.0,0.0,0.0,0.0,0.0,0.0,0.0,0.0,0.0,0.0,0.0,0.0,0.0,0.0,0.0,0.0,0.0,0.0,0.0,0.0,0.0,-5.4551,-5.5174,-5.5096,-5.5174,0.0,-5.5371,-5.5389,-5.5507,-5.5371,-5.5371,-5.5507,-5.5507,-5.5507,-5.5507,-5.5507,-5.5507,-5.5507,-5.5507,-5.5507,-5.5507,-5.5507,-5.5507,-5.5507,-5.5507,-5.5507,-5.5507,-5.5507,-5.5507,-5.5507,-5.5507,-5.5507,-5.5507,-5.5507,-5.5507,-5.5507,-5.5507,-5.5804,-5.6014,-5.5607,-5.5507,-5.5507,-5.5507,-5.5507,-5.5507,-5.5507,-5.5607,-5.5764,-5.607,-5.5861,-5.5764,-5.6052,-5.6219,-5.6456,-5.6861,-5.7015,-5.7065,-5.6964,-5.7015,-5.7266,-5.77,-5.7719,-5.7905,-5.8319,-5.8363,-5.8406,-5.8511,-5.8015,-5.7923,-5.8363,-5.8363,-5.8406,-5.8511,-5.8511,-5.8614,-5.8716,-5.8716,-5.8716,-4.2092,-4.2092,0.0,-4.3235,0.0,-4.4887,-4.5231,-4.5557,-4.5719,-4.5321,0.0,0.0,0.0,0.0,0.0,0.0,0.0,0.0,0.0,0.0,0.0,0.0,0.0,0.0,0.0,0.0,0.0,0.0,0.0,0.0,0.0,0.0,0.0,0.0,-5.374,-5.4675,-5.4928,-5.5314,-5.5507,-5.5507,-5.5507,-5.5507,-5.5507,-5.5507,-5.5507,-5.5507,-5.5507,-5.5507,-5.5507,-5.5507,-5.5507,-5.5507,-5.5507,-5.5507,-5.5507,-5.5507,-5.5507,-5.5507,-5.5507,-5.5507,-5.5507,-5.5507,-5.5507,-5.5507,-5.5507,-5.5507,-5.5507,-5.5507,-5.5507,-5.5507,-5.5507,-5.5918,-5.6219,-5.5957,-5.5861,-5.5861,-5.5861,-5.5666,-5.5666,-5.6164,-5.6257,-5.6348,-5.6599,-5.6456,-5.6456,-5.6964,-5.7065,-5.7166,-5.7462,-5.7719,-5.7766,-5.751,-5.77,-5.7969,-5.8257,-5.8257,-5.8406,-5.8656,-5.8716,-5.8716,-5.8716,-5.8406,-5.8406,-5.8698,-5.8716,-5.8716,-5.8716,-5.8716,-5.8716,-5.8716,-5.8716,-5.8716,-4.2392,-4.2392,-4.2703,-4.3771,-4.4526,0.0,-4.5646,-4.5807,-4.5807,0.0,0.0,0.0,0.0,0.0,0.0,0.0,0.0,0.0,0.0,0.0,0.0,0.0,0.0,0.0,0.0,0.0,0.0,0.0,0.0,0.0,0.0,0.0,-5.0977,-5.1716,-5.3276,-5.4173,-5.4314,-5.4963,-5.5367,-5.5507,-5.5507,-5.5507,-5.5507,-5.5507,-5.5507,-5.5507,-5.5507,-5.5507,-5.5507,-5.5507,-5.5507,-5.5507,-5.5507,-5.5507,-5.5507,-5.5507,-5.5507,-5.5507,-5.5507,-5.5507,-5.5507,-5.5607,-5.5666,-5.5666,-5.5764,-5.5764,-5.5764,-5.5764,-5.5706,-5.5666,-5.5764,-5.6126,-5.6456,-5.6456,-5.651,-5.6564,-5.6456,-5.6108,-5.607,-5.6912,-5.7148,-5.7216,-5.7116,-5.7166,-5.7413,-5.7812,-5.7905,-5.7905,-5.8015,-5.8425,-5.8511,-5.8105,-5.8468,-5.8716,-5.8716,-5.8716,-5.8716,-5.8716,-5.8716,-5.8716,-5.8716,-5.8716,-5.8716,-5.8716,-5.8716,-5.8716,-5.8716,-5.8716,-5.8716,-5.8716,-5.8716,-5.8716,-4.3461,0.0,-4.3849,0.0,-4.5157,-4.5719,0.0,0.0,-4.5807,0.0,0.0,0.0,0.0,0.0,0.0,0.0,0.0,0.0,0.0,0.0,0.0,0.0,0.0,0.0,0.0,0.0,0.0,0.0,0.0,0.0,0.0,-5.0005,-5.1038,-5.1913,-5.287,-5.3647,-5.4296,-5.4419,-5.4823,-5.5507,-5.5507,-5.5507,-5.5507,-5.5507,-5.5507,-5.5507,-5.5507,-5.5507,-5.5507,-5.5507,-5.5507,-5.5507,-5.5507,-5.5507,-5.5507,-5.5507,-5.5507,-5.5507,-5.5507,-5.5507,-5.5566,-5.6052,-5.6219,-5.6257,-5.6775,-5.6912,-5.6912,-5.6912,-5.6564,-5.6311,-5.6775,-5.6964,-5.7015,-5.7015,-5.7364,-5.7558,-5.7116,-5.6964,-5.6912,-5.7065,-5.7462,-5.7671,-5.7166,-5.751,-5.7812,-5.7905,-5.7905,-5.806,-5.8511,-5.8656,-5.8656,-5.8614,-5.8656,-5.8716,-5.8716,-5.8716,-5.8716,-5.8716,-5.8716,-5.8716,-5.8716,-5.8716,-5.8716,-5.8716,-5.8716,-5.8716,-5.8716,-5.8716,-5.8716,-5.8716,-5.8716,-5.8716,-4.422,-4.4251,-4.4434,0.0,-4.5305,-4.5807,-4.5807,0.0,0.0,0.0,0.0,0.0,0.0,0.0,0.0,0.0,0.0,0.0,0.0,0.0,0.0,0.0,0.0,0.0,0.0,0.0,0.0,0.0,0.0,0.0,-4.881,-4.9787,-5.0506,-5.0924,-5.199,-5.2681,-5.3015,-5.3875,-5.47,-5.5507,-5.5507,-5.5507,-5.5507,-5.5507,-5.5507,-5.5507,-5.5507,-5.5507,-5.5507,-5.5507,-5.5507,-5.5507,-5.5507,-5.5507,-5.5507,-5.5507,-5.5507,-5.5507,-5.5507,-5.5724,-5.6014,-5.6201,-5.651,-5.6809,-5.7015,-5.7116,-5.7116,-5.7116,-5.6912,-5.6809,-5.7065,-5.7315,-5.7558,-5.7558,-5.7969,-5.8257,-5.806,-5.751,-5.7216,-5.751,-5.7969,-5.8257,-5.806,-5.8213,-5.8363,-5.8363,-5.8363,-5.8406,-5.8656,-5.8716,-5.8716,-5.8716,-5.8716,-5.8716,-5.8716,-5.8716,-5.8716,-5.8716,-5.8716,-5.8716,-5.8716,-5.8716,-5.8716,-5.8716,-5.8716,-5.8716,-5.8716,-5.8716,-5.8716,-5.8716,-5.8716,-5.8716,0.0,0.0,-4.4962,-4.511,-4.5452,-4.5807,0.0,0.0,0.0,0.0,0.0,0.0,0.0,0.0,0.0,0.0,0.0,0.0,0.0,0.0,0.0,0.0,0.0,0.0,0.0,0.0,0.0,0.0,0.0,0.0,-4.8917,-4.9526,-4.9881,-4.9994,-5.0745,-5.1224,-5.1417,-5.2944,-5.4226,-5.5209,-5.5209,-5.5314,-5.5507,-5.5507,-5.5507,-5.5507,-5.5507,-5.5507,-5.5507,-5.5507,-5.5507,-5.5507,-5.5507,-5.5507,-5.5507,-5.5666,-5.5706,-5.5706,-5.5861,-5.6164,-5.651,-5.6652,-5.6964,-5.7315,-5.7462,-5.751,-5.751,-5.751,-5.7413,-5.7346,-5.7462,-5.77,-5.7951,-5.806,-5.8406,-5.8716,-5.8716,-5.806,-5.7606,-5.8015,-5.8406,-5.8716,-5.8716,-5.8716,-5.8716,-5.8716,-5.8716,-5.8716,-5.8716,-5.8716,-5.8716,-5.8716,-5.8716,-5.8716,-5.8716,-5.8716,-5.8716,-5.8716,-5.8716,-5.8716,-5.8716,-5.8716,-5.8716,-5.8716,-5.8716,-5.8716,-5.8716,-5.8716,-5.8716,-5.8716,-5.8716,-5.8716,0.0,-4.6072,0.0,-4.6072,-4.5977,0.0,0.0,0.0,0.0,0.0,0.0,0.0,0.0,0.0,0.0,0.0,0.0,0.0,0.0,0.0,0.0,0.0,0.0,0.0,0.0,0.0,0.0,0.0,0.0,0.0,-4.9529,-4.924,-4.9284,-4.9679,-4.9065,-4.9065,-4.9802,-5.1347,-5.2892,-5.4366,-5.4366,-5.477,-5.5507,-5.5507,-5.5507,-5.5507,-5.5507,-5.5507,-5.5507,-5.5507,-5.5507,-5.5507,-5.5507,-5.5507,-5.5566,-5.6052,-5.6257,-5.6311,-5.6861,-5.7065,-5.7148,-5.7653,-5.7859,-5.7951,-5.8449,-5.8614,-5.8614,-5.8614,-5.8257,-5.7969,-5.8468,-5.8257,-5.8015,-5.8553,-5.8656,-5.8716,-5.8716,-5.8656,-5.8614,-5.8656,-5.8656,-5.8716,-5.8716,-5.8716,-5.8716,-5.8716,-5.8716,-5.8716,-5.8716,-5.8716,-5.8716,-5.8716,-5.8716,-5.8716,-5.8716,-5.8716,-5.8716,-5.8716,-5.8716,-5.8716,-5.8716,-5.8716,-5.8716,-5.8716,-5.8716,-5.8716,-5.8716,-5.8716,-5.8716,-5.8716,-5.8716,-5.8716,0.0,0.0,0.0,-4.6652,-4.6388,-4.6104,0.0,0.0,0.0,0.0,0.0,0.0,0.0,0.0,0.0,0.0,0.0,0.0,0.0,0.0,0.0,0.0,0.0,0.0,0.0,0.0,0.0,0.0,0.0,0.0,-4.8463,-4.8657,-4.8802,-4.8942,-4.8661,-4.8889,-4.9679,-5.0241,-5.1294,-5.2839,-5.2839,-5.3506,-5.4735,-5.4735,-5.5016,-5.5507,-5.5507,-5.5507,-5.5507,-5.5507,-5.5507,-5.5507,-5.5507,-5.5706,-5.607,-5.6219,-5.651,-5.6861,-5.7015,-5.7315,-5.7671,-5.7859,-5.8105,-5.8468,-5.8656,-5.8716,-5.8716,-5.8716,-5.8553,-5.8468,-5.8656,-5.8553,-5.8468,-5.8656,-5.8716,-5.8716,-5.8716,-5.8716,-5.8716,-5.8716,-5.8716,-5.8716,-5.8716,-5.8716,-5.8716,-5.8716,-5.8716,-5.8716,-5.8716,-5.8716,-5.8716,-5.8716,-5.8716,-5.8716,-5.8716,-5.8716,-5.8716,-5.8716,-5.8716,-5.8716,-5.8716,-5.8716,-5.8716,-5.8716,-5.8716,-5.8716,-5.8716,-5.8716,-5.8716,-5.8716,-5.8716,-5.8716,-4.7621,0.0,0.0,0.0,0.0,-4.6442,0.0,0.0,0.0,0.0,0.0,0.0,0.0,0.0,0.0,0.0,0.0,0.0,0.0,0.0,0.0,0.0,0.0,0.0,0.0,0.0,0.0,0.0,0.0,0.0,-4.8483,-4.854,-4.8345,-4.7766,-4.7748,-4.8117,-4.8907,-4.8924,-4.9697,-5.1242,-5.1242,-5.2049,-5.3541,-5.3541,-5.4103,-5.5104,-5.5301,-5.5419,-5.5507,-5.5507,-5.5607,-5.5764,-5.5764,-5.6108,-5.6617,-5.6757,-5.7065,-5.7413,-5.7558,-5.7859,-5.8168,-5.8168,-5.8406,-5.8716,-5.8716,-5.8716,-5.8716,-5.8716,-5.8716,-5.8716,-5.8716,-5.8716,-5.8716,-5.8716,-5.8716,-5.8716,-5.8716,-5.8716,-5.8716,-5.8716,-5.8716,-5.8716,-5.8716,-5.8716,-5.8716,-5.8716,-5.8716,-5.8716,-5.8716,-5.8716,-5.8716,-5.8716,-5.8716,-5.8716,-5.8716,-5.8716,-5.8716,-5.8716,-5.8716,-5.8716,-5.8716,-5.8716,-5.8716,-5.8716,-5.8716,-5.8716,-5.8716,-5.8716,-5.8716,-5.8716,-5.8716,-5.8716,0.0,0.0,0.0,0.0,0.0,0.0,0.0,0.0,0.0,0.0,0.0,0.0,0.0,0.0,0.0,0.0,0.0,0.0,0.0,0.0,0.0,0.0,0.0,0.0,0.0,0.0,0.0,0.0,0.0,-5.0487,-4.9697,-4.896,-4.7854,-4.6259,-4.6189,-4.659,-4.7345,-4.7362,-4.8117,-4.9609,-4.9609,-5.0434,-5.1944,-5.1979,-5.2804,-5.4284,-5.4846,-5.5216,-5.5531,-5.5549,-5.5861,-5.6311,-5.6311,-5.6652,-5.7216,-5.7719,-5.7905,-5.8015,-5.8511,-5.8716,-5.8716,-5.8716,-5.8716,-5.8716,-5.8716,-5.8716,-5.8716,-5.8716,-5.8716,-5.8716,-5.8716,-5.8716,-5.8716,-5.8716,-5.8716,-5.8716,-5.8716,-5.8716,-5.8716,-5.8716,-5.8716,-5.8716,-5.8716,-5.8716,-5.8716,-5.8716,-5.8716,-5.8716,-5.8716,-5.8716,-5.8716,-5.8716,-5.8716,-5.8716,-5.8716,-5.8716,-5.8716,-5.8716,-5.8716,-5.8716,-5.8716,-5.8716,-5.8716,-5.8716,-5.8716,-5.8716,-5.8716,-5.8716,-5.8716,-5.8716,-5.8716,-5.8716,-4.8001,0.0,0.0,0.0,0.0,0.0,0.0,0.0,0.0,0.0,0.0,0.0,0.0,0.0,0.0,0.0,0.0,0.0,0.0,0.0,0.0,0.0,0.0,0.0,0.0,0.0,0.0,0.0,-4.9363,-4.91,-4.8907,-4.8152,-4.752,-4.7081,-4.652,-4.6326,-4.6555,-4.6555,-4.7046,-4.8029,-4.8029,-4.9025,-5.0835,-5.1454,-5.2424,-5.3677,-5.4471,-5.5191,-5.5809,-5.6436,-5.6757,-5.6861,-5.6861,-5.7216,-5.7719,-5.7859,-5.8168,-5.8511,-5.8656,-5.8716,-5.8716,-5.8716,-5.8716,-5.8716,-5.8716,-5.8716,-5.8716,-5.8716,-5.8716,-5.8716,-5.8716,-5.8716,-5.8716,-5.8716,-5.8716,-5.8716,-5.8716,-5.8716,-5.8716,-5.8716,-5.8716,-5.8716,-5.8716,-5.8716,-5.8716,-5.8716,-5.8716,-5.8716,-5.8716,-5.8716,-5.8716,-5.8716,-5.8716,-5.8716,-5.8716,-5.8716,-5.8716,-5.8716,-5.8716,-5.8716,-5.8716,-5.8716,-5.8716,-5.8716,-5.8716,-5.8716,-5.8716,-5.8716,-5.8716,-5.8716,-5.8716,-5.8716,-4.8001,-4.8001,-4.8066,0.0,0.0,0.0,-4.7737,-4.7404,0.0,0.0,0.0,0.0,0.0,0.0,0.0,0.0,0.0,0.0,0.0,0.0,0.0,0.0,0.0,0.0,0.0,0.0,0.0,0.0,-4.9767,-4.9381,-4.9065,-4.8293,-4.7713,-4.7397,-4.6958,-4.6555,-4.6172,-4.6172,-4.6467,-4.6906,-4.7086,-4.7997,-4.9447,-5.0116,-5.1322,-5.2965,-5.3735,-5.4701,-5.5775,-5.6483,-5.7021,-5.7413,-5.7413,-5.7766,-5.8213,-5.8213,-5.8406,-5.8716,-5.8716,-5.8716,-5.8716,-5.8716,-5.8716,-5.8716,-5.8716,-5.8716,-5.8716,-5.8716,-5.8716,-5.8716,-5.8716,-5.8716,-5.8716,-5.8716,-5.8716,-5.8716,-5.8716,-5.8716,-5.8716,-5.8716,-5.8716,-5.8716,-5.8716,-5.8716,-5.8716,-5.8716,-5.8716,-5.8716,-5.8716,-5.8716,-5.8716,-5.8716,-5.8716,-5.8716,-5.8716,-5.8716,-5.8716,-5.8716,-5.8716,-5.8716,-5.8716,-5.8716,-5.8716,-5.8716,-5.8716,-5.8716,-5.8716,-5.8716,-5.8716,-5.8716,-5.8716,-5.8716,-4.8115,-4.8115,-4.8227,0.0,0.0,0.0,-4.8322,-4.7983,-4.7522,0.0,0.0,0.0,0.0,0.0,0.0,0.0,0.0,0.0,0.0,0.0,0.0,0.0,0.0,0.0,0.0,0.0,-5.0891,-5.0891,-5.0891,-5.0575,-4.9855,-4.9065,-4.8345,-4.7678,-4.7485,-4.7064,-4.6362,-4.6224,-4.6172,-4.6239,-4.6695,-4.7283,-4.8043,-4.8648,-5.0097,-5.2254,-5.2877,-5.4062,-5.5478,-5.5973,-5.6816,-5.7886,-5.7886,-5.8183,-5.8716,-5.8716,-5.8716,-5.8716,-5.8716,-5.8716,-5.8716,-5.8716,-5.8716,-5.8716,-5.8716,-5.8716,-5.8716,-5.8716,-5.8716,-5.8716,-5.8716,-5.8716,-5.8716,-5.8716,-5.8716,-5.8716,-5.8716,-5.8716,-5.8716,-5.8716,-5.8716,-5.8716,-5.8716,-5.8716,-5.8716,-5.8716,-5.8716,-5.8716,-5.8716,-5.8716,-5.8716,-5.8716,-5.8716,-5.8716,-5.8716,-5.8716,-5.8716,-5.8716,-5.8716,-5.8716,-5.8716,-5.8716,-5.8716,-5.8716,-5.8716,-5.8716,-5.8716,-5.8716,-5.8716,-5.8716,-5.8716,-5.8716,0.0,0.0,0.0,0.0,0.0,0.0,-4.9161,-4.9101,-4.89,0.0,0.0,0.0,0.0,0.0,0.0,0.0,0.0,0.0,0.0,0.0,0.0,0.0,0.0,0.0,0.0,0.0,-5.0891,-5.0891,-5.0891,-5.082,-5.0662,-4.989,-4.9398,-4.924,-4.8047,-4.7309,-4.7169,-4.6537,-4.6172,-4.6239,-4.6695,-4.716,-4.7753,-4.9505,-5.079,-5.1636,-5.3065,-5.4216,-5.5124,-5.5222,-5.6187,-5.7589,-5.7589,-5.8039,-5.8716,-5.8716,-5.8716,-5.8716,-5.8716,-5.8716,-5.8716,-5.8716,-5.8716,-5.8716,-5.8716,-5.8716,-5.8716,-5.8716,-5.8716,-5.8716,-5.8716,-5.8716,-5.8716,-5.8716,-5.8716,-5.8716,-5.8716,-5.8716,-5.8716,-5.8716,-5.8716,-5.8716,-5.8716,-5.8716,-5.8716,-5.8716,-5.8716,-5.8716,-5.8716,-5.8716,-5.8716,-5.8716,-5.8716,-5.8716,-5.8716,-5.8716,-5.8716,-5.8716,-5.8716,-5.8716,-5.8716,-5.8716,-5.8716,-5.8716,-5.8716,-5.8716,-5.8716,-5.8716,-5.8716,-5.8716,-5.8716,-5.8716,0.0,0.0,0.0,-4.9402,0.0,0.0,0.0,-4.958,-4.9342,0.0,0.0,0.0,0.0,0.0,0.0,0.0,0.0,0.0,0.0,0.0,0.0,0.0,0.0,0.0,0.0,0.0,-5.0891,-5.0891,-5.0891,-5.0891,-5.0891,-5.0504,-5.0101,-4.9697,-4.8942,-4.817,-4.7397,-4.7011,-4.6625,-4.6221,-4.6908,-4.7576,-4.8249,-4.9722,-5.099,-5.2048,-5.2847,-5.3664,-5.4407,-5.4407,-5.5131,-5.6302,-5.6729,-5.7398,-5.8103,-5.8103,-5.8364,-5.8716,-5.8716,-5.8716,-5.8716,-5.8716,-5.8716,-5.8716,-5.8716,-5.8758,-5.8799,-5.8862,-5.8843,-5.8843,-5.8843,-5.8843,-5.8862,-5.8799,-5.8799,-5.8758,-5.8698,-5.8716,-5.8716,-5.8716,-5.8716,-5.8716,-5.8716,-5.8716,-5.8716,-5.8716,-5.8716,-5.8716,-5.8716,-5.8716,-5.8716,-5.8716,-5.8716,-5.8716,-5.8716,-5.8716,-5.8716,-5.8716,-5.8716,-5.8716,-5.8716,-5.8716,-5.8716,-5.8716,-5.8716,-5.8716,-5.8716,-5.8716,-5.8716,-5.8716,-5.8716,-5.8716,0.0,0.0,0.0,0.0,0.0,-4.9774,0.0,0.0,0.0,0.0,0.0,0.0,0.0,0.0,0.0,0.0,0.0,0.0,0.0,0.0,0.0,0.0,0.0,0.0,0.0,0.0,-5.0891,-5.0891,-5.0891,-5.0891,-5.0891,-5.0891,-5.0592,-4.9943,-4.9767,-4.9082,-4.7854,-4.7638,-4.7283,-4.679,-4.7597,-4.8411,-4.9216,-5.0137,-5.1323,-5.2605,-5.2754,-5.32,-5.3813,-5.3813,-5.4184,-5.4853,-5.5707,-5.6562,-5.7286,-5.7435,-5.7899,-5.8494,-5.8684,-5.8739,-5.8758,-5.8739,-5.8739,-5.8739,-5.8739,-5.884,-5.8921,-5.9003,-5.8984,-5.8984,-5.8984,-5.8984,-5.9003,-5.8921,-5.8899,-5.8859,-5.8758,-5.8716,-5.8716,-5.8716,-5.8716,-5.8716,-5.8716,-5.8716,-5.8716,-5.8716,-5.8716,-5.8716,-5.8716,-5.8716,-5.8716,-5.8716,-5.8716,-5.8716,-5.8716,-5.8716,-5.8716,-5.8716,-5.8716,-5.8716,-5.8716,-5.8716,-5.8716,-5.8716,-5.8716,-5.8716,-5.8716,-5.8716,-5.8716,-5.8716,-5.8716,-5.8716,0.0,0.0,0.0,0.0,-5.0436,0.0,0.0,0.0,0.0,0.0,0.0,0.0,0.0,0.0,0.0,0.0,0.0,0.0,0.0,0.0,0.0,0.0,0.0,0.0,0.0,0.0,0.0,-5.0891,-5.0891,-5.0891,-5.0891,-5.0891,-5.0855,-5.075,-5.0066,-4.9609,-4.9434,-4.8498,-4.833,-4.893,-4.9174,-4.9695,-5.0523,-5.1768,-5.2419,-5.2642,-5.3348,-5.372,-5.3813,-5.3813,-5.385,-5.4017,-5.4834,-5.5689,-5.6525,-5.7274,-5.7609,-5.7773,-5.8681,-5.8942,-5.8899,-5.8924,-5.8964,-5.8964,-5.8964,-5.9003,-5.9003,-5.8984,-5.8984,-5.8984,-5.8984,-5.8984,-5.8984,-5.9003,-5.8942,-5.8918,-5.8859,-5.8758,-5.8716,-5.8716,-5.8716,-5.8716,-5.8716,-5.8716,-5.8716,-5.8716,-5.8716,-5.8716,-5.8716,-5.8716,-5.8716,-5.8716,-5.8716,-5.8716,-5.8716,-5.8716,-5.8716,-5.8716,-5.8716,-5.8716,-5.8716,-5.8716,-5.8716,-5.8716,-5.8716,-5.8716,-5.8716,-5.8716,-5.8716,-5.8716,-5.8716,-5.8716,0.0,0.0,0.0,0.0,0.0,0.0,-5.1141,0.0,-5.1333,0.0,0.0,0.0,0.0,0.0,0.0,0.0,0.0,0.0,0.0,0.0,0.0,0.0,0.0,0.0,0.0,0.0,0.0,0.0,0.0,-5.0891,-5.0891,-5.0891,-5.0891,-5.0891,-5.0557,-5.0153,-4.9679,-4.9536,-4.9371,-4.9293,-4.9895,-5.06,-5.143,-5.2212,-5.2847,-5.333,-5.3664,-5.3851,-5.3907,-5.3907,-5.3926,-5.4019,-5.4354,-5.4969,-5.5731,-5.6106,-5.6592,-5.7094,-5.7993,-5.8292,-5.8327,-5.8854,-5.8984,-5.9024,-5.9081,-5.9139,-5.912,-5.914,-5.9178,-5.9178,-5.9178,-5.9178,-5.914,-5.9139,-5.9022,-5.8961,-5.8899,-5.8799,-5.8716,-5.8716,-5.8716,-5.8716,-5.8716,-5.8716,-5.8716,-5.8716,-5.8716,-5.8716,-5.8716,-5.8716,-5.8716,-5.8716,-5.8716,-5.8716,-5.8716,-5.8716,-5.8716,-5.8716,-5.8716,-5.8716,-5.8716,-5.8716,-5.8716,-5.8716,-5.8716,-5.8716,-5.8716,-5.8716,-5.8716,-5.8716,-5.8716,-5.8716,-5.1034,0.0,0.0,0.0,0.0,0.0,0.0,0.0,0.0,0.0,0.0,0.0,0.0,0.0,0.0,0.0,0.0,0.0,0.0,0.0,0.0,0.0,0.0,0.0,0.0,0.0,0.0,0.0,-5.0891,0.0,-5.0891,-5.0891,-5.0891,-5.0891,-5.0891,-5.0699,-5.0258,-5.0463,-5.0498,-5.0343,-5.0931,-5.1646,-5.2478,-5.2789,-5.3255,-5.3851,-5.3851,-5.3907,-5.3982,-5.4019,-5.4073,-5.4091,-5.4146,-5.4483,-5.4969,-5.5249,-5.5734,-5.637,-5.7267,-5.7697,-5.8015,-5.8801,-5.9063,-5.9101,-5.9215,-5.9215,-5.9253,-5.9309,-5.929,-5.929,-5.929,-5.929,-5.9309,-5.9253,-5.912,-5.9003,-5.8961,-5.884,-5.8716,-5.8758,-5.8716,-5.8716,-5.8716,-5.8716,-5.8716,-5.8716,-5.8716,-5.8716,-5.8716,-5.8716,-5.8716,-5.8716,-5.8716,-5.8716,-5.8716,-5.8716,-5.8716,-5.8716,-5.8716,-5.8716,-5.8716,-5.8716,-5.8716,-5.8716,-5.8716,-5.8716,-5.8716,-5.8716,-5.8716,-5.8716,-5.8716,-5.8716,0.0,0.0,0.0,-5.1298,0.0,0.0,0.0,0.0,-5.169,0.0,0.0,0.0,0.0,0.0,-5.144,-5.0686,0.0,0.0,0.0,0.0,0.0,0.0,0.0,0.0,0.0,0.0,0.0,-5.0891,-5.0891,0.0,-5.0891,-5.0891,-5.0891,-5.0891,-5.0891,-5.1105,-5.1515,-5.1243,-5.1744,-5.2962,-5.2673,-5.3033,-5.3907,-5.3813,-5.3832,-5.3982,-5.3982,-5.4,-5.4,-5.4073,-5.4091,-5.4127,-5.4235,-5.4327,-5.4439,-5.5207,-5.5416,-5.5491,-5.6553,-5.745,-5.8202,-5.9046,-5.929,-5.929,-5.9309,-5.9309,-5.9309,-5.929,-5.929,-5.929,-5.929,-5.929,-5.929,-5.9309,-5.914,-5.9024,-5.9139,-5.8942,-5.8758,-5.8859,-5.8799,-5.8716,-5.8716,-5.8716,-5.8716,-5.8716,-5.8716,-5.8716,-5.8716,-5.8716,-5.8716,-5.8716,-5.8716,-5.8716,-5.8716,-5.8716,-5.8716,-5.8716,-5.8716,-5.8716,-5.8716,-5.8716,-5.8716,-5.8716,-5.8716,-5.8716,-5.8716,-5.8716,-5.8716,-5.8716,-5.8716,-5.8716,0.0,0.0,-5.1538,-5.1538,0.0,0.0,0.0,0.0,0.0,0.0,0.0,0.0,0.0,0.0,-5.2399,-5.1914,-5.2409,0.0,0.0,0.0,0.0,0.0,0.0,0.0,0.0,0.0,0.0,-5.0945,-5.0891,-5.0891,0.0,-5.0891,-5.0891,-5.0891,-5.1211,-5.1434,-5.1601,-5.2173,-5.2676,-5.3078,-5.34,-5.3684,-5.4,-5.4,-5.4018,-5.4073,-5.4073,-5.4128,-5.4183,-5.4219,-5.4271,-5.4287,-5.434,-5.4375,-5.4412,-5.4675,-5.4734,-5.4811,-5.5726,-5.6605,-5.745,-5.8239,-5.852,-5.8614,-5.914,-5.929,-5.929,-5.929,-5.929,-5.929,-5.929,-5.929,-5.929,-5.929,-5.9196,-5.9139,-5.9081,-5.8964,-5.8884,-5.8799,-5.8799,-5.8799,-5.8716,-5.8716,-5.8716,-5.8716,-5.8716,-5.8716,-5.8716,-5.8716,-5.8716,-5.8716,-5.8716,-5.8716,-5.8716,-5.8716,-5.8716,-5.8716,-5.8716,-5.8716,-5.8716,-5.8716,-5.8716,-5.8716,-5.8716,-5.8716,-5.8716,-5.8716,-5.8716,-5.8716,-5.8716,-5.8716,-5.1982,-5.1982,0.0,-5.1889,-5.2066,0.0,-5.2228,0.0,0.0,0.0,0.0,0.0,0.0,0.0,-5.2779,-5.2708,-5.3005,-5.3198,0.0,-5.2912,0.0,0.0,0.0,0.0,0.0,0.0,-5.1262,-5.0945,-5.0891,-5.0891,0.0,0.0,-5.0981,-5.1158,-5.1434,-5.175,-5.2119,-5.2784,-5.3244,-5.3404,-5.3832,-5.4055,-5.4111,-5.411,-5.4146,-5.4181,-5.4181,-5.42,-5.4308,-5.4324,-5.434,-5.4409,-5.4409,-5.4409,-5.4409,-5.4409,-5.4409,-5.4521,-5.5329,-5.5986,-5.6568,-5.7413,-5.7676,-5.7826,-5.8633,-5.8877,-5.8933,-5.9215,-5.929,-5.929,-5.929,-5.929,-5.929,-5.929,-5.9253,-5.9177,-5.912,-5.9063,-5.8964,-5.8902,-5.8899,-5.8859,-5.8799,-5.8716,-5.8716,-5.8716,-5.8716,-5.8716,-5.8716,-5.8716,-5.8716,-5.8716,-5.8716,-5.8716,-5.8716,-5.8716,-5.8716,-5.8716,-5.8716,-5.8716,-5.8716,-5.8716,-5.8716,-5.8716,-5.8716,-5.8716,-5.8716,-5.8716,-5.8762,-5.8905,-5.8905,-5.8966]},{"header":{"parameterUnit":"m.s-1","parameterCategory":1,"la1":30.6,"la2":29.2853,"lo1":-89.7004,"lo2":-87.6739,"dy":0.0162,"dx":0.0183,"nx":112,"ny":82,"refTime":"2023-03-22T06:00:00:Z","depth":0,"parameterNumber":3,"parameterNumberName":"V-component_of_WINDS"},"data":[0.0,0.0,0.0,0.0,0.0,0.0,0.0,0.0,0.0,0.0,0.0,0.0,0.0,0.0,0.0,0.0,0.0,0.0,0.0,0.0,0.0,0.0,0.0,0.0,0.0,0.0,0.0,0.0,0.0,0.0,0.0,0.0,0.0,0.0,0.0,0.0,0.0,0.0,0.0,0.0,0.0,0.0,0.0,0.0,0.0,0.0,0.0,0.0,0.0,0.0,0.0,0.0,0.0,0.0,0.0,0.0,0.0,0.0,0.0,0.0,0.0,0.0,0.0,0.0,0.0,0.0,0.0,0.0,0.0,0.0,0.0,0.0,0.0,0.0,0.0,0.0,0.0,0.0,0.0,0.0,0.0,0.0,0.0,0.0,0.0,0.0,0.0,0.0,0.0,0.0,-3.0216,-3.0216,-3.0216,-3.0216,-3.0216,-3.0216,-2.9943,-2.9382,0.0,0.0,0.0,0.0,0.0,0.0,0.0,0.0,0.0,0.0,0.0,0.0,0.0,0.0,0.0,0.0,0.0,0.0,0.0,0.0,0.0,0.0,0.0,0.0,0.0,0.0,0.0,0.0,0.0,0.0,0.0,0.0,0.0,0.0,0.0,0.0,0.0,0.0,0.0,0.0,0.0,0.0,0.0,0.0,0.0,0.0,0.0,0.0,0.0,0.0,0.0,0.0,0.0,0.0,0.0,0.0,0.0,0.0,0.0,0.0,0.0,0.0,0.0,0.0,0.0,0.0,0.0,0.0,0.0,0.0,0.0,0.0,0.0,0.0,0.0,0.0,0.0,0.0,0.0,0.0,0.0,0.0,0.0,0.0,0.0,0.0,0.0,0.0,0.0,0.0,0.0,0.0,0.0,0.0,0.0,0.0,0.0,0.0,0.0,0.0,0.0,0.0,0.0,0.0,-3.0216,-3.0216,-3.0216,-3.0216,-3.0216,-3.0216,-2.984,-2.891,0.0,0.0,0.0,0.0,0.0,0.0,0.0,0.0,0.0,0.0,0.0,0.0,0.0,0.0,0.0,0.0,0.0,0.0,0.0,0.0,0.0,0.0,0.0,0.0,0.0,0.0,0.0,0.0,0.0,0.0,0.0,0.0,0.0,0.0,0.0,0.0,0.0,0.0,0.0,0.0,0.0,0.0,0.0,0.0,0.0,0.0,0.0,0.0,0.0,0.0,0.0,0.0,0.0,0.0,0.0,0.0,0.0,0.0,0.0,0.0,0.0,0.0,0.0,0.0,0.0,0.0,0.0,0.0,0.0,0.0,0.0,0.0,0.0,0.0,0.0,0.0,0.0,0.0,0.0,0.0,0.0,0.0,0.0,0.0,0.0,0.0,0.0,0.0,0.0,0.0,0.0,0.0,0.0,0.0,0.0,0.0,0.0,0.0,0.0,0.0,0.0,0.0,0.0,-3.0216,-3.0216,-3.0216,-3.0216,-3.0216,-3.0216,-3.0216,-2.984,-2.9198,-2.8341,0.0,0.0,0.0,0.0,0.0,0.0,0.0,0.0,0.0,0.0,0.0,0.0,0.0,0.0,0.0,0.0,0.0,0.0,0.0,0.0,0.0,0.0,0.0,0.0,0.0,0.0,0.0,0.0,0.0,0.0,0.0,0.0,0.0,0.0,0.0,0.0,0.0,0.0,0.0,0.0,0.0,0.0,0.0,0.0,0.0,0.0,0.0,0.0,0.0,0.0,0.0,0.0,0.0,0.0,0.0,0.0,0.0,0.0,0.0,0.0,0.0,0.0,0.0,0.0,0.0,0.0,0.0,0.0,0.0,0.0,0.0,0.0,0.0,0.0,0.0,0.0,0.0,0.0,0.0,0.0,0.0,0.0,0.0,0.0,0.0,0.0,0.0,0.0,0.0,0.0,0.0,0.0,0.0,0.0,0.0,0.0,0.0,0.0,0.0,0.0,0.0,0.0,-3.0216,-3.0216,-3.0216,-3.0216,-3.0216,-3.0216,-3.0216,-3.0034,-2.9485,-2.8258,0.0,0.0,0.0,0.0,0.0,0.0,0.0,0.0,0.0,0.0,0.0,0.0,0.0,0.0,0.0,0.0,0.0,0.0,0.0,0.0,0.0,0.0,0.0,0.0,0.0,0.0,0.0,0.0,0.0,0.0,0.0,0.0,0.0,0.0,0.0,0.0,0.0,0.0,0.0,0.0,0.0,0.0,0.0,0.0,0.0,0.0,0.0,0.0,0.0,0.0,0.0,0.0,0.0,0.0,0.0,0.0,0.0,0.0,0.0,0.0,0.0,0.0,0.0,0.0,0.0,0.0,0.0,0.0,0.0,0.0,0.0,0.0,0.0,0.0,0.0,0.0,0.0,0.0,0.0,0.0,0.0,0.0,0.0,0.0,0.0,0.0,0.0,0.0,0.0,0.0,0.0,0.0,0.0,0.0,0.0,0.0,0.0,0.0,0.0,0.0,0.0,0.0,-3.0216,-3.0216,-3.0216,-3.0216,-3.0216,-3.0216,-3.0216,-3.0034,-2.9485,-2.8258,0.0,0.0,0.0,0.0,0.0,0.0,0.0,0.0,0.0,0.0,0.0,0.0,0.0,0.0,0.0,0.0,0.0,0.0,0.0,0.0,0.0,0.0,0.0,0.0,0.0,0.0,0.0,0.0,0.0,0.0,0.0,0.0,0.0,0.0,0.0,0.0,0.0,0.0,0.0,0.0,0.0,0.0,0.0,0.0,0.0,0.0,0.0,0.0,0.0,0.0,0.0,0.0,0.0,0.0,0.0,0.0,0.0,0.0,0.0,0.0,0.0,0.0,0.0,0.0,0.0,0.0,0.0,0.0,0.0,0.0,0.0,0.0,0.0,0.0,0.0,0.0,0.0,0.0,0.0,0.0,0.0,0.0,0.0,0.0,0.0,0.0,0.0,0.0,0.0,0.0,0.0,0.0,0.0,0.0,0.0,0.0,0.0,0.0,0.0,0.0,0.0,0.0,-3.0216,-3.0216,0.0,-3.0216,-3.0216,-3.0216,-3.0216,-3.0125,-2.9943,0.0,0.0,0.0,0.0,0.0,0.0,0.0,0.0,0.0,0.0,0.0,0.0,0.0,0.0,0.0,0.0,0.0,0.0,0.0,0.0,0.0,0.0,0.0,0.0,0.0,0.0,0.0,0.0,0.0,0.0,0.0,0.0,0.0,0.0,0.0,0.0,0.0,0.0,0.0,0.0,0.0,0.0,0.0,0.0,0.0,0.0,0.0,0.0,0.0,0.0,0.0,0.0,0.0,0.0,0.0,0.0,0.0,0.0,0.0,0.0,0.0,0.0,0.0,0.0,0.0,0.0,0.0,0.0,0.0,0.0,0.0,0.0,0.0,0.0,0.0,0.0,0.0,0.0,0.0,0.0,0.0,0.0,0.0,0.0,0.0,0.0,0.0,0.0,0.0,0.0,0.0,0.0,0.0,0.0,0.0,0.0,0.0,0.0,0.0,0.0,0.0,0.0,-3.0216,-3.0216,-3.0216,0.0,-3.0216,-3.0216,-3.0216,-3.0216,-3.0034,-2.9749,0.0,0.0,0.0,0.0,0.0,0.0,0.0,0.0,0.0,0.0,0.0,0.0,0.0,0.0,0.0,0.0,0.0,0.0,0.0,0.0,0.0,0.0,0.0,0.0,0.0,0.0,0.0,0.0,0.0,0.0,0.0,0.0,0.0,0.0,0.0,0.0,0.0,0.0,0.0,0.0,0.0,0.0,0.0,0.0,0.0,0.0,0.0,0.0,0.0,0.0,0.0,0.0,0.0,0.0,0.0,0.0,0.0,0.0,0.0,0.0,0.0,0.0,0.0,0.0,0.0,0.0,0.0,0.0,0.0,0.0,0.0,0.0,0.0,0.0,0.0,0.0,0.0,0.0,0.0,0.0,0.0,0.0,0.0,0.0,0.0,0.0,0.0,0.0,0.0,0.0,0.0,0.0,0.0,0.0,0.0,0.0,0.0,0.0,0.0,0.0,0.0,0.0,-3.0216,-3.0216,-3.0216,-3.0216,-3.0216,-3.0216,-3.0216,-3.0216,-2.9749,0.0,0.0,0.0,0.0,0.0,0.0,0.0,0.0,0.0,0.0,0.0,0.0,0.0,0.0,0.0,0.0,0.0,0.0,0.0,0.0,0.0,0.0,0.0,0.0,0.0,0.0,0.0,0.0,0.0,0.0,0.0,0.0,0.0,0.0,0.0,0.0,0.0,0.0,0.0,0.0,0.0,0.0,0.0,0.0,0.0,0.0,0.0,0.0,0.0,0.0,0.0,0.0,0.0,0.0,0.0,0.0,0.0,0.0,0.0,0.0,0.0,0.0,0.0,0.0,0.0,0.0,0.0,0.0,0.0,0.0,0.0,0.0,0.0,0.0,0.0,0.0,0.0,0.0,0.0,0.0,0.0,0.0,0.0,0.0,0.0,0.0,0.0,0.0,0.0,0.0,0.0,0.0,0.0,0.0,0.0,0.0,0.0,0.0,0.0,0.0,0.0,0.0,0.0,-3.0216,-3.0216,-3.0216,-3.0216,-3.0216,-3.0216,-3.0216,-3.0216,-2.9749,-2.8724,0.0,0.0,0.0,0.0,0.0,0.0,0.0,0.0,0.0,0.0,0.0,0.0,0.0,0.0,0.0,0.0,0.0,0.0,0.0,0.0,0.0,0.0,0.0,0.0,0.0,0.0,0.0,0.0,0.0,0.0,0.0,0.0,0.0,0.0,0.0,0.0,0.0,0.0,0.0,0.0,0.0,0.0,0.0,0.0,0.0,0.0,0.0,0.0,0.0,0.0,0.0,0.0,0.0,0.0,0.0,0.0,0.0,0.0,0.0,0.0,0.0,0.0,0.0,0.0,0.0,0.0,0.0,0.0,0.0,0.0,0.0,0.0,0.0,0.0,0.0,0.0,0.0,0.0,0.0,0.0,0.0,0.0,0.0,0.0,0.0,0.0,0.0,0.0,0.0,0.0,0.0,0.0,0.0,0.0,0.0,0.0,0.0,0.0,0.0,0.0,0.0,0.0,-3.0216,-3.0216,-3.0216,-3.0216,-3.0216,-3.0216,-3.0216,-3.0216,-2.9658,-2.8549,0.0,0.0,0.0,0.0,0.0,0.0,0.0,0.0,0.0,0.0,0.0,0.0,0.0,0.0,0.0,0.0,0.0,0.0,0.0,0.0,0.0,0.0,0.0,0.0,0.0,0.0,0.0,0.0,0.0,0.0,0.0,0.0,0.0,0.0,0.0,0.0,0.0,0.0,0.0,0.0,0.0,0.0,0.0,0.0,0.0,0.0,0.0,0.0,0.0,0.0,0.0,0.0,0.0,0.0,0.0,0.0,0.0,0.0,0.0,0.0,0.0,0.0,0.0,0.0,0.0,0.0,0.0,0.0,0.0,0.0,0.0,0.0,0.0,0.0,0.0,0.0,0.0,0.0,0.0,0.0,0.0,0.0,0.0,0.0,0.0,0.0,0.0,0.0,0.0,0.0,0.0,0.0,0.0,0.0,0.0,0.0,0.0,0.0,0.0,0.0,0.0,0.0,-3.0216,-3.0216,-3.0216,-3.0216,-3.0216,-3.0216,-3.0216,-3.0216,-2.9566,-2.8081,0.0,0.0,0.0,0.0,0.0,0.0,0.0,0.0,0.0,0.0,0.0,0.0,0.0,0.0,0.0,0.0,0.0,0.0,0.0,0.0,0.0,0.0,0.0,0.0,0.0,0.0,0.0,0.0,0.0,0.0,0.0,0.0,0.0,0.0,0.0,0.0,0.0,0.0,0.0,0.0,0.0,0.0,0.0,0.0,0.0,0.0,0.0,0.0,0.0,0.0,0.0,0.0,0.0,0.0,0.0,0.0,0.0,0.0,0.0,0.0,-3.4659,0.0,0.0,0.0,0.0,0.0,0.0,0.0,0.0,0.0,0.0,0.0,0.0,0.0,0.0,0.0,0.0,0.0,0.0,0.0,0.0,0.0,0.0,0.0,0.0,0.0,0.0,0.0,0.0,0.0,0.0,0.0,0.0,0.0,0.0,0.0,0.0,0.0,0.0,0.0,0.0,0.0,-3.0216,-3.0216,-3.0216,-3.0216,-3.0216,-3.0216,-3.0216,-3.0216,-2.9566,-2.8081,-2.7683,0.0,0.0,0.0,0.0,0.0,0.0,0.0,0.0,0.0,0.0,0.0,0.0,0.0,0.0,0.0,0.0,0.0,0.0,0.0,0.0,0.0,0.0,0.0,0.0,0.0,0.0,0.0,0.0,0.0,0.0,0.0,0.0,0.0,0.0,0.0,0.0,0.0,0.0,0.0,0.0,0.0,0.0,0.0,0.0,0.0,0.0,0.0,0.0,0.0,0.0,0.0,0.0,0.0,0.0,0.0,0.0,0.0,0.0,0.0,0.0,-3.4554,0.0,0.0,0.0,0.0,0.0,0.0,0.0,0.0,0.0,0.0,0.0,0.0,0.0,0.0,0.0,0.0,0.0,0.0,0.0,0.0,0.0,0.0,0.0,0.0,0.0,0.0,0.0,0.0,0.0,0.0,0.0,0.0,0.0,0.0,0.0,0.0,0.0,0.0,0.0,0.0,-3.0216,-3.0216,-3.0216,-3.0216,-3.0216,-3.0216,-3.0216,-3.0216,-2.9658,-2.8456,-2.7977,0.0,0.0,0.0,0.0,0.0,0.0,0.0,0.0,0.0,0.0,0.0,0.0,0.0,0.0,0.0,0.0,0.0,0.0,0.0,0.0,0.0,0.0,0.0,0.0,0.0,0.0,0.0,0.0,0.0,0.0,0.0,0.0,0.0,0.0,0.0,0.0,0.0,0.0,0.0,0.0,0.0,0.0,0.0,0.0,0.0,0.0,0.0,0.0,0.0,0.0,0.0,0.0,0.0,0.0,-3.4397,-3.4397,-3.4397,-3.4397,-3.441,-3.4502,-3.4744,-3.5115,0.0,0.0,0.0,0.0,0.0,0.0,0.0,0.0,0.0,0.0,0.0,0.0,0.0,0.0,0.0,0.0,0.0,0.0,0.0,0.0,0.0,0.0,0.0,0.0,0.0,-3.0216,-3.0216,0.0,0.0,0.0,0.0,0.0,0.0,0.0,0.0,0.0,0.0,0.0,0.0,-3.0216,-3.0216,-3.0216,-3.0216,-3.0216,-3.0216,-3.0216,-3.0216,-2.9749,-2.862,-2.8164,-2.7326,0.0,0.0,0.0,0.0,0.0,0.0,0.0,0.0,0.0,0.0,0.0,0.0,0.0,0.0,0.0,0.0,0.0,0.0,0.0,0.0,0.0,0.0,0.0,0.0,0.0,0.0,0.0,0.0,0.0,0.0,0.0,0.0,-3.8457,-3.8941,0.0,0.0,0.0,0.0,0.0,0.0,0.0,0.0,0.0,0.0,0.0,0.0,0.0,0.0,-3.4397,-3.4397,-3.4397,-3.4397,-3.4397,-3.4397,-3.4397,-3.4397,-3.4397,-3.4424,-3.4946,0.0,-3.4323,-3.5522,0.0,0.0,0.0,0.0,0.0,0.0,0.0,0.0,0.0,0.0,0.0,0.0,0.0,0.0,0.0,0.0,0.0,0.0,0.0,0.0,0.0,0.0,-3.0216,-3.0216,-3.0216,-3.0216,0.0,-3.0216,-3.0216,-3.0216,0.0,0.0,0.0,0.0,0.0,0.0,0.0,0.0,-3.0216,-3.0216,-3.0216,-3.0216,-3.0216,-3.0216,-3.0216,-3.0216,-2.9463,-2.7872,-2.7683,-2.6628,-2.4421,-2.4992,0.0,0.0,0.0,0.0,0.0,0.0,0.0,0.0,0.0,0.0,0.0,0.0,0.0,0.0,0.0,0.0,0.0,0.0,0.0,0.0,0.0,0.0,0.0,0.0,0.0,0.0,0.0,0.0,0.0,-3.8811,-3.8797,-3.8649,-3.8055,-3.7309,0.0,0.0,0.0,0.0,0.0,0.0,0.0,0.0,0.0,-3.4397,-3.4397,-3.4397,-3.4397,-3.4397,-3.4397,-3.4397,-3.4397,-3.4397,-3.4397,-3.3979,-3.3823,-3.3849,-3.3982,-3.3769,-3.3551,-3.5276,-3.5925,-3.5712,0.0,0.0,0.0,0.0,0.0,-3.4787,-3.4028,0.0,0.0,0.0,0.0,0.0,0.0,0.0,0.0,0.0,0.0,0.0,0.0,0.0,0.0,-3.0216,-3.0216,-3.0216,-3.0216,-3.0216,-3.0216,0.0,-3.0216,-3.0216,-3.0216,0.0,0.0,0.0,0.0,0.0,-3.0216,-3.0216,-3.0216,-3.0216,-3.0216,-3.0216,-3.0216,-3.0216,-2.9646,-2.8341,-2.7872,-2.6924,-2.5304,-2.5285,-2.508,0.0,0.0,0.0,0.0,0.0,0.0,0.0,0.0,0.0,0.0,0.0,0.0,0.0,0.0,0.0,0.0,0.0,0.0,0.0,0.0,0.0,0.0,0.0,0.0,0.0,0.0,0.0,0.0,-3.8649,-3.8634,-3.8277,-3.781,-3.7323,0.0,0.0,0.0,0.0,0.0,0.0,-3.4397,-3.4397,-3.4397,-3.4397,-3.4397,-3.4397,-3.4397,-3.423,-3.423,-3.4397,-3.423,-3.423,-3.4397,-3.3894,-3.3556,-3.3436,-3.352,-3.3411,-3.3167,-3.491,-3.5456,-3.5271,-3.4872,-3.4409,-3.3854,-3.3656,-3.393,-3.4299,-3.3568,-3.3656,-3.4017,-3.3469,0.0,-3.3281,-3.3281,0.0,0.0,0.0,0.0,-3.0618,-3.0606,0.0,-3.0618,-3.0618,-3.0514,-3.0422,-3.0422,-3.0308,-3.0216,0.0,-3.0216,-3.0216,-3.0216,0.0,0.0,0.0,0.0,-3.0216,-3.0216,-3.0216,-3.0216,-3.0216,-3.0216,-3.0216,-3.0216,-3.0125,-2.9566,-2.8527,-2.7778,-2.6924,-2.58,-2.5771,-2.5567,-2.5187,0.0,0.0,0.0,0.0,0.0,0.0,0.0,0.0,0.0,0.0,0.0,0.0,0.0,0.0,0.0,0.0,0.0,0.0,0.0,0.0,0.0,0.0,0.0,0.0,0.0,0.0,0.0,0.0,0.0,-3.8127,-3.678,0.0,0.0,0.0,0.0,-3.4481,-3.4397,-3.4397,-3.4397,-3.4397,-3.4397,-3.4397,-3.4397,-3.4397,-3.4397,-3.3725,-3.3725,-3.4397,-3.3725,-3.381,-3.4397,-3.4397,-3.3979,-3.3462,-3.4452,-3.447,-3.387,-3.4539,-3.4605,-3.4483,-3.5271,-3.5475,-3.5367,-3.4593,-3.4385,-3.4299,-3.3568,-3.3281,-3.3381,-3.3281,-3.3281,-3.3281,-3.3281,-3.2891,0.0,0.0,-3.2076,-3.1685,-3.1662,-3.1674,-3.1685,-3.1685,-3.1329,-3.0973,-3.0973,-3.0572,-3.0216,0.0,-3.0216,-3.0216,-3.0216,0.0,-3.0216,-3.0216,-3.0216,-3.0216,-3.0216,-3.0216,-3.0216,-3.0216,-3.0216,-3.0216,-3.0216,-2.976,-2.9013,-2.7778,-2.7115,-2.6244,-2.4992,-2.5693,-2.6091,-2.5994,-2.6091,0.0,0.0,0.0,0.0,0.0,0.0,0.0,0.0,0.0,0.0,0.0,0.0,0.0,0.0,0.0,0.0,0.0,0.0,0.0,0.0,0.0,0.0,0.0,0.0,0.0,0.0,0.0,0.0,-3.7295,-3.636,0.0,-3.5669,-3.5196,-3.4716,-3.4397,-3.4397,-3.4397,-3.4397,-3.3979,-3.3979,-3.4397,-3.3979,-3.3979,-3.4397,-3.4147,-3.3979,-3.3725,-3.3484,-3.33,-3.3006,-3.2587,-3.2251,-3.2062,-3.2675,-3.277,-3.2641,-3.3417,-3.406,-3.4385,-3.4225,-3.4139,-3.4052,-3.3843,-3.3645,-3.3656,-3.3381,-3.3281,-3.3281,-3.3281,-3.3281,-3.3281,-3.3281,-3.2914,-3.2489,-3.2489,-3.2144,-3.1766,-3.1754,-3.1766,-3.1766,-3.1766,-3.1628,-3.149,-3.149,-3.1352,-3.1123,-3.079,-3.0445,-3.0216,-3.0216,-3.0216,-3.0216,-3.0216,-3.0216,-3.0216,-3.0216,-3.0216,-3.0216,-3.0216,-3.0216,-3.0216,-3.0216,-3.0034,-2.9474,-2.8456,-2.7694,-2.6829,-2.5693,-2.5489,-2.5723,-2.6517,-2.6801,-2.76,0.0,0.0,0.0,0.0,0.0,0.0,0.0,0.0,0.0,0.0,0.0,0.0,0.0,0.0,0.0,0.0,0.0,0.0,0.0,0.0,0.0,0.0,0.0,0.0,0.0,0.0,-3.6582,-3.688,-3.5963,-3.5345,-3.5669,-3.4868,-3.4397,-3.4397,-3.4397,-3.4314,-3.4063,-3.3894,-3.3823,-3.4063,-3.3641,-3.3654,-3.4063,-3.3797,-3.3445,-3.3031,-3.3031,-3.276,-3.2302,-3.1801,-3.1472,-3.1365,-3.1868,-3.2039,-3.1846,-3.2868,-3.3557,-3.4017,-3.3469,-3.3281,-3.3281,-3.3281,-3.3281,-3.3281,-3.3281,-3.3281,-3.3281,-3.3281,-3.3281,-3.3281,-3.3281,-3.2914,-3.2523,-3.2707,-3.2397,-3.2053,-3.2225,-3.2282,-3.2282,-3.2282,-3.2144,-3.2007,-3.2007,-3.1869,-3.1662,-3.1329,-3.0847,-3.0422,-3.025,-3.0216,-3.0216,-3.0216,-3.0216,-3.0216,-3.0216,-3.0216,-3.0216,-3.0216,-3.0216,-3.0216,-3.0216,-3.0034,-2.9577,-2.8839,-2.8081,-2.7388,-2.6697,-2.5762,-2.5859,-2.6953,-2.7282,-2.8005,-2.8925,0.0,0.0,0.0,0.0,0.0,0.0,0.0,0.0,0.0,0.0,0.0,0.0,0.0,0.0,0.0,0.0,0.0,0.0,0.0,0.0,0.0,0.0,0.0,-3.6724,-3.6201,-3.5976,-3.6724,-3.5413,-3.4716,-3.5588,-3.4868,-3.4397,-3.4397,-3.4397,-3.4147,-3.3398,-3.3979,-3.4063,-3.3398,-3.3398,-3.33,-3.3398,-3.2673,-3.2302,-3.2314,-3.2314,-3.2227,-3.2215,-3.2215,-3.1889,-3.1365,-3.2319,-3.2418,-3.1846,-3.2868,-3.3281,-3.3281,-3.3281,-3.3281,-3.3281,-3.3281,-3.3281,-3.3281,-3.3281,-3.3281,-3.3281,-3.3281,-3.3281,-3.3281,-3.3281,-3.2925,-3.2615,-3.3132,-3.2914,-3.2627,-3.3143,-3.3281,-3.3281,-3.3281,-3.2879,-3.25,-3.25,-3.2121,-3.1777,-3.1789,-3.1398,-3.0893,-3.0354,-3.0262,-3.0262,-3.025,-3.0239,0.0,-3.0216,-3.0216,-3.0216,-3.0216,-3.0216,-3.0216,-3.0125,-2.976,-2.9209,-2.8653,-2.8196,-2.7936,-2.7924,-2.6748,-2.6527,-2.7369,-2.7486,-2.7712,-2.8053,0.0,0.0,0.0,0.0,0.0,0.0,0.0,0.0,0.0,0.0,0.0,0.0,0.0,0.0,0.0,0.0,0.0,0.0,0.0,0.0,0.0,0.0,-3.5749,-3.5976,-3.5264,-3.4868,-3.5101,-3.4716,-3.4481,-3.4716,-3.4551,-3.423,-3.3725,-3.4147,-3.4147,-3.3398,-3.3104,-3.3018,-3.3398,-3.2438,-3.2077,-3.2575,-3.2401,-3.2052,-3.1548,-3.1548,-3.1282,-3.0734,-3.0734,-3.0656,-3.0545,-3.1576,-3.1933,-3.1846,-3.2868,-3.3281,-3.3281,-3.3281,-3.3281,-3.3281,-3.3281,-3.3281,-3.3281,-3.3281,-3.3281,-3.3281,-3.3281,-3.3281,-3.3281,-3.3281,-3.3178,-3.3097,-3.3247,-3.3178,-3.3097,-3.3247,-3.3281,-3.3281,-3.3281,-3.3178,-3.3063,-3.3063,-3.2948,-3.2741,-3.2363,-3.2179,-3.1915,-3.1398,-3.1329,-3.1215,-3.0847,0.0,0.0,-3.0262,-3.0216,-3.0216,-3.0216,-3.0216,-2.9932,-2.9187,-2.9002,-2.8387,-2.7278,-2.7016,-2.712,-2.7472,-2.7182,-2.7492,-2.8686,-2.9518,-2.9434,0.0,0.0,0.0,0.0,0.0,0.0,0.0,0.0,0.0,0.0,0.0,0.0,0.0,0.0,0.0,0.0,0.0,0.0,0.0,0.0,0.0,0.0,-3.5736,-3.5196,-3.5196,-3.4716,-3.4397,-3.4397,-3.4397,-3.4397,-3.4397,-3.4397,-3.423,-3.381,-3.3894,-3.3641,-3.2945,-3.2488,-3.2401,-3.2525,-3.1737,-3.1472,-3.1889,-3.1889,-3.1548,-3.0847,-3.1128,-3.0937,-3.0216,-3.0216,-3.0216,0.0,-3.1077,-3.1559,-3.1834,-3.2627,-3.3086,0.0,0.0,0.0,0.0,0.0,-3.3281,-3.3281,-3.3281,-3.3281,-3.3281,-3.3281,-3.3281,-3.3281,-3.3281,-3.3281,-3.3281,-3.3281,-3.3281,-3.3281,-3.3281,-3.3281,-3.3281,-3.3281,-3.3281,-3.3281,-3.3281,-3.3281,-3.3189,-3.2879,0.0,0.0,-3.2431,-3.2041,-3.1662,-3.1364,-3.1329,-3.1215,0.0,-3.087,-3.087,-3.087,-3.087,-3.0673,-3.0008,-2.9514,0.0,0.0,0.0,-2.6891,-2.6861,-2.6787,0.0,0.0,0.0,-2.8774,0.0,0.0,0.0,0.0,-2.8232,-2.8542,0.0,0.0,0.0,0.0,0.0,0.0,0.0,0.0,0.0,0.0,0.0,0.0,0.0,0.0,0.0,0.0,-3.495,-3.4397,-3.4397,-3.4397,-3.4397,-3.4397,-3.4397,-3.4397,-3.4397,-3.4397,-3.4314,-3.4134,-3.3725,-3.3031,-3.2227,0.0,0.0,0.0,0.0,-3.1217,-3.1217,-3.1217,-3.0883,-3.0308,-3.0941,-3.0965,-3.0388,-3.0388,-3.0388,-3.0422,-3.095,-3.1433,-3.1892,-3.2374,-3.2856,-3.3281,-3.3281,-3.3281,-3.3281,-3.3281,-3.3281,0.0,0.0,0.0,0.0,-3.3281,-3.3281,-3.3281,-3.3281,-3.3281,-3.3281,-3.3281,-3.3281,-3.3281,-3.3281,-3.3281,-3.3281,-3.3281,-3.3281,-3.3281,-3.3281,-3.3281,-3.3281,-3.3281,-3.3281,-3.3281,-3.3281,-3.2535,-3.1915,-3.1834,-3.1834,0.0,-3.1777,-3.1766,-3.1766,-3.1766,0.0,0.0,-3.167,-3.0652,-3.0274,-3.0741,-2.8669,-2.7202,-2.6511,-2.657,-2.7106,-2.8237,-2.7097,-2.7168,-2.8688,-2.7931,-2.7599,-2.7599,-2.8774,-2.8349,0.0,0.0,0.0,0.0,0.0,0.0,0.0,0.0,0.0,0.0,0.0,0.0,0.0,0.0,0.0,-3.5588,-3.495,-3.4397,-3.4397,-3.4397,-3.4397,-3.4397,-3.4397,-3.4397,-3.4397,-3.4397,-3.3966,-3.2821,-3.3116,-3.2871,-3.156,-3.1472,0.0,-3.1306,-3.0758,-3.0397,-3.0397,-3.0397,-3.0525,-3.0859,0.0,0.0,-3.1433,-3.1456,-3.1467,-3.149,-3.1984,-3.2259,-3.2386,-3.2914,-3.3189,-3.3281,-3.3281,-3.3281,-3.3281,-3.3281,-3.3281,-3.3281,-3.3281,-3.3281,-3.3281,-3.3281,-3.3281,-3.3281,-3.3281,-3.3281,0.0,-3.3281,-3.3281,-3.3281,-3.3281,-3.3281,-3.3281,-3.3281,-3.3281,-3.3281,-3.3281,-3.3281,-3.3281,-3.3281,-3.3281,-3.3281,-3.3281,-3.312,-3.2845,-3.2408,-3.2351,-3.2202,-3.1789,-3.1743,-3.1743,-3.1766,-3.1766,-3.1467,-3.0566,-3.0263,-2.9925,-2.9387,-2.9157,-2.884,-2.8229,-2.8926,-2.9408,-2.9651,-2.8648,-2.8359,-2.8688,-2.8581,-2.8475,-2.8465,-2.8455,-2.8019,0.0,0.0,0.0,0.0,0.0,0.0,0.0,0.0,0.0,0.0,0.0,-3.6281,0.0,0.0,-3.5032,-3.5032,-3.4716,-3.4397,-3.4397,-3.4397,-3.4397,-3.4397,-3.4397,-3.4397,-3.4397,-3.4063,-3.3641,-3.2932,-3.2513,-3.2001,-3.1306,-3.0937,-3.0886,-3.1155,-3.0801,-3.0732,-3.0996,-3.0996,-3.1123,-3.1375,-3.1387,-3.1513,-3.1754,-3.1766,-3.1766,-3.1777,-3.2018,-3.2259,-3.2523,-3.3063,-3.3281,-3.3281,-3.3281,-3.3281,-3.3281,-3.3281,-3.3281,-3.3281,-3.3281,-3.3281,-3.3281,-3.3281,-3.3281,-3.3281,-3.3281,-3.3281,-3.3281,-3.3281,-3.3281,-3.3281,-3.3281,-3.3281,-3.3281,-3.3281,-3.3281,-3.3281,-3.3281,-3.3281,-3.3281,-3.3281,-3.3281,-3.3281,-3.3281,-3.3281,-3.3189,-3.2925,-3.2879,-3.2787,-3.2546,-3.2512,-3.2512,-3.2523,-3.2523,-3.2316,-3.1802,-3.1703,-3.0985,-2.9353,-2.9683,-2.9618,-2.9102,-2.8794,-2.9122,-2.9994,-2.9122,-2.89,-2.9343,-2.9343,-2.9122,-2.8688,-2.8572,-2.8359,0.0,0.0,0.0,0.0,0.0,0.0,0.0,0.0,-3.7553,-3.7049,-3.6646,-3.6188,-3.5588,-3.5426,-3.5196,-3.4481,-3.4397,-3.4397,-3.4397,-3.4502,-3.4567,-3.4567,-3.4463,-3.4397,-3.4397,-3.381,-3.3436,-3.3538,-3.2235,-3.1496,-3.1603,-3.088,-3.0709,-3.1146,-3.1157,-3.1352,-3.1766,-3.1766,-3.1812,-3.188,-3.1892,-3.1961,-3.2064,-3.2064,-3.2064,-3.2064,-3.2064,-3.2282,-3.2673,-3.3097,-3.3281,-3.3281,-3.3281,-3.3281,-3.3281,-3.3281,-3.3281,-3.3281,-3.3281,-3.3281,-3.3281,-3.3281,-3.3281,-3.3281,-3.3281,-3.3281,-3.3281,-3.3281,-3.3281,-3.3281,-3.3281,-3.3281,-3.3281,-3.3281,-3.3281,-3.3281,-3.3281,-3.3281,-3.3281,-3.3281,-3.3281,-3.3281,-3.3281,-3.3281,-3.3281,-3.3281,-3.3281,-3.3281,-3.3281,-3.3281,-3.3281,-3.3281,-3.3281,-3.3281,-3.3281,-3.3281,-3.2331,-3.0214,-3.0421,-3.0442,-2.9733,-2.8668,-2.8678,-2.9994,-2.9122,-2.9016,-2.9774,-2.9774,-2.9343,-2.8688,-2.8688,-2.8475,-3.7252,-3.7246,-3.8037,-3.8037,-3.8202,-3.8277,0.0,0.0,-3.6136,-3.6802,-3.5722,-3.4634,-3.4551,-3.4551,-3.4481,-3.4397,-3.4397,-3.4397,-3.4397,-3.4855,-3.5195,-3.5195,-3.4724,-3.4397,-3.4397,-3.381,-3.3589,-3.4058,-3.2759,-3.2174,-3.2661,-3.1937,-3.1593,-3.1651,-3.1674,-3.1708,-3.1766,-3.1766,-3.1984,-3.2397,-3.2408,-3.265,-3.312,-3.312,-3.312,-3.312,-3.312,-3.3143,-3.3201,-3.3258,-3.3281,-3.3281,-3.3281,-3.3281,-3.3281,-3.3281,-3.3281,-3.3281,-3.3281,-3.3281,-3.3281,-3.3281,-3.3281,-3.3281,-3.3281,-3.3281,-3.3281,-3.3281,-3.3281,-3.3281,-3.3281,-3.3281,-3.3281,-3.3281,-3.3281,-3.3281,-3.3281,-3.3281,-3.3281,-3.3281,-3.3281,-3.3281,-3.3281,-3.3281,-3.3281,-3.3281,-3.3281,-3.3281,-3.3281,-3.3281,-3.3281,-3.3281,-3.3281,-3.3281,-3.3281,-3.3281,-3.2958,-3.2106,-3.2106,-3.1699,-3.0681,-3.0474,-3.0276,-2.9994,-2.9122,-2.8794,-2.8804,-2.8804,-2.8804,-2.8688,-2.8688,-2.7824,-3.7161,-3.7309,-3.8052,-3.8052,-3.8501,-3.8649,-3.7706,-3.6908,-3.6346,-3.6201,-3.5264,-3.4551,-3.5032,-3.5007,-3.492,0.0,-3.5195,-3.5391,-3.5391,-3.5613,-3.577,-3.577,-3.5547,-3.5219,-3.4786,-3.3731,-3.3113,-3.3411,-3.2426,-3.1984,-3.2217,-3.1945,-3.188,-3.2167,-3.2179,-3.234,-3.265,-3.265,-3.2753,-3.2948,-3.2948,-3.3063,-3.3281,-3.3281,-3.3281,-3.3281,-3.3281,-3.3281,-3.3281,-3.3281,-3.3281,-3.3281,-3.3281,-3.3281,-3.3281,-3.3281,-3.3281,-3.3281,-3.3281,-3.3281,-3.3281,-3.3281,-3.3281,-3.3281,-3.3281,-3.3281,-3.3281,-3.3281,-3.3281,-3.3281,-3.3281,-3.3281,-3.3281,-3.3281,-3.3281,-3.3281,-3.3281,-3.3281,-3.3281,-3.3281,-3.3281,-3.3281,-3.3281,-3.3281,-3.3281,-3.3281,-3.3281,-3.3281,-3.3281,-3.3281,-3.3281,-3.3281,-3.3281,-3.3281,-3.3281,-3.3281,-3.317,-3.2958,-3.2622,-3.2015,-3.1311,-3.1002,-3.0588,-2.9994,-2.9669,-2.9448,-2.9448,-2.891,-2.8688,-2.8688,-2.8145,-2.7276,-3.7175,-3.7539,-3.8202,-3.8202,-3.8664,-3.8723,-3.7525,-3.7049,-3.6724,-3.6122,-3.5466,-3.512,-3.5519,-3.5526,-3.5521,-3.5521,-3.5848,-3.6109,-3.6109,-3.624,-3.6358,-3.6358,-3.6311,-3.5955,-3.5244,-3.3949,-3.3284,-3.3627,-3.2617,-3.2114,-3.2541,-3.2275,-3.234,-3.2695,-3.2707,-3.2891,-3.3281,-3.3281,-3.3281,-3.3281,-3.3281,-3.3281,-3.3281,-3.3281,-3.3281,-3.3281,-3.3281,-3.3281,-3.3281,-3.3281,-3.3281,-3.3281,-3.3281,-3.3281,-3.3281,-3.3281,-3.3281,-3.3281,-3.3281,-3.3281,-3.3281,-3.3281,-3.3281,-3.3281,-3.3281,-3.3281,-3.3281,-3.3281,-3.3281,-3.3281,-3.3281,-3.3281,-3.3281,-3.3281,-3.3281,-3.3281,-3.3281,-3.3281,-3.3281,-3.3281,-3.3281,-3.3281,-3.3281,-3.3281,-3.3281,-3.3281,-3.3281,-3.3281,-3.3281,-3.3281,-3.3281,-3.3281,-3.3281,-3.3281,-3.3281,-3.3281,-3.3281,-3.3281,-3.2857,-3.2432,-3.1823,-3.13,-3.0692,-2.9879,-2.9994,-2.9774,-2.9237,-2.891,-2.8581,-2.8359,-2.7492,-2.6735,-3.6724,0.0,-3.8202,-3.8202,-3.8202,-3.8202,-3.8202,-3.7539,-3.688,-3.688,-3.667,-3.6206,-3.543,-3.5717,-3.6083,-3.6083,-3.6096,-3.6109,-3.6109,-3.6606,-3.6972,-3.6972,-3.6803,-3.6377,0.0,-3.4551,-3.4421,-3.5717,-3.3791,-3.3052,-3.4216,-3.3598,-3.3247,-3.3258,-3.3258,-3.3269,-3.3281,-3.3281,-3.3281,-3.3281,-3.3281,-3.3281,-3.3281,-3.3281,-3.3281,-3.3281,-3.3281,-3.3281,-3.3281,-3.3281,-3.3281,-3.3281,-3.3281,-3.3281,-3.3281,-3.3281,-3.3281,-3.3281,-3.3281,-3.3281,-3.3281,-3.3281,-3.3281,-3.3281,-3.3281,-3.3281,-3.3281,-3.3281,-3.3281,-3.3281,-3.3281,-3.3281,-3.3281,-3.3281,-3.3281,-3.3281,-3.3281,-3.3281,-3.3281,-3.3281,-3.3281,-3.3281,-3.3281,-3.3281,-3.3281,-3.3281,-3.3281,-3.3281,-3.3281,-3.3281,-3.3281,-3.3281,-3.3281,-3.3281,-3.3281,-3.3281,-3.3281,-3.3281,-3.3281,-3.2958,-3.2409,-3.1812,-3.0888,-2.9533,-2.9879,-2.9132,-2.7492,-2.8252,-2.8252,-2.7384,-2.6518,-2.6091,0.0,0.0,-3.8202,-3.8202,-3.859,-3.8885,-3.8352,-3.7947,-3.7897,-3.8299,-3.7362,-3.6756,-3.7483,-3.715,-3.6698,-3.6698,-3.7037,-3.7299,-3.7299,-3.7469,-3.7599,-3.7599,-3.7086,0.0,0.0,0.0,0.0,-3.416,-3.3499,-3.3185,-3.3645,-3.3469,-3.3281,-3.3281,-3.3281,-3.3281,-3.3281,-3.3281,-3.3281,-3.3281,-3.3281,-3.3281,-3.3281,-3.3281,-3.3281,-3.3281,-3.3281,-3.3281,-3.3281,-3.3281,-3.3281,-3.3281,-3.3281,-3.3281,-3.3281,-3.3281,-3.3281,-3.3281,-3.3281,-3.3281,-3.3281,-3.3281,-3.3281,-3.3281,-3.3281,-3.3281,-3.3281,-3.3281,-3.3281,-3.3281,-3.3281,-3.3281,-3.3281,-3.3281,-3.3281,-3.3281,-3.3281,-3.3281,-3.3281,-3.3281,-3.3281,-3.3281,-3.3281,-3.3281,-3.3281,-3.3281,-3.3281,-3.3281,-3.3281,-3.3281,-3.3281,-3.3281,-3.3281,-3.3281,-3.3281,-3.3281,-3.3281,-3.3281,-3.3281,-3.3058,-3.242,-3.1924,-3.1208,-3.037,-2.9544,-2.8804,-2.8252,-2.7384,-2.6844,-2.6518,-2.567,-2.5247,0.0,-3.8008,-3.8664,-3.8664,-3.9031,-3.9339,-3.9032,-3.9002,-3.9028,-3.8995,-3.8246,-3.7716,-3.8114,-3.7678,-3.7325,-3.7325,-3.7652,-3.79,-3.79,-3.79,-3.79,-3.79,-3.7201,-3.6615,0.0,0.0,0.0,-3.3744,-3.3469,-3.3281,-3.3281,-3.3281,-3.3281,-3.3281,-3.3281,-3.3281,-3.3281,-3.3281,-3.3281,-3.3281,-3.3281,-3.3281,-3.3281,-3.3281,-3.3281,-3.3281,-3.3281,-3.3281,-3.3281,-3.3281,-3.3384,-3.3545,-3.3545,-3.366,-3.3832,-3.3832,-3.3832,-3.3775,-3.3407,-3.3281,-3.3281,-3.3281,-3.3281,-3.3281,-3.3281,-3.3281,-3.3281,-3.3281,-3.3281,-3.3281,-3.3281,-3.3281,-3.3281,-3.3281,-3.3281,-3.3281,-3.3281,-3.3281,-3.3281,-3.3281,-3.3281,-3.3281,-3.3281,-3.3281,-3.3281,-3.3281,-3.3281,-3.3281,-3.3281,-3.3281,-3.3281,-3.3281,-3.3281,-3.3281,-3.3281,-3.3281,-3.3281,-3.3281,-3.3281,-3.317,-3.2734,-3.1699,-3.0867,-3.012,-2.888,-2.7941,-2.7295,-2.6527,-2.5981,-2.5661,-2.5026,-2.4821,-3.8037,-3.8811,-3.9424,-3.9424,-3.9454,-3.9634,-4.0247,-4.0427,-4.0157,-3.9098,-3.9269,-3.91,0.0,0.0,-3.79,-3.79,-3.79,-3.79,-3.79,-3.79,-3.79,0.0,0.0,0.0,0.0,0.0,0.0,-3.4385,0.0,-3.3281,-3.3281,-3.3281,-3.3281,-3.3281,-3.3281,-3.3281,-3.3281,-3.3304,-3.3327,-3.3327,-3.335,-3.3361,-3.3361,-3.3361,-3.3361,-3.3361,-3.3361,-3.3361,-3.3361,-3.3361,-3.3625,-3.4039,-3.4039,-3.4349,-3.4796,-3.4796,-3.4796,-3.4659,-3.3694,-3.3361,-3.3361,-3.3361,-3.3361,-3.3361,-3.3361,-3.3361,-3.3361,-3.3361,-3.3361,-3.3361,-3.3327,-3.3327,-3.3315,-3.3292,-3.3281,-3.3281,-3.3281,-3.3281,-3.3281,-3.3281,-3.3281,-3.3281,-3.3281,-3.3281,-3.3281,-3.3281,-3.3281,-3.3281,-3.3281,-3.3281,-3.3281,-3.3281,-3.3281,-3.3281,-3.3281,-3.3281,-3.3281,-3.3281,-3.3281,-3.3281,-3.3281,-3.137,-2.988,-2.9126,-2.7902,-2.6536,-2.4821,-2.567,-2.556,-2.4821,-2.4821,-2.4821,-3.8885,-3.9265,-3.9424,-3.9424,-3.9783,-4.0187,-4.0367,-4.0786,-4.0991,-4.0575,-3.9992,-3.9395,0.0,0.0,0.0,-3.79,-3.79,0.0,-3.79,-3.79,0.0,-3.7108,0.0,-3.5559,-3.4775,-3.4028,0.0,0.0,-3.3369,-3.3281,-3.3281,-3.3281,-3.3281,-3.3281,-3.3281,-3.3281,-3.3281,-3.3648,-3.3821,-3.3821,-3.4222,-3.4418,-3.4418,-3.4418,-3.4418,-3.4418,-3.4418,-3.4418,-3.4418,-3.4418,-3.4486,-3.4601,-3.4601,-3.4682,-3.4796,-3.4796,-3.4796,-3.4762,-3.4509,-3.4418,-3.4418,-3.4418,-3.4418,-3.4418,-3.4418,-3.4418,-3.4418,-3.4418,-3.4418,-3.4326,-3.3924,-3.3821,-3.3729,-3.3373,-3.3281,-3.3281,-3.3281,-3.3281,-3.3281,-3.3281,-3.3281,-3.3281,-3.3281,-3.3281,-3.3281,-3.3281,-3.3281,-3.3281,-3.3281,-3.3281,-3.3281,-3.3281,-3.3281,-3.3281,-3.3281,-3.3281,-3.3281,-3.3281,-3.3281,-3.3281,-3.3281,-3.137,-3.0214,-2.9995,-2.7678,-2.62,-2.5771,-2.5348,-2.5034,-2.4821,-2.4821,-2.4821,-3.9683,-4.0053,-4.0277,-4.0277,-4.0561,-4.083,-4.0719,-4.0967,-4.1017,-4.0376,-3.9829,-3.9253,-3.8738,-3.8226,0.0,0.0,0.0,0.0,-3.79,-3.79,-3.7598,0.0,-3.6048,0.0,-3.4483,-3.3744,-3.3281,0.0,-3.3281,-3.3281,-3.3281,-3.3281,-3.3281,-3.3281,-3.3488,-3.3706,-3.3947,-3.4211,-3.4349,-3.436,-3.4659,-3.4796,-3.4796,-3.4796,-3.4796,-3.4796,0.0,-3.4796,-3.4796,-3.4796,-3.4923,-3.5118,-3.5118,-3.5256,-3.5451,-3.5451,-3.5451,-3.5451,-3.5451,-3.5451,-3.537,-3.4934,-3.4796,-3.4796,-3.4796,-3.4796,-3.4796,-3.4796,-3.4796,-3.4727,-3.4429,-3.4349,-3.428,-3.4016,-3.3947,-3.3947,-3.3947,-3.3947,-3.3947,-3.3947,-3.3947,-3.3947,-3.3947,-3.3947,-3.3947,-3.3947,-3.3947,-3.3947,-3.3947,-3.3556,-3.3281,-3.3281,-3.3281,-3.3281,-3.3281,-3.3281,-3.3281,-3.3281,-3.3281,-3.3281,-3.3281,-3.1051,-2.9776,-2.9776,-2.6933,-2.556,-2.556,-2.5026,-2.4821,-2.4821,-2.4821,-2.4821,-4.0517,-4.095,-4.1384,-4.1384,-4.1444,-4.1424,-4.1077,-4.1105,-4.0735,-3.9453,-3.921,-3.8957,-3.807,-3.79,-3.79,-3.79,0.0,-3.79,-3.79,-3.7808,-3.7413,-3.6628,-3.5858,-3.5174,-3.4299,-3.3656,-3.3281,-3.3281,-3.3281,-3.3281,-3.3281,-3.3281,-3.3315,-3.3373,-3.3855,-3.4326,-3.4796,-3.4865,-3.4888,-3.4888,-3.4969,-3.5003,-3.5003,-3.5003,-3.5003,-3.5003,0.0,0.0,-3.5003,-3.5003,-3.5244,-3.5623,-3.5623,-3.5887,-3.6266,-3.6266,-3.6266,-3.6266,-3.6266,-3.6266,-3.6128,-3.5267,-3.5003,-3.5003,-3.5003,-3.5003,-3.5003,-3.5003,-3.5003,-3.498,-3.4911,-3.4888,-3.4877,-3.4587,-3.4692,-3.4796,-3.4576,-3.4692,-3.4796,-3.4796,-3.4796,-3.4796,-3.4796,-3.4796,-3.4796,-3.4796,-3.4796,-3.4796,-3.4796,-3.4027,-3.3453,-3.3384,-3.3373,-3.3361,-3.3292,-3.3281,-3.3281,-3.3281,-3.3281,-3.3281,-3.3069,-3.0607,-2.9126,-2.881,-2.64,-2.5034,-2.4821,-2.4821,-2.4821,-2.4821,-2.4821,-2.4821,-4.1235,-4.1294,-4.1384,-4.1384,-4.1788,-4.1974,-4.1179,-4.1453,0.0,-3.9522,-3.921,-3.8957,-3.807,-3.79,-3.79,-3.79,-3.79,-3.79,-3.79,-3.7307,-3.6628,0.0,-3.5078,-3.4299,-3.3557,-3.3381,0.0,0.0,0.0,-3.3281,-3.3281,-3.3281,-3.3465,-3.3866,-3.4383,-3.4705,-3.4796,-3.5198,-3.5393,-3.5393,-3.5818,-3.6013,-3.6013,-3.6013,-3.6013,-3.6013,0.0,0.0,-3.6013,-3.6013,-3.6059,-3.614,-3.614,-3.6197,-3.6266,-3.6266,-3.6266,-3.6266,-3.6266,-3.6266,-3.6243,-3.6071,-3.6013,-3.6013,-3.6013,-3.6013,-3.6013,-3.6013,-3.6013,-3.5921,-3.5497,-3.5393,-3.5066,-3.3553,-3.4016,-3.4471,-3.3453,-3.4016,-3.4796,-3.4796,-3.4796,-3.4796,-3.4796,-3.4796,-3.4796,-3.4796,-3.4796,-3.4796,-3.4796,-3.4647,-3.4372,-3.3924,-3.3878,-3.3717,-3.3315,-3.3281,-3.3281,-3.3281,-3.3281,-3.2857,-3.1891,-3.1154,-2.9786,-2.7688,-2.6933,-2.5981,-2.4821,-2.4821,-2.4821,-2.4821,-2.4821,-2.4821,-4.1983,-4.2147,-4.2402,-4.2402,-4.2641,-4.252,-4.1101,0.0,0.0,-3.8895,-3.8562,-3.8395,-3.7992,-3.79,0.0,-3.79,-3.79,-3.79,-3.79,-3.7611,-3.6922,-3.5763,-3.5271,-3.4605,0.0,0.0,0.0,0.0,0.0,0.0,-3.366,-3.3924,-3.4291,-3.4773,-3.5037,-3.5301,-3.5566,-3.5795,-3.591,-3.591,-3.6162,-3.6266,-3.6266,-3.6266,-3.6266,-3.6266,-3.6266,0.0,-3.6266,-3.6266,-3.6266,-3.6266,-3.6266,-3.6266,-3.6266,-3.6266,-3.6266,-3.6266,-3.6266,-3.6266,-3.6266,-3.6266,-3.6266,-3.6266,-3.6266,-3.6266,-3.6266,-3.6266,-3.5817,-3.5322,-3.5087,-3.445,-3.3812,-3.2912,-3.32,-3.354,-3.2859,-3.32,-3.3661,-3.3661,-3.3661,-3.3661,-3.3661,-3.4228,-3.4456,-3.377,-3.4228,-3.4683,-3.4683,-3.4683,-3.4617,-3.4394,-3.3204,-3.2895,-3.3982,-3.3514,-3.3411,-3.4073,-3.4073,-3.3413,-3.2071,-3.1093,-2.9707,-2.7697,-2.6617,-2.5652,-2.5017,-2.4923,-2.4924,-2.5104,-2.5104,-2.5215,-4.2701,-4.294,-4.3329,-4.3329,-4.3329,-4.282,-4.1014,-4.0603,0.0,-3.8239,-3.79,-3.79,-3.79,-3.79,-3.79,0.0,-3.79,-3.79,-3.79,-3.7703,-3.7121,0.0,-3.5463,0.0,-3.3481,0.0,0.0,0.0,0.0,0.0,-3.4176,-3.467,-3.5129,-3.5508,-3.5623,-3.5864,-3.6266,-3.6266,-3.6266,-3.6266,-3.6266,-3.6266,-3.6266,-3.6266,-3.6266,-3.6266,-3.6266,0.0,0.0,-3.6266,-3.6266,-3.6266,-3.6266,-3.6266,-3.6266,-3.6266,-3.6266,-3.6266,-3.6266,-3.6266,-3.6266,-3.6266,-3.6266,-3.6266,-3.6266,-3.6266,-3.6277,-3.5938,-3.5256,-3.448,-3.4123,-3.3314,-3.2613,-3.2613,-3.2385,-3.2281,-3.2499,-3.2613,-3.2613,-3.2613,-3.2613,-3.2613,-3.2613,-3.3427,-3.3776,-3.2727,-3.3427,-3.4123,-3.4123,-3.3909,-3.3842,-3.4314,-3.2685,-3.2242,-3.3922,-3.3123,-3.2909,-3.391,-3.4016,-3.3298,-3.1721,-3.0815,-2.9577,-2.7748,-2.6555,-2.5798,-2.5473,-2.5267,-2.5319,-2.5489,-2.5489,-2.5652,-4.3254,-4.3284,-4.3329,-4.3329,-4.3329,-4.282,-4.1014,0.0,-4.01,-3.8239,-3.79,-3.79,-3.79,-3.79,-3.79,-3.79,-3.79,-3.79,-3.79,-3.7307,-3.6521,-3.5667,0.0,0.0,-3.3381,0.0,0.0,0.0,0.0,0.0,0.0,-3.5187,-3.5474,-3.552,-3.5956,-3.622,-3.6266,-3.6266,-3.6266,-3.6266,-3.6266,-3.6266,-3.6266,-3.6266,-3.6266,-3.6266,0.0,0.0,0.0,-3.6266,-3.6266,-3.6266,-3.6266,-3.6266,-3.6266,-3.6266,-3.6266,-3.6266,-3.6266,-3.6266,-3.6266,-3.6266,-3.6266,-3.6266,-3.6266,-3.6266,-3.6048,-3.4925,-3.4591,-3.4235,-3.3077,-3.2727,-3.2613,-3.2613,-3.1717,-3.1275,-3.2395,-3.2613,-3.2613,-3.2613,-3.2613,-3.2613,-3.2613,-3.2727,-3.2727,-3.2613,-3.2727,-3.2727,-3.2727,-3.1842,-3.1582,-3.2726,-3.324,-3.2921,-3.1506,-3.1356,-3.1356,-3.1464,-3.1475,-3.0908,-2.9675,-3.0539,-2.9867,-2.7428,-2.8183,-2.7835,-2.6275,-2.6275,-2.6071,-2.5883,-2.5883,-2.5908,-4.3329,-4.3329,-4.3329,-4.3329,-4.2915,-4.2155,-4.0859,0.0,-3.9387,-3.8161,-3.79,-3.79,-3.79,-3.79,-3.79,-3.79,-3.79,0.0,-3.79,-3.7611,-3.7108,-3.6332,-3.5559,0.0,0.0,0.0,0.0,0.0,0.0,0.0,0.0,-3.5864,-3.5967,-3.5967,-3.6162,-3.6266,-3.6266,-3.6266,-3.6266,-3.6266,-3.6266,-3.6266,-3.6266,-3.6266,-3.6266,-3.6266,0.0,0.0,0.0,-3.6266,-3.6266,-3.6266,-3.6266,-3.6266,-3.6266,-3.6266,-3.6266,-3.6266,-3.6266,-3.6266,-3.6266,-3.6266,-3.6266,-3.6266,-3.6266,-3.5817,-3.5146,-3.4591,-3.3448,-3.2187,-3.1612,-3.1033,-3.0461,-3.0461,-3.0128,-2.9903,-3.0344,-3.0461,-3.0461,-3.0461,-3.0461,-3.0461,-3.0461,-3.1033,-3.1265,-3.0577,-3.1033,-3.1496,-3.1496,-3.1043,-3.0937,-3.1496,-3.1106,-3.1147,-3.1973,-3.1297,-3.1184,-3.1952,-3.1952,-3.1391,-2.9912,-3.0343,-2.9672,-2.766,-2.7642,-2.7404,-2.6734,-2.6273,-2.6287,-2.6511,-2.6385,-2.6506,-4.3344,-4.3423,-4.3423,-4.3423,-4.2739,-4.1811,0.0,0.0,-3.8957,-3.807,-3.79,-3.79,-3.79,-3.79,-3.79,-3.79,-3.79,-3.7808,-3.7611,-3.7703,-3.7505,0.0,0.0,0.0,0.0,0.0,0.0,0.0,0.0,0.0,0.0,-3.6266,-3.6266,-3.6266,-3.6266,-3.6266,-3.6266,-3.6266,-3.6266,-3.6266,-3.6266,-3.6266,-3.6266,-3.6266,-3.6266,-3.6266,0.0,0.0,0.0,-3.6266,-3.6266,-3.6266,-3.6266,-3.6266,-3.6266,-3.6266,-3.6266,-3.6266,-3.6266,-3.6266,-3.6266,-3.6266,-3.6048,-3.5817,-3.5817,-3.5146,-3.4368,-3.3561,-3.1852,-3.0255,-3.0255,-2.9677,-2.8984,-2.8984,-2.8984,-2.8984,-2.8984,-2.8984,-2.8984,-2.8984,-2.8984,-2.8984,-2.8984,-2.9677,-3.002,-2.9094,-2.9677,-3.0255,-3.0255,-3.0255,-3.0255,-3.0255,-2.9558,-2.9667,-3.1371,-3.081,-3.0577,-3.1486,-3.1592,-3.1001,-2.9911,-2.9901,-2.9316,-2.8132,-2.7785,-2.7437,-2.7329,-2.6854,-2.6759,-2.7138,-2.6781,-2.691,-4.3344,-4.369,-4.369,-4.369,-4.2981,-4.2029,0.0,-3.9899,-3.8957,-3.807,-3.79,-3.79,-3.79,-3.79,-3.79,-3.79,-3.79,-3.7611,-3.6815,-3.7413,-3.732,0.0,0.0,0.0,0.0,0.0,0.0,0.0,0.0,0.0,0.0,-3.6266,-3.6266,-3.6266,-3.6266,-3.6266,-3.6266,-3.6266,-3.6266,-3.6266,-3.6266,-3.6266,-3.6266,-3.6266,-3.6266,0.0,0.0,0.0,0.0,-3.6266,-3.6266,-3.6266,-3.6266,-3.6266,-3.6266,-3.6266,-3.6266,-3.6266,-3.6266,-3.6266,-3.6266,-3.6266,-3.5488,-3.448,-3.448,-3.448,-3.4022,-3.1506,-3.002,-2.8984,-2.8984,-2.8984,-2.8984,-2.8984,-2.8984,-2.8984,-2.8984,-2.8984,-2.8984,-2.8984,-2.8984,-2.8984,-2.8984,-2.8984,-2.8984,-2.8984,-2.8984,-2.8984,-2.8984,-2.8984,-2.8984,-2.8984,-2.8984,-2.8984,-2.8984,-2.8984,-2.8975,-2.8984,-2.8984,-2.8984,-2.8975,-2.8975,-2.8975,-2.8975,-2.8966,-2.8856,-2.8507,-2.8131,-2.7762,-2.7513,-2.7177,-2.7297,-4.1449,-4.1547,-4.1547,-4.1547,-4.0845,-4.0059,-3.9724,-3.897,-3.8226,-3.7992,-3.79,-3.79,-3.79,-3.79,-3.79,-3.79,-3.7413,-3.7214,0.0,0.0,0.0,-3.6332,0.0,0.0,0.0,0.0,0.0,0.0,0.0,0.0,0.0,-3.6266,-3.6266,-3.6266,-3.6266,-3.6266,-3.6266,-3.6266,-3.6266,-3.6266,-3.6266,-3.6266,-3.6266,-3.6266,0.0,0.0,0.0,0.0,0.0,-3.6266,-3.6266,-3.6266,-3.6266,-3.6266,-3.6266,-3.6266,-3.6266,-3.6266,-3.5817,-3.5927,-3.6048,-3.4814,-3.448,-3.4134,-3.254,-3.1967,-3.1622,-3.0011,-2.9331,-2.8984,-2.8984,-2.8984,-2.8984,-2.8984,-2.8984,-2.8984,-2.8984,-2.8984,-2.8984,-2.8984,-2.8984,-2.8984,-2.8984,-2.8984,-2.8984,-2.8984,-2.8984,-2.8984,-2.8984,-2.8984,-2.8984,-2.8984,-2.8984,-2.8984,-2.8984,-2.8984,-2.8984,-2.8984,-2.8984,-2.8984,-2.8984,-2.8984,-2.8984,-2.8984,-2.8498,-2.8259,-2.8148,-2.7668,-2.7418,-2.7521,-2.7659,-2.7908,-4.0504,-4.0746,-4.0746,-4.0746,-3.9972,0.0,-3.9197,-3.8562,-3.79,-3.79,-3.79,-3.79,-3.79,-3.79,-3.79,-3.79,-3.7505,-3.7108,0.0,0.0,0.0,0.0,0.0,0.0,0.0,0.0,0.0,0.0,0.0,0.0,0.0,0.0,-3.6266,-3.6266,-3.6266,-3.6266,-3.6266,-3.6266,-3.6266,-3.6266,-3.6266,-3.6266,-3.6266,-3.6266,0.0,0.0,0.0,0.0,0.0,-3.6266,-3.6266,-3.6266,-3.6266,-3.6266,-3.6266,-3.6266,-3.6048,-3.5598,-3.5024,-3.4792,-3.4569,-3.3448,-3.3109,-3.2768,-3.0704,-3.0138,-3.002,-2.9213,-2.8984,-2.8984,-2.8984,-2.8984,-2.8984,-2.8984,-2.8984,-2.8984,-2.8984,-2.8984,-2.8984,-2.8984,-2.8984,-2.8984,-2.8984,-2.8984,-2.8984,-2.8984,-2.8984,-2.8984,-2.8984,-2.8984,-2.8984,-2.8984,-2.8984,-2.8984,-2.8984,-2.8984,-2.8984,-2.8984,-2.8984,-2.8984,-2.8874,-2.8984,-2.8865,-2.8627,-2.8388,-2.8148,-2.802,-2.7539,-2.7297,-2.7409,-2.7779,-2.8148,0.0,-4.0732,-4.0732,-4.0732,-4.0059,-3.9299,-3.9121,-3.8472,0.0,-3.79,-3.79,-3.79,-3.79,-3.79,-3.79,-3.79,-3.7808,-3.732,0.0,0.0,0.0,0.0,0.0,0.0,0.0,0.0,0.0,0.0,0.0,0.0,0.0,0.0,-3.6266,-3.6266,-3.6266,-3.6266,-3.6266,-3.6266,-3.6266,-3.6266,-3.6266,-3.6266,-3.6266,-3.6266,0.0,0.0,0.0,0.0,0.0,-3.6266,-3.6266,-3.6266,-3.6266,-3.6157,-3.6157,-3.6157,-3.5378,-3.4357,-3.3979,-3.3077,-3.2176,-3.2187,-3.1391,-3.048,-2.9331,-2.8984,-2.8984,-2.8984,-2.8984,-2.8984,-2.8984,-2.8984,-2.8984,-2.8984,-2.8984,-2.8984,-2.8984,-2.8984,-2.8984,-2.8984,-2.8984,-2.8984,-2.8984,-2.8984,-2.8984,-2.8984,-2.8984,-2.8984,-2.8984,-2.8984,-2.8984,-2.8984,-2.8984,-2.8984,-2.8984,-2.8984,-2.8984,-2.8984,-2.8984,-2.8865,-2.8517,-2.8865,-2.8627,-2.802,-2.8268,-2.8277,-2.79,-2.7642,-2.7289,-2.7194,-2.7788,-2.802,-3.8498,0.0,-3.8562,-3.8562,-3.8395,-3.8226,0.0,-3.807,-3.79,-3.79,-3.79,-3.79,-3.79,-3.79,-3.79,-3.79,-3.7413,-3.6828,0.0,0.0,0.0,0.0,0.0,0.0,0.0,0.0,0.0,0.0,0.0,0.0,0.0,0.0,-3.6266,-3.6266,-3.6266,-3.6266,-3.6266,-3.6266,-3.6266,-3.6266,-3.6266,-3.6266,-3.6266,-3.6266,0.0,0.0,0.0,0.0,-3.6266,-3.6266,-3.6048,-3.5598,-3.5598,-3.5035,-3.4256,-3.4256,-3.3786,-3.2964,-3.2395,-3.2395,-3.2395,-3.1381,-3.0128,-2.8984,-2.8755,-2.8746,-2.8984,-2.8984,-2.8984,-2.8984,-2.8984,-2.8984,-2.8984,-2.8984,-2.8984,-2.8984,-2.8984,-2.8984,-2.8984,-2.8984,-2.8984,-2.8984,-2.8984,-2.8984,-2.8984,-2.8984,-2.8984,-2.8984,-2.8984,-2.8984,-2.8984,-2.8984,-2.8984,-2.8984,-2.8984,-2.8984,-2.8984,-2.8984,-2.8984,-2.8984,-2.8865,-2.8755,-2.8517,-2.8397,-2.802,-2.7659,-2.7306,-2.7185,-2.7297,-2.7409,-2.7771,-2.8148,-3.79,-3.79,-3.79,-3.79,-3.79,-3.79,-3.79,-3.79,-3.79,-3.79,-3.79,-3.79,-3.79,-3.7611,-3.7505,0.0,-3.6922,0.0,0.0,0.0,0.0,0.0,0.0,0.0,0.0,0.0,0.0,0.0,0.0,0.0,0.0,0.0,-3.6266,-3.6266,-3.6266,-3.6266,-3.6266,-3.6266,-3.6266,-3.6266,-3.6266,-3.6266,-3.6266,-3.6266,0.0,0.0,0.0,0.0,-3.6266,-3.6048,-3.5477,-3.4681,-3.4447,-3.3652,-3.2747,-3.2747,-3.2281,-3.1466,-3.0897,-3.0432,-3.0188,-2.9512,-2.8838,-2.8268,-2.8268,-2.8388,-2.8498,-2.8498,-2.8498,-2.8498,-2.8498,-2.8498,-2.8618,-2.8746,-2.8627,-2.8618,-2.8746,-2.8627,-2.8627,-2.8746,-2.8627,-2.8627,-2.8746,-2.8627,-2.8498,-2.8498,-2.8498,-2.8498,-2.8498,-2.8627,-2.8746,-2.8498,-2.8865,-2.8984,-2.8746,-2.8865,-2.8984,-2.8984,-2.8874,-2.8746,-2.8507,-2.8388,-2.8148,-2.802,-2.7539,-2.7306,-2.7073,-2.7073,-2.7185,-2.7297,-2.7779,-2.814,-3.79,-3.79,-3.79,-3.79,-3.79,-3.79,-3.79,-3.79,-3.79,-3.79,-3.79,-3.79,-3.7703,-3.7307,0.0,0.0,0.0,0.0,0.0,0.0,0.0,0.0,0.0,0.0,0.0,0.0,0.0,0.0,0.0,0.0,0.0,0.0,0.0,-3.6266,-3.6266,-3.6266,-3.6266,-3.6266,-3.6266,-3.6266,-3.6266,-3.6266,-3.6266,-3.6266,0.0,0.0,0.0,0.0,-3.6157,-3.5598,-3.4792,-3.3631,-3.3191,-3.227,-3.1341,-3.1341,-3.0771,-2.9855,-2.9384,-2.8453,-2.7521,-2.7521,-2.7771,-2.7891,-2.7891,-2.79,-2.79,-2.79,-2.79,-2.802,-2.802,-2.802,-2.802,-2.8397,-2.8268,-2.802,-2.8397,-2.8148,-2.802,-2.8397,-2.8148,-2.814,-2.8397,-2.8148,-2.802,-2.802,-2.802,-2.802,-2.802,-2.8268,-2.8268,-2.802,-2.8498,-2.8746,-2.8397,-2.8627,-2.8865,-2.8865,-2.8755,-2.8397,-2.802,-2.802,-2.7771,-2.7401,-2.7185,-2.7073,-2.7073,-2.7073,-2.7073,-2.7073,-2.7668,-2.802,-3.79,-3.79,-3.79,-3.79,-3.79,-3.79,-3.79,-3.79,-3.79,-3.79,-3.79,-3.7703,0.0,-3.7307,-3.7505,0.0,0.0,0.0,0.0,0.0,0.0,0.0,0.0,0.0,0.0,0.0,0.0,0.0,0.0,0.0,0.0,0.0,0.0,-3.6266,-3.6266,-3.6266,-3.6266,-3.6266,-3.6266,-3.6266,-3.6266,-3.6266,-3.6266,-3.6266,-3.6266,0.0,0.0,-3.6048,-3.5488,-3.5488,-3.4224,-3.2519,-3.2664,-3.1401,-2.9431,-2.9648,-2.9185,-2.8361,-2.8241,-2.8131,-2.7891,-2.7891,-2.7771,-2.7521,-2.7521,-2.7418,-2.7194,-2.7194,-2.7668,-2.802,-2.802,-2.802,-2.802,-2.802,-2.802,-2.802,-2.802,-2.802,-2.802,-2.802,-2.802,-2.802,-2.802,-2.802,-2.802,-2.802,-2.802,-2.802,-2.802,-2.802,-2.802,-2.802,-2.814,-2.814,-2.802,-2.814,-2.8259,-2.8517,-2.8746,-2.8627,-2.802,-2.802,-2.7779,-2.7194,-2.7073,-2.7073,-2.7073,-2.7073,-2.7073,-2.7073,-2.7668,-2.802,-3.79,-3.79,-3.79,-3.79,-3.79,-3.79,-3.79,-3.79,-3.79,-3.79,-3.79,0.0,0.0,0.0,-3.625,-3.5102,0.0,0.0,0.0,0.0,0.0,0.0,0.0,0.0,0.0,0.0,0.0,0.0,0.0,0.0,0.0,0.0,0.0,0.0,-3.6266,-3.6266,-3.6266,-3.6266,-3.6266,-3.6266,-3.6266,-3.6266,-3.6266,-3.6266,-3.6266,-3.6266,0.0,-3.5356,-3.4558,-3.3888,-3.2509,-3.0665,-3.0461,-2.9422,-2.8029,-2.8241,-2.8011,-2.7547,-2.765,-2.7659,-2.7547,-2.7547,-2.7427,-2.7297,-2.7297,-2.7185,-2.7073,-2.7073,-2.7315,-2.7547,-2.7547,-2.7547,-2.7547,-2.765,-2.7659,-2.7547,-2.765,-2.7659,-2.7547,-2.765,-2.7659,-2.7547,-2.765,-2.7659,-2.7547,-2.7547,-2.7547,-2.7547,-2.7547,-2.7659,-2.765,-2.7547,-2.7788,-2.79,-2.7771,-2.7891,-2.802,-2.8268,-2.8379,-2.8259,-2.7771,-2.7539,-2.7427,-2.7073,-2.7073,-2.7073,-2.7073,-2.7073,-2.7185,-2.7289,-2.765,-2.7771,-3.79,-3.79,-3.79,-3.79,-3.79,-3.79,-3.79,-3.7703,-3.7703,-3.79,-3.7703,0.0,0.0,-3.6143,0.0,0.0,0.0,0.0,0.0,0.0,0.0,0.0,0.0,0.0,0.0,0.0,0.0,0.0,0.0,0.0,0.0,0.0,0.0,0.0,-3.6266,-3.6266,-3.6266,-3.6266,-3.6266,-3.6266,-3.6266,-3.6266,-3.6266,-3.6157,-3.5927,-3.5697,-3.5135,-3.4213,-3.317,-3.2281,-3.0781,-2.9157,-2.8719,-2.8011,-2.7185,-2.7289,-2.7297,-2.7073,-2.7289,-2.7297,-2.7073,-2.7073,-2.7073,-2.7073,-2.7073,-2.7073,-2.7073,-2.7073,-2.7073,-2.7073,-2.7073,-2.7073,-2.7194,-2.7409,-2.7306,-2.7194,-2.7409,-2.7177,-2.7185,-2.7409,-2.7177,-2.7194,-2.7409,-2.7185,-2.7073,-2.7073,-2.7073,-2.7073,-2.7073,-2.7297,-2.7297,-2.7073,-2.7547,-2.7659,-2.7409,-2.765,-2.7891,-2.7891,-2.802,-2.7891,-2.7513,-2.7297,-2.7185,-2.7073,-2.7073,-2.7073,-2.7073,-2.7073,-2.7185,-2.7521,-2.7521,-2.7771,-3.79,-3.79,-3.79,-3.79,-3.79,-3.79,-3.79,-3.7307,-3.7015,-3.7716,-3.7307,0.0,0.0,-3.6143,0.0,0.0,0.0,0.0,0.0,0.0,0.0,0.0,0.0,0.0,0.0,0.0,0.0,0.0,0.0,0.0,0.0,0.0,0.0,0.0,0.0,-3.6266,-3.6266,-3.6266,-3.6266,-3.6266,-3.6266,-3.6266,-3.6266,-3.5708,-3.5013,-3.408,-3.3529,-3.2385,-3.1004,-3.0897,-2.9973,-2.86,-2.8856,-2.837,-2.7401,-2.7185,-2.7073,-2.7073,-2.7073,-2.7073,-2.7073,-2.7073,-2.7073,-2.7073,-2.7073,-2.7073,-2.7073,-2.7073,-2.7073,-2.7073,-2.7073,-2.7073,-2.7073,-2.7073,-2.7073,-2.7073,-2.7073,-2.7073,-2.7073,-2.7073,-2.7073,-2.7073,-2.7073,-2.7073,-2.7073,-2.7073,-2.7073,-2.7073,-2.7073,-2.7073,-2.7073,-2.7073,-2.7194,-2.7194,-2.7073,-2.7409,-2.7521,-2.7521,-2.7771,-2.7891,-2.7513,-2.7521,-2.7289,-2.7073,-2.7073,-2.7073,-2.7073,-2.7073,-2.7185,-2.7521,-2.7771,-2.802,-3.79,-3.79,-3.79,-3.79,-3.79,-3.79,-3.79,-3.7307,-3.6922,-3.7703,-3.6922,0.0,0.0,0.0,0.0,0.0,0.0,0.0,0.0,0.0,0.0,0.0,0.0,0.0,0.0,0.0,0.0,0.0,0.0,0.0,0.0,0.0,0.0,0.0,0.0,-3.6266,-3.6266,-3.6266,-3.6266,-3.6266,-3.6266,-3.6157,-3.5708,-3.4902,-3.409,-3.3406,-3.2156,-3.1004,-2.9846,-2.9512,-2.871,-2.7659,-2.7788,-2.7547,-2.7185,-2.7194,-2.7073,-2.7073,-2.7073,-2.7073,-2.7073,-2.7073,-2.7073,-2.7073,-2.7073,-2.7073,-2.7073,-2.7073,-2.7073,-2.7073,-2.7073,-2.7073,-2.7073,-2.7073,-2.7073,-2.7073,-2.7073,-2.7073,-2.7073,-2.7073,-2.7073,-2.7073,-2.7073,-2.7073,-2.7073,-2.7073,-2.7073,-2.7073,-2.7073,-2.7073,-2.7073,-2.7073,-2.7073,-2.7073,-2.7073,-2.7185,-2.7306,-2.7306,-2.753,-2.7642,-2.7521,-2.7289,-2.7185,-2.7073,-2.7073,-2.7073,-2.7073,-2.7073,-2.7185,-2.7521,-2.7418,-2.7539,-3.79,-3.79,-3.79,-3.79,-3.79,-3.7808,-3.7611,-3.6922,-3.6534,-3.7028,-3.6534,-3.5763,-3.5271,0.0,0.0,0.0,0.0,0.0,0.0,0.0,0.0,0.0,0.0,0.0,0.0,0.0,0.0,0.0,0.0,0.0,0.0,0.0,0.0,0.0,0.0,0.0,-3.5576,-3.5927,-3.5587,-3.488,-3.5124,-3.5124,-3.4902,-3.3877,-3.283,-3.1802,-3.0665,-2.9512,-2.8692,-2.8241,-2.7659,-2.7073,-2.7073,-2.7073,-2.7073,-2.7073,-2.7073,-2.7073,-2.7073,-2.7073,-2.7073,-2.7073,-2.7073,-2.7073,-2.7073,-2.7073,-2.7073,-2.7073,-2.7073,-2.7073,-2.7073,-2.7073,-2.7073,-2.7073,-2.7073,-2.7073,-2.7073,-2.7073,-2.7073,-2.7073,-2.7073,-2.7073,-2.7073,-2.7073,-2.7073,-2.7073,-2.7073,-2.7073,-2.7073,-2.7073,-2.7073,-2.7073,-2.7073,-2.7073,-2.7073,-2.7073,-2.7073,-2.7073,-2.7297,-2.7409,-2.7409,-2.7185,-2.7073,-2.7073,-2.7073,-2.6943,-2.6449,-2.6449,-2.6432,-2.6277,-2.6059,-2.6059,-3.79,-3.79,-3.79,-3.79,-3.79,-3.7703,-3.6909,-3.6143,-3.5571,-3.5571,-3.6143,-3.6225,-3.4678,-3.5078,0.0,0.0,0.0,0.0,0.0,0.0,0.0,0.0,0.0,0.0,0.0,0.0,0.0,0.0,0.0,0.0,0.0,0.0,0.0,0.0,0.0,0.0,-3.3968,-3.4902,-3.4101,-3.1677,-3.2613,-3.3406,-3.3968,-3.2737,-3.1129,-2.9384,-2.8701,-2.8011,-2.7073,-2.7073,-2.7073,-2.7073,-2.7073,-2.7073,-2.7073,-2.7073,-2.7073,-2.7073,-2.7073,-2.7073,-2.7073,-2.7073,-2.7073,-2.7073,-2.7073,-2.7073,-2.7073,-2.7073,-2.7073,-2.7073,-2.7073,-2.7073,-2.7073,-2.7073,-2.7073,-2.7073,-2.7073,-2.7073,-2.7073,-2.7073,-2.7073,-2.7073,-2.7073,-2.7073,-2.7073,-2.7073,-2.7073,-2.7073,-2.7073,-2.7073,-2.7073,-2.7073,-2.7073,-2.7073,-2.7073,-2.7073,-2.7073,-2.7073,-2.7073,-2.7073,-2.7073,-2.7073,-2.7073,-2.7073,-2.7073,-2.6449,-2.5071,-2.5071,-2.4564,-2.3559,-2.3566,-2.3566,-3.79,-3.79,-3.79,-3.79,0.0,0.0,-3.625,-3.6143,-3.6048,-3.4969,-3.4969,-3.4969,-3.4483,0.0,0.0,0.0,0.0,0.0,0.0,0.0,0.0,0.0,0.0,0.0,0.0,0.0,0.0,0.0,0.0,0.0,0.0,0.0,0.0,0.0,0.0,0.0,-3.2364,-3.2716,-3.2478,-3.1677,-3.1582,-3.1582,-3.1687,-3.0655,-2.9738,-2.8701,-2.7891,-2.7306,-2.7073,-2.7073,-2.7073,-2.7073,-2.7073,-2.7073,-2.7073,-2.7073,-2.7073,-2.7073,-2.7073,-2.7073,-2.7073,-2.7073,-2.7073,-2.7073,-2.7073,-2.7073,-2.7073,-2.7073,-2.7073,-2.7073,-2.7073,-2.7073,-2.7073,-2.7073,-2.7073,-2.7073,-2.7073,-2.7073,-2.7073,-2.7073,-2.7073,-2.7073,-2.7073,-2.7073,-2.7073,-2.7073,-2.7073,-2.7073,-2.7073,-2.7073,-2.7073,-2.7073,-2.7073,-2.67,-2.5823,-2.5692,-2.5317,-2.4324,-2.4324,-2.4695,-2.5692,-2.5692,-2.5194,-2.4324,-2.4324,-2.407,-2.3698,-2.3698,-2.3566,-2.3193,-2.3201,-2.3201,-3.79,-3.79,-3.79,-3.79,-3.7703,-3.7121,-3.5858,0.0,0.0,0.0,-3.4201,-3.4288,-3.4017,0.0,0.0,0.0,0.0,0.0,0.0,0.0,0.0,0.0,0.0,0.0,0.0,0.0,0.0,0.0,0.0,0.0,0.0,0.0,0.0,0.0,0.0,0.0,-3.0762,-3.111,-3.0878,-2.9837,-2.9855,-2.9747,-2.9275,-2.9166,-2.8582,-2.79,-2.7306,-2.7073,-2.7073,-2.7073,-2.7073,-2.7073,-2.7073,-2.7073,-2.7073,-2.7073,-2.7073,-2.7073,-2.7073,-2.7073,-2.7073,-2.7073,-2.7073,-2.7073,-2.7073,-2.7073,-2.7073,-2.7073,-2.7073,-2.7073,-2.7073,-2.7073,-2.7073,-2.7073,-2.7073,-2.7073,-2.7073,-2.7073,-2.7073,-2.7073,-2.67,-2.6449,-2.6952,-2.67,-2.6449,-2.7073,-2.67,-2.6327,-2.6327,-2.5823,-2.5692,-2.6197,-2.5823,-2.5194,-2.4324,-2.4324,-2.3946,-2.3201,-2.3076,-2.3201,-2.345,-2.407,-2.3946,-2.3076,-2.3076,-2.282,-2.2327,-2.2327,-2.2076,-2.1454,-2.1454,-2.1454,-3.79,-3.79,-3.79,-3.7808,-3.7121,0.0,-3.5667,-3.4323,-3.3281,-3.3381,0.0,-3.4115,0.0,0.0,0.0,0.0,0.0,0.0,0.0,0.0,0.0,0.0,0.0,0.0,0.0,0.0,0.0,0.0,0.0,0.0,0.0,0.0,0.0,0.0,0.0,0.0,-2.9266,-3.0081,-2.9275,0.0,-2.8011,-2.79,-2.7073,-2.8011,-2.79,-2.7073,-2.7073,-2.7073,-2.7073,-2.7073,-2.7073,-2.7073,-2.7073,-2.7073,-2.7073,-2.7073,-2.7073,-2.7073,-2.7073,-2.7073,-2.7073,-2.7073,-2.7073,-2.7073,-2.7073,-2.7073,-2.7073,-2.7073,-2.7073,-2.7073,-2.7073,-2.6952,-2.6952,-2.7073,-2.7073,-2.7073,-2.7073,-2.7073,-2.7073,-2.7073,-2.6075,-2.557,-2.67,-2.5953,-2.5692,-2.67,-2.5823,-2.5071,-2.4949,-2.3822,-2.3574,-2.4818,-2.3822,-2.3076,-2.2952,-2.2952,-2.2827,-2.2695,-2.2702,-2.2201,-2.0949,-2.2201,-2.2827,-2.2695,-2.2702,-2.2076,-2.0949,-2.0949,-2.0329,-1.9078,-1.9078,-1.9078,-3.79,-3.79,0.0,-3.7108,-3.5941,-3.4872,-3.4678,-3.3941,-3.3469,-3.4017,-3.3843,0.0,0.0,0.0,0.0,0.0,0.0,0.0,0.0,0.0,0.0,0.0,0.0,0.0,0.0,0.0,0.0,0.0,0.0,0.0,0.0,0.0,0.0,0.0,0.0,-2.8701,-2.7659,-2.7771,-2.7659,0.0,-2.7306,-2.7315,-2.7073,-2.7306,-2.7306,-2.7073,-2.7073,-2.7073,-2.7073,-2.7073,-2.7073,-2.7073,-2.7073,-2.7073,-2.7073,-2.7073,-2.7073,-2.7073,-2.7073,-2.7073,-2.7073,-2.7073,-2.7073,-2.7073,-2.7073,-2.7073,-2.7073,-2.7073,-2.7073,-2.7073,-2.7073,-2.6319,-2.5823,-2.6822,-2.7073,-2.7073,-2.7073,-2.7073,-2.7073,-2.7073,-2.6822,-2.6449,-2.57,-2.6197,-2.6449,-2.5692,-2.5325,-2.4695,-2.3698,-2.3325,-2.3201,-2.345,-2.3325,-2.2702,-2.1573,-2.158,-2.1076,-2.0081,-1.9954,-1.9826,-1.9577,-2.0829,-2.1082,-1.9954,-1.9954,-1.9826,-1.9577,-1.9577,-1.9328,-1.9078,-1.9078,-1.9078,-3.79,-3.79,0.0,-3.6439,0.0,-3.4288,-3.393,-3.3557,-3.3369,-3.3843,0.0,0.0,0.0,0.0,0.0,0.0,0.0,0.0,0.0,0.0,0.0,0.0,0.0,0.0,0.0,0.0,0.0,0.0,0.0,0.0,0.0,0.0,0.0,0.0,-2.7975,-2.726,-2.679,-2.6979,-2.7073,-2.7073,-2.7073,-2.7073,-2.7073,-2.7073,-2.7073,-2.7073,-2.7073,-2.7073,-2.7073,-2.7073,-2.7073,-2.7073,-2.7073,-2.7073,-2.7073,-2.7073,-2.7073,-2.7073,-2.7073,-2.7073,-2.7073,-2.7073,-2.7073,-2.7073,-2.7073,-2.7073,-2.7073,-2.7073,-2.7073,-2.7073,-2.7073,-2.6075,-2.5325,-2.5945,-2.6197,-2.6197,-2.6197,-2.67,-2.67,-2.5448,-2.5194,-2.4941,-2.4317,-2.4695,-2.4695,-2.345,-2.3201,-2.2952,-2.2201,-2.158,-2.1454,-2.2076,-2.1573,-2.0956,-2.0202,-2.0202,-1.9826,-1.92,-1.9078,-1.9078,-1.9078,-1.9826,-1.9826,-1.9072,-1.9078,-1.9078,-1.9078,-1.9078,-1.9078,-1.9078,-1.9078,-1.9078,-3.7505,-3.7505,-3.7121,-3.5763,-3.4787,0.0,-3.3469,-3.3281,-3.3281,0.0,0.0,0.0,0.0,0.0,0.0,0.0,0.0,0.0,0.0,0.0,0.0,0.0,0.0,0.0,0.0,0.0,0.0,0.0,0.0,0.0,0.0,0.0,-2.7967,-2.808,-2.6999,-2.6422,-2.6491,-2.6807,-2.7004,-2.7073,-2.7073,-2.7073,-2.7073,-2.7073,-2.7073,-2.7073,-2.7073,-2.7073,-2.7073,-2.7073,-2.7073,-2.7073,-2.7073,-2.7073,-2.7073,-2.7073,-2.7073,-2.7073,-2.7073,-2.7073,-2.7073,-2.6822,-2.67,-2.67,-2.6449,-2.6449,-2.6449,-2.6449,-2.6571,-2.67,-2.6449,-2.5578,-2.4695,-2.4695,-2.4571,-2.4448,-2.4695,-2.557,-2.57,-2.3574,-2.2944,-2.2827,-2.3076,-2.2952,-2.2327,-2.1328,-2.1076,-2.1076,-2.0829,-1.9833,-1.9577,-2.0576,-1.9705,-1.9078,-1.9078,-1.9078,-1.9078,-1.9078,-1.9078,-1.9078,-1.9078,-1.9078,-1.9078,-1.9078,-1.9078,-1.9078,-1.9078,-1.9078,-1.9078,-1.9078,-1.9078,-1.9078,-3.5986,0.0,-3.5667,0.0,-3.4028,-3.3369,0.0,0.0,-3.3281,0.0,0.0,0.0,0.0,0.0,0.0,0.0,0.0,0.0,0.0,0.0,0.0,0.0,0.0,0.0,0.0,0.0,0.0,0.0,0.0,0.0,0.0,-2.8148,-2.728,-2.5883,-2.593,-2.6165,-2.6482,-2.6542,-2.6739,-2.7073,-2.7073,-2.7073,-2.7073,-2.7073,-2.7073,-2.7073,-2.7073,-2.7073,-2.7073,-2.7073,-2.7073,-2.7073,-2.7073,-2.7073,-2.7073,-2.7073,-2.7073,-2.7073,-2.7073,-2.7073,-2.6952,-2.5692,-2.5325,-2.5194,-2.3953,-2.3574,-2.3574,-2.3574,-2.4448,-2.5071,-2.3953,-2.345,-2.3325,-2.3325,-2.2452,-2.195,-2.3076,-2.345,-2.3574,-2.3201,-2.2201,-2.1706,-2.2952,-2.2076,-2.1328,-2.1076,-2.1076,-2.0703,-1.9577,-1.92,-1.92,-1.9328,-1.92,-1.9078,-1.9078,-1.9078,-1.9078,-1.9078,-1.9078,-1.9078,-1.9078,-1.9078,-1.9078,-1.9078,-1.9078,-1.9078,-1.9078,-1.9078,-1.9078,-1.9078,-1.9078,-1.9078,-3.5017,-3.5041,-3.4872,0.0,-3.3831,-3.3281,-3.3281,0.0,0.0,0.0,0.0,0.0,0.0,0.0,0.0,0.0,0.0,0.0,0.0,0.0,0.0,0.0,0.0,0.0,0.0,0.0,0.0,0.0,0.0,0.0,-2.8465,-2.7455,-2.6573,-2.5807,-2.5639,-2.5694,-2.5857,-2.6277,-2.6679,-2.7073,-2.7073,-2.7073,-2.7073,-2.7073,-2.7073,-2.7073,-2.7073,-2.7073,-2.7073,-2.7073,-2.7073,-2.7073,-2.7073,-2.7073,-2.7073,-2.7073,-2.7073,-2.7073,-2.7073,-2.6579,-2.5823,-2.5317,-2.4571,-2.3822,-2.3325,-2.3076,-2.3076,-2.3076,-2.3574,-2.3822,-2.3201,-2.2577,-2.195,-2.195,-2.0956,-2.0202,-2.0703,-2.2076,-2.2827,-2.2076,-2.0956,-2.0202,-2.0703,-2.0329,-1.9954,-1.9954,-1.9954,-1.9826,-1.92,-1.9078,-1.9078,-1.9078,-1.9078,-1.9078,-1.9078,-1.9078,-1.9078,-1.9078,-1.9078,-1.9078,-1.9078,-1.9078,-1.9078,-1.9078,-1.9078,-1.9078,-1.9078,-1.9078,-1.9078,-1.9078,-1.9078,-1.9078,0.0,0.0,-3.419,-3.3993,-3.3633,-3.3281,0.0,0.0,0.0,0.0,0.0,0.0,0.0,0.0,0.0,0.0,0.0,0.0,0.0,0.0,0.0,0.0,0.0,0.0,0.0,0.0,0.0,0.0,0.0,0.0,-2.8242,-2.6751,-2.5828,-2.5611,-2.5162,-2.4984,-2.5078,-2.5823,-2.6448,-2.6927,-2.6927,-2.6979,-2.7073,-2.7073,-2.7073,-2.7073,-2.7073,-2.7073,-2.7073,-2.7073,-2.7073,-2.7073,-2.7073,-2.7073,-2.7073,-2.67,-2.6571,-2.6571,-2.6197,-2.5448,-2.4571,-2.4193,-2.345,-2.2577,-2.2201,-2.2076,-2.2076,-2.2076,-2.2327,-2.2445,-2.2201,-2.1573,-2.0949,-2.0703,-1.9826,-1.9078,-1.9078,-2.0703,-2.1825,-2.0829,-1.9826,-1.9078,-1.9078,-1.9078,-1.9078,-1.9078,-1.9078,-1.9078,-1.9078,-1.9078,-1.9078,-1.9078,-1.9078,-1.9078,-1.9078,-1.9078,-1.9078,-1.9078,-1.9078,-1.9078,-1.9078,-1.9078,-1.9078,-1.9078,-1.9078,-1.9078,-1.9078,-1.9078,-1.9078,-1.9078,-1.9078,-1.9078,0.0,-3.2711,0.0,-3.2711,-3.2946,0.0,0.0,0.0,0.0,0.0,0.0,0.0,0.0,0.0,0.0,0.0,0.0,0.0,0.0,0.0,0.0,0.0,0.0,0.0,0.0,0.0,0.0,0.0,0.0,0.0,-2.7032,-2.6044,-2.5111,-2.4364,-2.3931,-2.3931,-2.429,-2.5044,-2.5797,-2.6516,-2.6516,-2.6713,-2.7073,-2.7073,-2.7073,-2.7073,-2.7073,-2.7073,-2.7073,-2.7073,-2.7073,-2.7073,-2.7073,-2.7073,-2.6952,-2.5692,-2.5194,-2.5071,-2.3698,-2.3201,-2.2944,-2.1699,-2.1202,-2.0949,-1.9699,-1.9328,-1.9328,-1.9328,-2.0202,-2.0956,-1.9705,-2.0202,-2.0829,-1.945,-1.92,-1.9078,-1.9078,-1.92,-1.9328,-1.92,-1.92,-1.9078,-1.9078,-1.9078,-1.9078,-1.9078,-1.9078,-1.9078,-1.9078,-1.9078,-1.9078,-1.9078,-1.9078,-1.9078,-1.9078,-1.9078,-1.9078,-1.9078,-1.9078,-1.9078,-1.9078,-1.9078,-1.9078,-1.9078,-1.9078,-1.9078,-1.9078,-1.9078,-1.9078,-1.9078,-1.9078,-1.9078,0.0,0.0,0.0,-3.1913,-3.2331,-3.2734,0.0,0.0,0.0,0.0,0.0,0.0,0.0,0.0,0.0,0.0,0.0,0.0,0.0,0.0,0.0,0.0,0.0,0.0,0.0,0.0,0.0,0.0,0.0,0.0,-2.5633,-2.4792,-2.4199,-2.3871,-2.3734,-2.3845,-2.423,-2.4504,-2.5018,-2.5771,-2.5771,-2.6097,-2.6696,-2.6696,-2.6833,-2.7073,-2.7073,-2.7073,-2.7073,-2.7073,-2.7073,-2.7073,-2.7073,-2.6571,-2.57,-2.5325,-2.4571,-2.3698,-2.3325,-2.2577,-2.1706,-2.1202,-2.0576,-1.9705,-1.92,-1.9078,-1.9078,-1.9078,-1.945,-1.9705,-1.92,-1.945,-1.9705,-1.92,-1.9078,-1.9078,-1.9078,-1.9078,-1.9078,-1.9078,-1.9078,-1.9078,-1.9078,-1.9078,-1.9078,-1.9078,-1.9078,-1.9078,-1.9078,-1.9078,-1.9078,-1.9078,-1.9078,-1.9078,-1.9078,-1.9078,-1.9078,-1.9078,-1.9078,-1.9078,-1.9078,-1.9078,-1.9078,-1.9078,-1.9078,-1.9078,-1.9078,-1.9078,-1.9078,-1.9078,-1.9078,-1.9078,-3.0484,0.0,0.0,0.0,0.0,-3.2218,0.0,0.0,0.0,0.0,0.0,0.0,0.0,0.0,0.0,0.0,0.0,0.0,0.0,0.0,0.0,0.0,0.0,0.0,0.0,0.0,0.0,0.0,0.0,0.0,-2.4703,-2.4069,-2.358,-2.3297,-2.3288,-2.3468,-2.3853,-2.3862,-2.4239,-2.4992,-2.4992,-2.5386,-2.6114,-2.6114,-2.6388,-2.6876,-2.6377,-2.6582,-2.7073,-2.7073,-2.6822,-2.6449,-2.6449,-2.557,-2.4324,-2.3946,-2.3201,-2.2327,-2.195,-2.1202,-2.0456,-2.0456,-1.9826,-1.9078,-1.9078,-1.9078,-1.9078,-1.9078,-1.9078,-1.9078,-1.9078,-1.9078,-1.9078,-1.9078,-1.9078,-1.9078,-1.9078,-1.9078,-1.9078,-1.9078,-1.9078,-1.9078,-1.9078,-1.9078,-1.9078,-1.9078,-1.9078,-1.9078,-1.9078,-1.9078,-1.9078,-1.9078,-1.9078,-1.9078,-1.9078,-1.9078,-1.9078,-1.9078,-1.9078,-1.9078,-1.9078,-1.9078,-1.9078,-1.9078,-1.9078,-1.9078,-1.9078,-1.9078,-1.9078,-1.9078,-1.9078,-1.9078,0.0,0.0,0.0,0.0,0.0,0.0,0.0,0.0,0.0,0.0,0.0,0.0,0.0,0.0,0.0,0.0,0.0,0.0,0.0,0.0,0.0,0.0,0.0,0.0,0.0,0.0,0.0,0.0,0.0,-2.4624,-2.4239,-2.3879,-2.334,-2.2687,-2.2653,-2.2723,-2.3091,-2.31,-2.3468,-2.4196,-2.4196,-2.4598,-2.5335,-2.5352,-2.5754,-2.6329,-2.4995,-2.5455,-2.6935,-2.6943,-2.6197,-2.5071,-2.5071,-2.4193,-2.2827,-2.158,-2.1076,-2.0829,-1.9577,-1.9078,-1.9078,-1.9078,-1.9078,-1.9078,-1.9078,-1.9078,-1.9078,-1.9078,-1.9078,-1.9078,-1.9078,-1.9078,-1.9078,-1.9078,-1.9078,-1.9078,-1.9078,-1.9078,-1.9078,-1.9078,-1.9078,-1.9078,-1.9078,-1.9078,-1.9078,-1.9078,-1.9078,-1.9078,-1.9078,-1.9078,-1.9078,-1.9078,-1.9078,-1.9078,-1.9078,-1.9078,-1.9078,-1.9078,-1.9078,-1.9078,-1.9078,-1.9078,-1.9078,-1.9078,-1.9078,-1.9078,-1.9078,-1.9078,-1.9078,-1.9078,-1.9078,-1.9078,-2.9994,0.0,0.0,0.0,0.0,0.0,0.0,0.0,0.0,0.0,0.0,0.0,0.0,0.0,0.0,0.0,0.0,0.0,0.0,0.0,0.0,0.0,0.0,0.0,0.0,0.0,0.0,0.0,-2.4076,-2.3948,-2.3853,-2.3485,-2.3177,-2.2963,-2.2689,-2.2595,-2.2706,-2.2706,-2.2946,-2.3425,-2.3425,-2.3384,-2.3435,-2.3585,-2.3478,-2.32,-2.2982,-2.3285,-2.3978,-2.4101,-2.3946,-2.3698,-2.3698,-2.2827,-2.158,-2.1202,-2.0456,-1.9577,-1.92,-1.9078,-1.9078,-1.9078,-1.9078,-1.9078,-1.9078,-1.9078,-1.9078,-1.9078,-1.9078,-1.9078,-1.9078,-1.9078,-1.9078,-1.9078,-1.9078,-1.9078,-1.9078,-1.9078,-1.9078,-1.9078,-1.9078,-1.9078,-1.9078,-1.9078,-1.9078,-1.9078,-1.9078,-1.9078,-1.9078,-1.9078,-1.9078,-1.9078,-1.9078,-1.9078,-1.9078,-1.9078,-1.9078,-1.9078,-1.9078,-1.9078,-1.9078,-1.9078,-1.9078,-1.9078,-1.9078,-1.9078,-1.9078,-1.9078,-1.9078,-1.9078,-1.9078,-1.9078,-2.9994,-2.9994,-2.9889,0.0,0.0,0.0,-3.0266,-3.0785,0.0,0.0,0.0,0.0,0.0,0.0,0.0,0.0,0.0,0.0,0.0,0.0,0.0,0.0,0.0,0.0,0.0,0.0,0.0,0.0,-2.4273,-2.4085,-2.3931,-2.3554,-2.3271,-2.3117,-2.2903,-2.2706,-2.2644,-2.2644,-2.2663,-2.2877,-2.2459,-2.2127,-2.2145,-2.1791,-2.1653,-2.1669,-2.1167,-2.1272,-2.169,-2.1259,-2.1603,-2.2327,-2.2327,-2.1454,-2.0329,-2.0329,-1.9826,-1.9078,-1.9078,-1.9078,-1.9078,-1.9078,-1.9078,-1.9078,-1.9078,-1.9078,-1.9078,-1.9078,-1.9078,-1.9078,-1.9078,-1.9078,-1.9078,-1.9078,-1.9078,-1.9078,-1.9078,-1.9078,-1.9078,-1.9078,-1.9078,-1.9078,-1.9078,-1.9078,-1.9078,-1.9078,-1.9078,-1.9078,-1.9078,-1.9078,-1.9078,-1.9078,-1.9078,-1.9078,-1.9078,-1.9078,-1.9078,-1.9078,-1.9078,-1.9078,-1.9078,-1.9078,-1.9078,-1.9078,-1.9078,-1.9078,-1.9078,-1.9078,-1.9078,-1.9078,-1.9078,-1.9078,-2.9774,-2.9774,-2.9554,0.0,0.0,0.0,-2.9323,-2.9838,-3.0567,0.0,0.0,0.0,0.0,0.0,0.0,0.0,0.0,0.0,0.0,0.0,0.0,0.0,0.0,0.0,0.0,0.0,-2.4821,-2.4821,-2.4821,-2.4667,-2.4316,-2.3931,-2.358,-2.3254,-2.316,-2.2954,-2.2612,-2.267,-2.2644,-2.2552,-2.1404,-2.1052,-2.1265,-2.0151,-2.0114,-2.0715,-1.9639,-1.941,-1.9919,-1.8728,-1.9286,-2.0783,-2.0783,-2.0176,-1.9078,-1.9078,-1.9078,-1.9078,-1.9078,-1.9078,-1.9078,-1.9078,-1.9078,-1.9078,-1.9078,-1.9078,-1.9078,-1.9078,-1.9078,-1.9078,-1.9078,-1.9078,-1.9078,-1.9078,-1.9078,-1.9078,-1.9078,-1.9078,-1.9078,-1.9078,-1.9078,-1.9078,-1.9078,-1.9078,-1.9078,-1.9078,-1.9078,-1.9078,-1.9078,-1.9078,-1.9078,-1.9078,-1.9078,-1.9078,-1.9078,-1.9078,-1.9078,-1.9078,-1.9078,-1.9078,-1.9078,-1.9078,-1.9078,-1.9078,-1.9078,-1.9078,-1.9078,-1.9078,-1.9078,-1.9078,-1.9078,-1.9078,0.0,0.0,0.0,0.0,0.0,0.0,-2.7814,-2.7921,-2.8232,0.0,0.0,0.0,0.0,0.0,0.0,0.0,0.0,0.0,0.0,0.0,0.0,0.0,0.0,0.0,0.0,0.0,-2.4821,-2.4821,-2.4821,-2.4787,-2.471,-2.4333,-2.4093,-2.4016,-2.3434,-2.3074,-2.3006,-2.2698,-2.2644,-2.2552,-2.1404,-2.0506,-1.9658,-1.9003,-1.8236,-1.7654,-1.7755,-1.8009,-1.8311,-1.8076,-1.8392,-1.913,-1.913,-1.9138,-1.9078,-1.9078,-1.9078,-1.9078,-1.9078,-1.9078,-1.9078,-1.9078,-1.9078,-1.9078,-1.9078,-1.9078,-1.9078,-1.9078,-1.9078,-1.9078,-1.9078,-1.9078,-1.9078,-1.9078,-1.9078,-1.9078,-1.9078,-1.9078,-1.9078,-1.9078,-1.9078,-1.9078,-1.9078,-1.9078,-1.9078,-1.9078,-1.9078,-1.9078,-1.9078,-1.9078,-1.9078,-1.9078,-1.9078,-1.9078,-1.9078,-1.9078,-1.9078,-1.9078,-1.9078,-1.9078,-1.9078,-1.9078,-1.9078,-1.9078,-1.9078,-1.9078,-1.9078,-1.9078,-1.9078,-1.9078,-1.9078,-1.9078,0.0,0.0,0.0,-2.7384,0.0,0.0,0.0,-2.706,-2.7492,0.0,0.0,0.0,0.0,0.0,0.0,0.0,0.0,0.0,0.0,0.0,0.0,0.0,0.0,0.0,0.0,0.0,-2.4821,-2.4821,-2.4821,-2.4821,-2.4821,-2.4633,-2.4436,-2.4239,-2.3871,-2.3494,-2.3117,-2.2929,-2.274,-2.2544,-2.0885,-1.9828,-1.9371,-1.7975,-1.7185,-1.6911,-1.7171,-1.7436,-1.7678,-1.7678,-1.7913,-1.8294,-1.8432,-1.865,-1.8879,-1.8879,-1.8963,-1.9078,-1.9078,-1.9078,-1.9078,-1.9078,-1.9078,-1.9078,-1.9078,-1.895,-1.8822,-1.8559,-1.8553,-1.8553,-1.8553,-1.8553,-1.8559,-1.8822,-1.8822,-1.895,-1.9072,-1.9078,-1.9078,-1.9078,-1.9078,-1.9078,-1.9078,-1.9078,-1.9078,-1.9078,-1.9078,-1.9078,-1.9078,-1.9078,-1.9078,-1.9078,-1.9078,-1.9078,-1.9078,-1.9078,-1.9078,-1.9078,-1.9078,-1.9078,-1.9078,-1.9078,-1.9078,-1.9078,-1.9078,-1.9078,-1.9078,-1.9078,-1.9078,-1.9078,-1.9078,-1.9078,0.0,0.0,0.0,0.0,0.0,-2.6744,0.0,0.0,0.0,0.0,0.0,0.0,0.0,0.0,0.0,0.0,0.0,0.0,0.0,0.0,0.0,0.0,0.0,0.0,0.0,0.0,-2.4821,-2.4821,-2.4821,-2.4821,-2.4821,-2.4821,-2.4675,-2.4359,-2.4273,-2.3939,-2.334,-2.2978,-2.268,-2.2443,-2.0081,-1.9069,-1.9263,-1.7386,-1.6676,-1.7092,-1.7141,-1.7286,-1.7485,-1.7485,-1.7605,-1.7823,-1.81,-1.8378,-1.8613,-1.8662,-1.8813,-1.9006,-1.8926,-1.8944,-1.895,-1.8944,-1.8944,-1.8944,-1.8944,-1.8693,-1.8437,-1.8039,-1.8033,-1.8033,-1.8033,-1.8033,-1.8039,-1.8437,-1.8571,-1.8699,-1.895,-1.9078,-1.9078,-1.9078,-1.9078,-1.9078,-1.9078,-1.9078,-1.9078,-1.9078,-1.9078,-1.9078,-1.9078,-1.9078,-1.9078,-1.9078,-1.9078,-1.9078,-1.9078,-1.9078,-1.9078,-1.9078,-1.9078,-1.9078,-1.9078,-1.9078,-1.9078,-1.9078,-1.9078,-1.9078,-1.9078,-1.9078,-1.9078,-1.9078,-1.9078,-1.9078,0.0,0.0,0.0,0.0,-2.556,0.0,0.0,0.0,0.0,0.0,0.0,0.0,0.0,0.0,0.0,0.0,0.0,0.0,0.0,0.0,0.0,0.0,0.0,0.0,0.0,0.0,0.0,-2.4821,-2.4821,-2.4821,-2.4821,-2.4821,-2.4804,-2.4753,-2.4419,-2.4196,-2.411,-2.2486,-2.1771,-2.1913,-1.937,-1.8333,-1.8514,-1.7447,-1.7032,-1.7105,-1.7334,-1.7455,-1.7485,-1.7485,-1.7497,-1.7551,-1.7817,-1.8094,-1.8366,-1.8333,-1.8441,-1.8632,-1.8221,-1.8302,-1.8571,-1.8296,-1.8168,-1.8168,-1.8168,-1.8039,-1.8039,-1.8033,-1.8033,-1.8033,-1.8033,-1.8033,-1.8033,-1.8039,-1.8302,-1.8577,-1.8699,-1.895,-1.9078,-1.9078,-1.9078,-1.9078,-1.9078,-1.9078,-1.9078,-1.9078,-1.9078,-1.9078,-1.9078,-1.9078,-1.9078,-1.9078,-1.9078,-1.9078,-1.9078,-1.9078,-1.9078,-1.9078,-1.9078,-1.9078,-1.9078,-1.9078,-1.9078,-1.9078,-1.9078,-1.9078,-1.9078,-1.9078,-1.9078,-1.9078,-1.9078,-1.9078,0.0,0.0,0.0,0.0,0.0,0.0,-2.4256,0.0,-2.3801,0.0,0.0,0.0,0.0,0.0,0.0,0.0,0.0,0.0,0.0,0.0,0.0,0.0,0.0,0.0,0.0,0.0,0.0,0.0,0.0,-2.4821,-2.4821,-2.4821,-2.4821,-2.4821,-2.4658,-2.4461,-2.423,-2.2706,-2.1981,-2.1818,-1.9403,-1.8417,-1.8592,-1.7597,-1.7171,-1.7328,-1.7436,-1.7367,-1.7256,-1.7256,-1.7132,-1.6903,-1.7008,-1.7332,-1.7706,-1.7556,-1.7572,-1.7865,-1.7869,-1.7961,-1.8111,-1.7993,-1.8033,-1.7905,-1.7781,-1.7658,-1.7653,-1.7518,-1.7389,-1.7389,-1.7389,-1.7389,-1.7518,-1.7658,-1.8045,-1.8308,-1.8571,-1.8822,-1.9078,-1.9078,-1.9078,-1.9078,-1.9078,-1.9078,-1.9078,-1.9078,-1.9078,-1.9078,-1.9078,-1.9078,-1.9078,-1.9078,-1.9078,-1.9078,-1.9078,-1.9078,-1.9078,-1.9078,-1.9078,-1.9078,-1.9078,-1.9078,-1.9078,-1.9078,-1.9078,-1.9078,-1.9078,-1.9078,-1.9078,-1.9078,-1.9078,-1.9078,-2.4479,0.0,0.0,0.0,0.0,0.0,0.0,0.0,0.0,0.0,0.0,0.0,0.0,0.0,0.0,0.0,0.0,0.0,0.0,0.0,0.0,0.0,0.0,0.0,0.0,0.0,0.0,0.0,-2.4821,0.0,-2.4821,-2.4821,-2.4821,-2.4821,-2.4821,-2.4454,-2.3838,-2.26,-2.1695,-2.111,-1.9042,-1.8162,-1.8326,-1.7535,-1.7304,-1.7367,-1.7367,-1.7256,-1.702,-1.6903,-1.6661,-1.6537,-1.6425,-1.6657,-1.7068,-1.6891,-1.6907,-1.7234,-1.7235,-1.7365,-1.7461,-1.7697,-1.7776,-1.7647,-1.74,-1.74,-1.7271,-1.7007,-1.7001,-1.7001,-1.7001,-1.7001,-1.7007,-1.7271,-1.7653,-1.8039,-1.8308,-1.8693,-1.9078,-1.895,-1.9078,-1.9078,-1.9078,-1.9078,-1.9078,-1.9078,-1.9078,-1.9078,-1.9078,-1.9078,-1.9078,-1.9078,-1.9078,-1.9078,-1.9078,-1.9078,-1.9078,-1.9078,-1.9078,-1.9078,-1.9078,-1.9078,-1.9078,-1.9078,-1.9078,-1.9078,-1.9078,-1.9078,-1.9078,-1.9078,-1.9078,-1.9078,0.0,0.0,0.0,-2.3921,0.0,0.0,0.0,0.0,-2.3014,0.0,0.0,0.0,0.0,0.0,-2.2903,-2.2435,0.0,0.0,0.0,0.0,0.0,0.0,0.0,0.0,0.0,0.0,0.0,-2.4821,-2.4821,0.0,-2.4821,-2.4821,-2.4821,-2.4821,-2.4821,-2.4239,-2.3071,-2.1488,-2.0252,-1.9408,-1.788,-1.7104,-1.7126,-1.7355,-1.7361,-1.702,-1.702,-1.7026,-1.7026,-1.6661,-1.6537,-1.6419,-1.6194,-1.6092,-1.6126,-1.6353,-1.6678,-1.6833,-1.6484,-1.6474,-1.6827,-1.6931,-1.7001,-1.7001,-1.7007,-1.7007,-1.7007,-1.7001,-1.7001,-1.7001,-1.7001,-1.7001,-1.7001,-1.7007,-1.7518,-1.7905,-1.7658,-1.8302,-1.895,-1.8699,-1.8822,-1.9078,-1.9078,-1.9078,-1.9078,-1.9078,-1.9078,-1.9078,-1.9078,-1.9078,-1.9078,-1.9078,-1.9078,-1.9078,-1.9078,-1.9078,-1.9078,-1.9078,-1.9078,-1.9078,-1.9078,-1.9078,-1.9078,-1.9078,-1.9078,-1.9078,-1.9078,-1.9078,-1.9078,-1.9078,-1.9078,-1.9078,0.0,0.0,-2.3352,-2.3352,0.0,0.0,0.0,0.0,0.0,0.0,0.0,0.0,0.0,0.0,-2.1038,-2.1503,-2.0644,0.0,0.0,0.0,0.0,0.0,0.0,0.0,0.0,0.0,0.0,-2.471,-2.4821,-2.4821,0.0,-2.4821,-2.4821,-2.4821,-2.4016,-2.344,-2.2974,-2.0815,-1.9564,-1.9319,-1.7738,-1.7055,-1.7026,-1.6897,-1.6773,-1.6661,-1.6661,-1.6549,-1.6436,-1.6318,-1.6076,-1.5952,-1.5839,-1.572,-1.5731,-1.5807,-1.5953,-1.6106,-1.6111,-1.6231,-1.6474,-1.67,-1.678,-1.6807,-1.6958,-1.7001,-1.7001,-1.7001,-1.7001,-1.7001,-1.7001,-1.7001,-1.7001,-1.7001,-1.7394,-1.7658,-1.7781,-1.8168,-1.8425,-1.8822,-1.8822,-1.8822,-1.9078,-1.9078,-1.9078,-1.9078,-1.9078,-1.9078,-1.9078,-1.9078,-1.9078,-1.9078,-1.9078,-1.9078,-1.9078,-1.9078,-1.9078,-1.9078,-1.9078,-1.9078,-1.9078,-1.9078,-1.9078,-1.9078,-1.9078,-1.9078,-1.9078,-1.9078,-1.9078,-1.9078,-1.9078,-1.9078,-2.2199,-2.2199,0.0,-2.2562,-2.2101,0.0,-2.1767,0.0,0.0,0.0,0.0,0.0,0.0,0.0,-2.0392,-2.063,-1.9686,-1.91,0.0,-2.0046,0.0,0.0,0.0,0.0,0.0,0.0,-2.3768,-2.471,-2.4821,-2.4821,0.0,0.0,-2.459,-2.4128,-2.344,-2.2636,-2.1722,-1.9998,-1.8855,-1.8519,-1.7361,-1.6785,-1.6672,-1.6543,-1.6425,-1.6307,-1.6307,-1.6312,-1.6087,-1.5963,-1.5839,-1.5601,-1.5601,-1.5601,-1.5601,-1.5601,-1.5601,-1.5634,-1.5865,-1.6054,-1.6221,-1.6463,-1.6538,-1.6581,-1.6813,-1.6883,-1.6899,-1.698,-1.7001,-1.7001,-1.7001,-1.7001,-1.7001,-1.7001,-1.7271,-1.7529,-1.7653,-1.7776,-1.8168,-1.8431,-1.8571,-1.8699,-1.8822,-1.9078,-1.9078,-1.9078,-1.9078,-1.9078,-1.9078,-1.9078,-1.9078,-1.9078,-1.9078,-1.9078,-1.9078,-1.9078,-1.9078,-1.9078,-1.9078,-1.9078,-1.9078,-1.9078,-1.9078,-1.9078,-1.9078,-1.9078,-1.9078,-1.9078,-1.881,-1.8291,-1.8291,-1.8028]}]]